[[{"header":{"parameterUnit":"m.s-1","parameterCategory":1,"la1":31.0,"la2":29.5877,"lo1":-88.7671,"lo2":-86.6584,"dy":0.0162,"dx":0.0185,"nx":115,"ny":88,"refTime":"2023-08-15T12:00:00:Z","depth":0,"parameterNumber":2,"parameterNumberName":"U-component_of_WINDS"},"data":[0.0,0.0,0.0,0.0,0.0,0.0,0.0,0.0,0.0,0.0,0.0,0.0,0.0,0.0,0.0,0.0,0.0,0.0,0.0,0.0,0.0,0.0,0.0,0.0,0.0,0.0,0.0,0.0,0.0,0.0,0.0,0.0,0.0,0.0,0.0,0.0,0.0,0.0,0.0,0.0,0.0,0.0,0.0,0.0,0.0,0.0,0.0,0.0,0.0,0.0,0.0,0.0,0.0,0.0,0.0,0.0,0.0,0.0,0.0,0.0,0.0,0.0,0.0,0.0,0.0,0.0,0.0,0.0,0.0,0.0,0.0,0.0,0.0,0.0,0.0,0.0,0.0,0.0,0.0,0.0,0.0,0.0,0.0,0.0,0.0,0.0,0.0,0.0,0.0,0.0,0.0,0.0,0.0,0.0,0.0,0.0,0.0,0.0,0.0,0.0,0.0,0.0,0.0,0.0,0.0,0.0,0.0,0.0,0.0,0.0,0.0,0.0,0.0,0.0,0.0,0.0,0.0,0.0,0.0,0.0,0.0,0.0,0.0,0.0,0.0,0.0,0.0,0.0,0.0,0.0,0.0,0.0,0.0,0.0,0.0,0.0,0.0,0.0,0.0,0.0,0.0,0.0,0.0,0.0,0.0,0.0,0.0,0.0,0.0,0.0,0.0,0.0,0.0,0.0,0.0,0.0,0.0,0.0,0.0,0.0,0.0,0.0,0.0,0.0,0.0,0.0,0.0,0.0,0.0,0.0,0.0,0.0,0.0,0.0,0.0,0.0,0.0,0.0,0.0,0.0,0.0,0.0,0.0,0.0,0.0,0.0,0.0,0.0,0.0,0.0,0.0,0.0,0.0,0.0,0.0,0.0,0.0,0.0,0.0,0.0,0.0,0.0,0.0,0.0,0.0,0.0,0.0,0.0,0.0,0.0,0.0,0.0,0.0,0.0,0.0,0.0,0.0,0.0,0.0,0.0,0.0,0.0,0.0,0.0,0.0,0.0,0.0,0.0,0.0,0.0,0.0,0.0,0.0,0.0,0.0,0.0,0.0,0.0,0.0,0.0,0.0,0.0,0.0,0.0,0.0,0.0,0.0,0.0,0.0,0.0,0.0,0.0,0.0,0.0,0.0,0.0,0.0,0.0,0.0,0.0,0.0,0.0,0.0,0.0,0.0,0.0,0.0,0.0,0.0,0.0,0.0,0.0,0.0,0.0,0.0,0.0,0.0,0.0,0.0,0.0,0.0,0.0,0.0,0.0,0.0,0.0,0.0,0.0,0.0,0.0,0.0,0.0,0.0,0.0,0.0,0.0,0.0,0.0,0.0,0.0,0.0,0.0,0.0,0.0,0.0,0.0,0.0,0.0,0.0,0.0,0.0,0.0,0.0,0.0,0.0,0.0,0.0,0.0,0.0,0.0,0.0,0.0,0.0,0.0,0.0,0.0,0.0,0.0,0.0,0.0,0.0,0.0,0.0,0.0,0.0,0.0,0.0,0.0,0.0,0.0,0.0,0.0,0.0,0.0,0.0,0.0,0.0,0.0,0.0,0.0,0.0,0.0,0.0,0.0,0.0,0.0,0.0,0.0,0.0,0.0,0.0,0.0,0.0,0.0,0.0,0.0,0.0,0.0,0.0,0.0,0.0,0.0,0.0,0.0,0.0,0.0,0.0,0.0,0.0,0.0,0.0,0.0,0.0,0.0,0.0,0.0,0.0,0.0,0.0,0.0,0.0,0.0,0.0,0.0,0.0,0.0,0.0,0.0,0.0,0.0,0.0,0.0,0.0,0.0,0.0,0.0,0.0,0.0,0.0,0.0,0.0,0.0,0.0,0.0,0.0,0.0,0.0,0.0,0.0,0.0,0.0,0.0,0.0,0.0,0.0,0.0,0.0,0.0,0.0,0.0,0.0,0.0,0.0,0.0,0.0,0.0,0.0,0.0,0.0,0.0,0.0,0.0,0.0,0.0,0.0,0.0,0.0,0.0,0.0,0.0,0.0,0.0,0.0,0.0,0.0,0.0,0.0,0.0,0.0,0.0,0.0,0.0,0.0,0.0,0.0,0.0,0.0,0.0,0.0,0.0,0.0,0.0,0.0,0.0,0.0,0.0,0.0,0.0,0.0,0.0,0.0,0.0,0.0,0.0,0.0,0.0,0.0,0.0,0.0,0.0,0.0,0.0,0.0,0.0,0.0,0.0,0.0,0.0,0.0,0.0,0.0,0.0,0.0,0.0,0.0,0.0,0.0,0.0,0.0,0.0,0.0,0.0,0.0,0.0,0.0,0.0,0.0,0.0,0.0,0.0,0.0,0.0,0.0,0.0,0.0,0.0,0.0,0.0,0.0,0.0,0.0,0.0,0.0,0.0,0.0,0.0,0.0,0.0,0.0,0.0,0.0,0.0,0.0,0.0,0.0,0.0,0.0,0.0,0.0,0.0,0.0,0.0,0.0,0.0,0.0,0.0,0.0,0.0,0.0,0.0,0.0,0.0,0.0,0.0,0.0,0.0,0.0,0.0,0.0,0.0,0.0,0.0,0.0,0.0,0.0,0.0,0.0,0.0,0.0,0.0,0.0,0.0,0.0,0.0,0.0,0.0,0.0,0.0,0.0,0.0,0.0,0.0,0.0,0.0,0.0,0.0,0.0,0.0,0.0,0.0,0.0,0.0,0.0,0.0,0.0,0.0,0.0,0.0,0.0,0.0,0.0,0.0,0.0,0.0,0.0,0.0,0.0,0.0,0.0,0.0,0.0,0.0,0.0,0.0,0.0,0.0,0.0,0.0,0.0,0.0,0.0,0.0,0.0,0.0,0.0,0.0,0.0,0.0,0.0,0.0,0.0,0.0,0.0,0.0,0.0,0.0,0.0,0.0,0.0,0.0,0.0,0.0,0.0,0.0,0.0,0.0,0.0,0.0,0.0,0.0,0.0,0.0,0.0,0.0,0.0,0.0,0.0,0.0,0.0,0.0,0.0,0.0,0.0,0.0,0.0,0.0,0.0,0.0,0.0,0.0,0.0,0.0,0.0,0.0,0.0,0.0,0.0,0.0,0.0,0.0,0.0,0.0,0.0,0.0,0.0,0.0,0.0,0.0,0.0,0.0,0.0,0.0,0.0,0.0,0.0,0.0,0.0,0.0,0.0,0.0,0.0,0.0,0.0,0.0,0.0,0.0,0.0,0.0,0.0,0.0,0.0,0.0,0.0,0.0,0.0,0.0,0.0,0.0,0.0,0.0,0.0,0.0,0.0,0.0,0.0,0.0,0.0,0.0,0.0,0.0,0.0,0.0,0.0,0.0,0.0,0.0,0.0,0.0,0.0,0.0,0.0,0.0,0.0,0.0,0.0,0.0,0.0,0.0,0.0,0.0,0.0,0.0,0.0,0.0,0.0,0.0,0.0,0.0,0.0,0.0,0.0,0.0,0.0,0.0,0.0,0.0,0.0,0.0,0.0,0.0,0.0,0.0,0.0,0.0,0.0,0.0,0.0,0.0,0.0,0.0,0.0,0.0,0.0,0.0,0.0,0.0,0.0,0.0,0.0,0.0,0.0,0.0,0.0,0.0,0.0,0.0,0.0,0.0,0.0,0.0,0.0,0.0,0.0,0.0,0.0,0.0,0.0,0.0,0.0,0.0,0.0,0.0,0.0,0.0,0.0,0.0,0.0,0.0,0.0,0.0,0.0,0.0,0.0,0.0,0.0,0.0,0.0,0.0,0.0,0.0,0.0,0.0,0.0,0.0,0.0,0.0,0.0,0.0,0.0,0.0,0.0,0.0,0.0,0.0,0.0,0.0,0.0,0.0,0.0,0.0,0.0,0.0,0.0,0.0,0.0,0.0,0.0,0.0,0.0,0.0,0.0,0.0,0.0,0.0,0.0,0.0,0.0,0.0,0.0,0.0,0.0,0.0,0.0,0.0,0.0,0.0,0.0,0.0,0.0,0.0,0.0,0.0,0.0,0.0,0.0,0.0,0.0,0.0,0.0,0.0,0.0,0.0,0.0,0.0,0.0,0.0,0.0,0.0,0.0,0.0,0.0,0.0,0.0,0.0,0.0,0.0,0.0,0.0,0.0,0.0,0.0,0.0,0.0,0.0,0.0,0.0,0.0,0.0,0.0,0.0,0.0,0.0,0.0,0.0,0.0,0.0,0.0,0.0,0.0,0.0,0.0,0.0,0.0,0.0,0.0,0.0,0.0,0.0,0.0,0.0,0.0,0.0,0.0,0.0,0.0,0.0,0.0,0.0,0.0,0.0,0.0,0.0,0.0,0.0,0.0,0.0,0.5568,0.0,0.0,0.0,0.0,0.0,0.0,0.0,0.0,0.0,0.0,0.0,0.0,0.0,0.0,0.0,0.0,0.0,0.0,0.0,0.0,0.0,0.0,0.0,0.0,0.0,0.0,0.0,0.0,0.0,0.0,0.0,0.0,0.0,0.0,0.0,0.0,0.0,0.0,0.0,0.0,0.0,0.0,0.0,0.0,0.0,0.0,0.0,0.0,0.0,0.0,0.0,0.0,0.0,0.0,0.0,0.0,0.0,0.0,0.0,0.0,0.0,0.0,0.0,0.0,0.0,0.0,0.0,0.0,0.0,0.0,0.0,0.0,0.0,0.0,0.0,0.0,0.0,0.0,0.0,0.0,0.0,0.0,0.0,0.0,0.0,0.0,0.0,0.0,0.0,0.0,0.0,0.0,0.0,0.0,0.0,0.0,0.0,0.0,0.0,0.0,0.0,0.0,0.0,0.0,0.0,0.0,0.0,0.0,0.0,0.0,0.5321,0.5499,0.5656,0.5727,0.5649,0.0,0.0,0.0,0.0,0.0,0.0,0.0,0.0,0.0,0.0,0.0,0.0,0.0,0.0,0.0,0.0,0.0,0.0,0.0,0.0,0.0,0.0,0.0,0.0,0.0,0.0,0.0,0.0,0.0,0.0,0.0,0.0,0.0,0.0,0.0,0.0,0.0,0.0,0.0,0.0,0.0,0.0,0.0,0.0,0.0,0.0,0.0,0.0,0.0,0.0,0.0,0.0,0.0,0.0,0.0,0.0,0.0,0.0,0.0,0.0,0.0,0.0,0.0,0.0,0.0,0.0,0.0,0.0,0.0,0.0,0.0,0.0,0.0,0.0,0.0,0.0,0.0,0.0,0.0,0.0,0.0,0.0,0.0,0.0,0.0,0.0,0.0,0.0,0.0,0.0,0.0,0.0,0.0,0.0,0.0,0.0,0.0,0.0,0.0,0.0,0.0,0.0,0.0,0.0,0.0,0.0,0.0,0.0,0.0,0.0,0.0,0.0,0.5684,0.5757,0.5771,0.0,0.0,0.0,0.0,0.0,0.0,0.0,0.0,0.0,0.0,0.0,0.0,0.0,0.0,0.0,0.0,0.0,0.0,0.0,0.0,0.0,0.0,0.0,0.0,0.0,0.0,0.0,0.0,0.0,0.0,0.0,0.0,0.0,0.0,0.0,0.0,0.0,0.0,0.0,0.0,0.0,0.0,0.0,0.0,0.0,0.0,0.0,0.0,0.0,0.0,0.0,0.0,0.0,0.0,0.0,0.0,0.0,0.0,0.0,0.0,0.0,0.0,0.0,0.0,0.0,0.0,0.0,0.0,0.0,0.0,0.0,0.0,0.0,0.0,0.0,0.0,0.0,0.0,0.0,0.0,0.0,0.0,0.0,0.0,0.0,0.0,0.0,0.0,0.0,0.0,0.0,0.0,0.0,0.0,0.0,0.0,0.0,0.0,0.0,0.0,0.0,0.0,0.0,0.0,0.0,0.0,0.0,0.0,0.0,0.0,0.534,0.5573,0.5612,0.0,0.5962,0.0,0.0,0.0,0.0,0.0,0.0,0.0,0.0,0.0,0.0,0.0,0.0,0.0,0.0,0.0,0.0,0.0,0.0,0.0,0.0,0.0,0.0,0.0,0.0,0.0,0.0,0.0,0.0,0.0,0.0,0.0,0.0,0.0,0.0,0.0,0.0,0.0,0.0,0.0,0.0,0.0,0.0,0.0,0.0,0.0,0.0,0.0,0.0,0.0,0.0,0.0,0.0,0.0,0.0,0.0,0.0,0.0,0.0,0.0,0.0,0.0,0.0,0.0,0.0,0.0,0.0,0.0,0.0,0.0,0.0,0.0,0.0,0.0,0.0,0.0,0.0,0.0,0.0,0.0,0.0,0.0,0.0,0.0,0.0,0.0,0.0,0.0,0.0,0.0,0.0,0.0,0.0,0.0,0.0,0.0,0.0,0.0,0.0,0.0,0.0,0.0,0.0,0.0,0.0,0.0,0.0,0.0,0.0,0.0,0.0,0.5348,0.5539,0.5583,0.5785,0.0,0.0,0.0,0.0,0.0,0.0,0.0,0.0,0.0,0.0,0.0,0.0,0.0,0.0,0.0,0.0,0.0,0.0,0.0,0.0,0.0,0.0,0.0,0.0,0.0,0.0,0.0,0.0,0.0,0.0,0.0,0.0,0.0,0.0,0.0,0.0,0.0,0.0,0.0,0.0,0.0,0.0,0.0,0.0,0.0,0.0,0.0,0.0,0.0,0.0,0.0,0.0,0.0,0.0,0.0,0.0,0.0,0.0,0.0,0.0,0.0,0.0,0.0,0.0,0.0,0.0,0.0,0.0,0.0,0.0,0.0,0.0,0.0,0.0,0.0,0.0,0.0,0.0,0.0,0.0,0.0,0.0,0.0,0.0,0.0,0.0,0.0,0.0,0.0,0.0,0.0,0.0,0.0,0.0,0.0,0.0,0.0,0.0,0.0,0.0,0.0,0.0,0.0,0.0,0.0,0.0,0.0,0.0,0.0,0.0,0.5306,0.543,0.5653,0.5789,0.5993,0.6303,0.0,0.0,0.0,0.0,0.0,0.0,0.0,0.0,0.0,0.0,0.0,0.0,0.0,0.0,0.0,0.0,0.0,0.0,0.0,0.0,0.0,0.0,0.0,0.0,0.0,0.0,0.0,0.0,0.0,0.0,0.0,0.0,0.0,0.0,0.0,0.0,0.0,0.0,0.0,0.0,0.0,0.0,0.0,0.0,0.0,0.0,0.0,0.0,0.0,0.0,0.0,0.0,0.0,0.0,0.0,0.0,0.0,0.0,0.0,0.0,0.0,0.0,0.0,0.0,0.0,0.0,0.0,0.0,0.0,0.0,0.0,0.0,0.0,0.0,0.0,0.0,0.0,0.0,0.0,0.0,0.0,0.0,0.0,0.0,0.0,0.0,0.0,0.0,0.0,0.0,0.0,0.0,0.0,0.0,0.0,0.0,0.0,0.0,0.0,0.0,0.0,0.0,0.0,0.0,0.0,0.0,0.0,0.0,0.5091,0.5294,0.5619,0.6054,0.6322,0.644,0.0,0.0,0.0,0.0,0.0,0.0,0.0,0.0,0.0,0.0,0.0,0.0,0.0,0.0,0.0,0.0,0.0,0.0,0.0,0.0,0.0,0.0,0.0,0.0,0.0,0.0,0.0,0.0,0.0,0.0,0.0,0.0,0.0,0.0,0.0,0.0,0.0,0.0,0.0,0.0,0.0,0.0,0.0,0.0,0.0,0.0,0.0,0.0,0.0,0.0,0.0,0.0,0.0,0.0,0.0,0.0,0.0,0.0,0.0,0.0,0.0,0.0,0.0,0.0,0.0,0.0,0.0,0.0,0.0,0.0,0.0,0.0,0.0,0.0,0.0,0.0,0.0,0.0,0.0,0.0,0.0,0.0,0.0,0.0,0.0,0.0,0.0,0.0,0.0,0.0,0.0,0.0,0.0,0.0,0.0,0.0,0.0,0.0,0.0,0.0,0.0,0.0,0.0,0.0,0.0,0.0,0.0,0.0,0.0,0.5085,0.5373,0.5651,0.5887,0.6125,0.6307,0.0,0.0,0.0,0.0,0.0,0.0,0.0,0.0,0.0,0.0,0.0,0.0,0.0,0.0,0.0,0.0,0.0,0.0,0.0,0.0,0.0,0.0,0.0,0.0,0.0,0.0,0.0,0.0,0.0,0.0,0.0,0.0,0.0,0.0,0.0,0.0,0.0,0.0,0.0,0.0,0.0,0.0,0.0,0.0,0.0,0.0,0.0,0.0,0.0,0.0,0.0,0.0,0.0,0.0,0.0,0.0,0.0,0.0,0.0,0.0,0.0,0.0,0.0,0.0,0.0,0.0,0.0,0.0,0.0,0.0,0.0,0.0,0.0,0.0,0.0,0.0,0.0,0.0,0.0,0.0,0.0,0.0,0.0,0.0,0.0,0.0,0.0,0.0,0.0,0.0,0.0,0.0,0.0,0.0,0.0,0.0,0.0,0.0,0.0,0.0,0.0,0.0,0.0,0.0,0.0,0.0,0.0,0.0,0.0,0.5195,0.0,0.5709,0.5926,0.6031,0.623,0.0,0.0,0.0,0.0,0.0,0.0,0.0,0.0,0.0,0.0,0.0,0.0,0.0,0.0,0.0,0.0,0.0,0.0,0.0,0.0,0.0,0.0,0.0,0.0,0.0,0.0,0.0,0.0,0.0,0.0,0.0,0.0,0.0,0.0,0.0,0.0,0.0,0.0,0.0,0.0,0.0,0.0,0.0,0.0,0.0,0.0,0.0,0.0,0.0,0.0,0.0,0.0,0.0,0.0,0.0,0.0,0.0,0.0,0.0,0.0,0.0,0.0,0.0,0.0,0.0,0.0,0.0,0.0,0.0,0.0,0.0,0.0,0.0,0.0,0.0,0.0,0.0,0.0,0.0,0.0,0.0,0.0,0.0,0.0,0.0,0.0,0.0,0.0,0.0,0.0,0.0,0.0,0.0,0.0,0.0,0.0,0.0,0.0,0.0,0.0,0.0,0.0,0.0,0.0,0.0,0.0,0.0,0.0,0.494,0.5373,0.5538,0.5791,0.6178,0.6117,0.6206,0.0,0.0,0.0,0.0,0.0,0.0,0.0,0.0,0.0,0.0,0.0,0.0,0.0,0.0,0.0,0.0,0.0,0.0,0.0,0.0,0.0,0.0,0.0,0.0,0.0,0.0,0.0,0.0,0.0,0.0,0.0,0.0,0.0,0.0,0.0,0.0,0.0,0.0,0.0,0.0,0.0,0.0,0.0,0.0,0.0,0.0,0.0,0.0,0.0,0.0,0.0,0.0,0.0,0.0,0.0,0.0,0.0,0.0,0.0,0.0,0.0,0.0,0.0,0.0,0.0,0.0,0.0,0.0,0.0,0.0,0.0,0.0,0.0,0.0,0.0,0.0,0.0,0.0,0.0,0.0,0.0,0.0,0.0,0.0,0.0,0.0,0.0,0.0,0.0,0.0,0.0,0.0,0.0,0.0,0.0,0.0,0.0,0.0,0.0,0.0,0.0,0.0,0.0,0.0,0.0,0.0,0.0,0.0,0.0,0.5531,0.5657,0.5814,0.5933,0.6144,0.6173,0.0,0.0,0.0,0.0,0.0,0.0,0.0,0.0,0.0,0.0,0.0,0.0,0.0,0.0,0.0,0.0,0.0,0.0,0.0,0.0,0.0,0.0,0.0,0.0,0.0,0.0,0.0,0.0,0.0,0.0,0.0,0.0,0.0,0.0,0.0,0.0,0.0,0.0,0.0,0.0,0.0,0.0,0.0,0.0,0.0,0.0,0.0,0.0,0.0,0.0,0.0,0.0,0.0,0.0,0.0,0.0,0.0,0.0,0.0,0.0,0.0,0.0,0.0,0.0,0.0,0.0,0.0,0.0,0.0,0.0,0.0,0.0,0.0,0.0,0.0,0.0,0.0,0.0,0.0,0.0,0.0,0.0,0.0,0.0,0.0,0.0,0.0,0.0,0.0,0.0,0.0,0.0,0.0,0.0,0.0,0.0,0.0,0.0,0.0,0.0,0.0,0.0,0.0,0.0,0.0,0.0,0.0,0.0,0.0,0.5436,0.5594,0.5689,0.5669,0.5962,0.605,0.5917,0.0,0.0,0.0,0.0,0.0,0.0,0.0,0.0,0.0,0.0,0.0,0.0,0.0,0.0,0.0,0.0,0.0,0.0,0.0,0.0,0.0,0.0,0.0,0.0,0.0,0.0,0.0,0.0,0.0,0.0,0.0,0.0,0.0,0.0,0.0,0.0,0.0,0.0,0.0,0.0,0.0,0.0,0.0,0.0,0.0,0.0,0.0,0.0,0.0,0.0,0.0,0.0,0.0,0.0,0.0,0.0,0.0,0.0,0.0,0.0,0.0,0.0,0.0,0.0,0.0,0.0,0.0,0.0,0.0,0.0,0.0,0.0,0.0,0.0,0.0,0.0,0.0,0.0,0.0,0.0,0.0,0.0,0.0,0.0,0.0,0.0,0.0,0.0,0.0,0.0,0.0,0.0,0.0,0.0,0.0,0.0,0.0,0.0,0.0,0.0,0.0,0.0,0.0,0.0,0.0,0.0,0.0,0.0,0.5165,0.5358,0.548,0.553,0.5717,0.5884,0.0,0.0,0.0,0.0,0.0,0.0,0.0,0.0,0.0,0.0,0.0,0.0,0.0,0.0,0.0,0.0,0.0,0.0,0.0,0.0,0.0,0.0,0.0,0.0,0.0,0.0,0.0,0.0,0.0,0.0,0.0,0.0,0.0,0.0,0.0,0.0,0.0,0.0,0.0,0.0,0.0,0.0,0.0,0.0,0.0,0.0,0.0,0.0,0.0,0.0,0.0,0.0,0.0,0.0,0.0,0.0,0.0,0.0,0.0,0.0,0.0,0.0,0.0,0.0,0.0,0.0,0.0,0.0,0.0,0.0,0.0,0.0,0.0,0.0,0.0,0.0,0.0,0.0,0.0,0.0,0.0,0.0,0.0,0.0,0.0,0.0,0.0,0.0,0.0,0.0,0.0,0.0,0.0,0.0,0.0,0.0,0.0,0.0,0.0,0.0,0.0,0.0,0.0,0.0,0.0,0.0,0.0,0.0,0.0,0.4487,0.4909,0.5288,0.564,0.5746,0.5776,0.0,0.0,0.0,0.0,0.0,0.0,0.0,0.0,0.0,0.0,0.0,0.0,0.0,0.0,0.0,0.0,0.0,0.0,0.0,0.0,0.0,0.0,0.0,0.0,0.0,0.0,0.0,0.0,0.0,0.0,0.0,0.0,0.0,0.0,0.0,0.0,0.0,0.0,0.0,0.0,0.0,0.0,0.0,0.0,0.0,0.0,0.0,0.0,0.0,0.0,0.0,0.0,0.0,0.0,0.0,0.0,0.0,0.0,0.0,0.0,0.0,0.0,0.0,0.0,0.0,0.0,0.0,0.0,0.0,0.0,0.0,0.0,0.0,0.0,0.0,0.0,0.0,0.0,0.0,0.0,0.0,0.0,0.0,0.0,0.0,0.0,0.0,0.0,0.0,0.0,0.0,0.0,0.0,0.0,0.0,0.0,0.0,0.0,0.0,0.0,0.0,0.0,0.0,0.0,0.0,0.0,0.0,0.0,0.3866,0.395,0.439,0.4839,0.5284,0.553,0.5621,0.0,0.0,0.0,0.0,0.0,0.0,0.0,0.0,0.0,0.0,0.0,0.0,0.0,0.0,0.0,0.0,0.0,0.0,0.0,0.0,0.0,0.0,0.0,0.0,0.0,0.0,0.0,0.0,0.0,0.0,0.0,0.0,0.0,0.0,0.0,0.0,0.0,0.0,0.0,0.0,0.0,0.0,0.0,0.0,0.0,0.0,0.0,0.0,0.0,0.0,0.0,0.0,0.0,0.0,0.0,0.0,0.0,0.0,0.0,0.0,0.0,0.0,0.0,0.0,0.0,0.0,0.0,0.0,0.0,0.0,0.0,0.0,0.0,0.0,0.0,0.0,0.0,0.0,0.0,0.0,0.0,0.0,0.0,0.0,0.0,0.0,0.0,0.0,0.0,0.0,0.0,0.0,0.0,0.0,0.0,0.0,0.0,0.0,0.0,0.0,0.0,0.0,0.0,0.0,0.0,0.0,0.0,0.0,0.346,0.3541,0.3852,0.4212,0.4614,0.5135,0.5444,0.0,0.0,0.0,0.0,0.0,0.0,0.0,0.0,0.0,0.0,0.0,0.0,0.0,0.0,0.0,0.0,0.0,0.0,0.0,0.0,0.0,0.0,0.0,0.0,0.0,0.0,0.0,0.0,0.0,0.0,0.0,0.0,0.0,0.0,0.0,0.0,0.0,0.0,0.0,0.0,0.0,0.0,0.0,0.0,0.0,0.0,0.0,0.0,0.0,0.0,0.0,0.0,0.0,0.0,0.0,0.0,0.0,0.0,0.0,0.0,0.0,0.0,0.0,0.0,0.0,0.0,0.0,0.0,0.0,0.0,0.0,0.0,0.0,0.0,0.0,0.0,0.0,0.0,0.0,0.0,0.0,0.0,0.0,0.0,0.0,0.0,0.0,0.0,0.0,0.0,0.0,0.0,0.0,0.0,0.0,0.0,0.0,0.0,0.0,0.0,0.0,0.0,0.0,0.0,0.0,0.0,0.0,0.0,0.2934,0.3041,0.3277,0.3606,0.4072,0.4633,0.5108,0.0,0.0,0.0,0.0,0.0,0.0,0.0,0.0,0.0,0.0,0.0,0.0,0.0,0.0,0.0,0.0,0.0,0.0,0.0,0.0,0.0,0.0,0.0,0.0,0.0,0.0,0.0,0.0,0.0,0.0,0.0,0.0,0.0,0.0,0.0,0.0,0.0,0.0,0.0,0.0,0.0,0.0,0.0,0.0,0.0,0.0,0.0,0.0,0.5169,0.0,0.0,0.0,0.0,0.0,0.0,0.0,0.0,0.0,0.0,0.0,0.0,0.0,0.0,0.0,0.0,0.0,0.0,0.0,0.0,0.0,0.0,0.0,0.0,0.0,0.0,0.0,0.0,0.0,0.0,0.0,0.0,0.0,0.0,0.0,0.0,0.0,0.0,0.0,0.0,0.0,0.0,0.0,0.0,0.0,0.0,0.0,0.0,0.0,0.0,0.0,0.0,0.0,0.0,0.0,0.0,0.0,0.0,0.0,0.2333,0.2435,0.2668,0.2978,0.3434,0.3944,0.447,0.0,0.0,0.0,0.0,0.0,0.0,0.0,0.0,0.0,0.0,0.0,0.0,0.0,0.0,0.0,0.0,0.0,0.0,0.0,0.0,0.0,0.0,0.0,0.0,0.0,0.0,0.0,0.0,0.0,0.0,0.0,0.0,0.0,0.0,0.0,0.0,0.0,0.0,0.0,0.0,0.0,0.0,0.0,0.0,0.0,0.0,0.0,0.0,0.0,0.0,0.0,0.0,0.0,0.0,0.0,0.0,0.0,0.0,0.0,0.0,0.0,0.0,0.0,0.0,0.0,0.0,0.0,0.0,0.0,0.0,0.0,0.0,0.0,0.0,0.0,0.0,0.0,0.0,0.0,0.0,0.0,0.0,0.0,0.0,0.0,0.0,0.0,0.0,0.0,0.0,0.0,0.0,0.0,0.0,0.0,0.0,0.0,0.0,0.0,0.0,0.0,0.0,0.0,0.0,0.0,0.0,0.0,0.1869,0.1758,0.1816,0.2047,0.2409,0.2837,0.3231,0.3758,0.4426,0.0,0.0,0.0,0.0,0.0,0.0,0.0,0.0,0.0,0.0,0.0,0.0,0.0,0.0,0.0,0.0,0.0,0.0,0.0,0.0,0.0,0.0,0.0,0.0,0.0,0.0,0.0,0.0,0.0,0.0,0.0,0.0,0.0,0.0,0.0,0.0,0.0,0.0,0.4711,0.492,0.0,0.0,0.0,0.0,0.0,0.0,0.0,0.0,0.5088,0.0,0.0,0.0,0.0,0.0,0.0,0.0,0.0,0.0,0.0,0.0,0.0,0.0,0.0,0.0,0.0,0.0,0.0,0.0,0.0,0.0,0.0,0.0,0.0,0.0,0.0,0.0,0.0,0.0,0.0,0.0,0.0,0.0,0.0,0.0,0.0,0.0,0.0,0.0,0.0,0.0,0.0,0.0,0.0,0.0,0.0,0.0,0.0,0.0,0.0,0.0,0.0,0.0,0.0,0.0,0.0,0.1392,0.1382,0.1431,0.1484,0.1517,0.192,0.2709,0.2953,0.3326,0.384,0.0,0.0,0.0,0.0,0.0,0.0,0.0,0.0,0.0,0.0,0.0,0.0,0.0,0.0,0.0,0.0,0.0,0.0,0.0,0.0,0.0,0.0,0.0,0.0,0.0,0.0,0.0,0.0,0.0,0.0,0.0,0.0,0.0,0.0,0.0,0.0,0.0,0.0,0.0,0.4863,0.5002,0.0,0.0,0.0,0.0,0.0,0.0,0.0,0.0,0.4993,0.0,0.0,0.0,0.0,0.0,0.0,0.0,0.0,0.0,0.0,0.0,0.0,0.0,0.0,0.0,0.0,0.0,0.0,0.0,0.0,0.0,0.0,0.0,0.0,0.0,0.0,0.0,0.0,0.0,0.0,0.0,0.0,0.0,0.0,0.0,0.0,0.0,0.0,0.0,0.0,0.0,0.0,0.0,0.0,0.0,0.0,0.0,0.0,0.0,0.0,0.0,0.0,0.0,0.0,0.0,0.1216,0.1052,0.1005,0.1048,0.1179,0.1471,0.1955,0.2295,0.2666,0.0,0.0,0.0,0.0,0.0,0.0,0.0,0.0,0.0,0.0,0.0,0.0,0.0,0.0,0.0,0.0,0.0,0.0,0.0,0.0,0.0,0.0,0.0,0.0,0.0,0.0,0.0,0.0,0.0,0.0,0.0,0.0,0.0,0.0,0.0,0.0,0.0,0.0,0.0,0.0,0.4762,0.4792,0.4662,0.0,0.0,0.0,0.0,0.0,0.0,0.4891,0.4897,0.0,0.0,0.0,0.0,0.0,0.0,0.0,0.0,0.0,0.0,0.0,0.0,0.0,0.0,0.0,0.0,0.0,0.0,0.0,0.0,0.0,0.0,0.0,0.0,0.0,0.0,0.0,0.0,0.0,0.0,0.0,0.0,0.0,0.0,0.0,0.0,0.0,0.0,0.0,0.0,0.0,0.0,0.0,0.0,0.0,0.0,0.0,0.0,0.0,0.0,0.0,0.0,0.0,0.0,0.0,0.1008,0.0763,0.0638,0.0653,0.0844,0.1045,0.1268,0.164,0.2043,0.0,0.0,0.0,0.0,0.0,0.0,0.0,0.0,0.0,0.0,0.0,0.0,0.0,0.0,0.0,0.0,0.0,0.0,0.0,0.0,0.0,0.0,0.0,0.0,0.0,0.0,0.0,0.0,0.0,0.0,0.0,0.0,0.0,0.0,0.0,0.0,0.0,0.0,0.0,0.0,0.0,0.4427,0.4211,0.4173,0.0,0.0,0.0,0.0,0.4377,0.4559,0.0,0.0,0.0,0.0,0.0,0.0,0.0,0.0,0.0,0.0,0.0,0.0,0.0,0.0,0.0,0.0,0.0,0.0,0.0,0.0,0.0,0.0,0.0,0.0,0.0,0.0,0.0,0.0,0.0,0.0,0.0,0.0,0.0,0.0,0.0,0.0,0.0,0.0,0.0,0.0,0.0,0.0,0.0,0.0,0.0,0.0,0.0,0.0,0.0,0.0,0.0,0.0,0.0,0.0,0.0,0.0,0.0425,0.0374,0.0362,0.0413,0.0466,0.0694,0.1116,0.1288,0.1594,0.0,0.0,0.0,0.0,0.0,0.0,0.0,0.0,0.0,0.0,0.0,0.0,0.0,0.0,0.0,0.0,0.0,0.0,0.0,0.0,0.0,0.0,0.0,0.0,0.0,0.0,0.0,0.0,0.0,0.0,0.0,0.0,0.0,0.0,0.0,0.0,0.0,0.0,0.0,0.0,0.0,0.3853,0.3691,0.3774,0.3829,0.0,0.0,0.3819,0.3716,0.3895,0.0,0.0,0.0,0.0,0.0,0.0,0.0,0.0,0.0,0.0,0.0,0.0,0.0,0.0,0.0,0.0,0.0,0.0,0.0,0.0,0.0,0.0,0.0,0.0,0.0,0.0,0.0,0.0,0.0,0.0,0.0,0.0,0.0,0.0,0.0,0.0,0.0,0.0,0.0,0.0,0.0,0.0,0.0,0.0,0.0,0.0,0.0,0.0,0.0,0.0,0.0,0.0,0.0,0.0,0.0,0.0483,0.0311,0.0188,0.015,0.0177,0.0313,0.0493,0.0695,0.0871,0.115,0.0,0.0,0.0,0.0,0.0,0.0,0.0,0.0,0.0,0.0,0.0,0.0,0.0,0.0,0.0,0.0,0.0,0.0,0.0,0.0,0.0,0.0,0.0,0.0,0.0,0.0,0.0,0.0,0.0,0.0,0.0,0.0,0.0,0.0,0.0,0.0,0.0,0.0,0.0,0.0,0.0,0.0,0.3077,0.3081,0.0,0.0,0.0,0.3137,0.3199,0.0,0.0,0.0,0.0,0.0,0.0,0.0,0.0,0.0,0.0,0.0,0.0,0.0,0.0,0.0,0.0,0.0,0.0,0.0,0.0,0.0,0.0,0.0,0.0,0.0,0.0,0.0,0.0,0.0,0.0,0.0,0.0,0.0,0.0,0.0,0.0,0.0,0.0,0.0,0.0,0.0,0.0,0.0,0.0,0.0,0.0,0.0,0.0,0.0,0.0,0.0,0.0,0.0,0.0,0.0,0.0,0.0,0.0063,-0.0085,-0.0174,-0.0203,0.0068,0.0181,0.0203,0.0465,0.0,0.0,0.0,0.0,0.0,0.0,0.0,0.0,0.0,0.0,0.0,0.0,0.0,0.0,0.0,0.0,0.0,0.0,0.0,0.0,0.0,0.0,0.0,0.0,0.0,0.0,0.0,0.3485,0.0,0.0,0.0,0.0,0.0,0.0,0.0,0.0,0.0,0.0,0.0,0.0,0.0,0.0,0.2565,0.23,0.2276,0.227,0.0,0.0,0.2339,0.2545,0.273,0.2847,0.0,0.0,0.0,0.0,0.0,0.0,0.0,0.0,0.0,0.0,0.0,0.0,0.0,0.0,0.0,0.0,0.0,0.0,0.0,0.0,0.0,0.0,0.0,0.0,0.0,0.0,0.0,0.0,0.0,0.0,0.0,0.0,0.0,0.0,0.0,0.0,0.0,0.0,0.0,0.0,0.0,0.0,0.0,0.0,0.0,0.0,0.0,0.0,0.0,0.0,0.0,0.0,0.0,0.0,-0.0622,-0.0652,-0.0645,-0.0687,-0.0714,-0.0485,-0.0346,-0.0346,0.0068,0.0332,0.0,0.0,0.0,0.0,0.0,0.0,0.0,0.0,0.0,0.0,0.0,0.0,0.0,0.0,0.0,0.0,0.0,0.0,0.0,0.0,0.0,0.0,0.0,0.0,0.0,0.0,0.0,0.0,0.0,0.0,0.0,0.0,0.0,0.0,0.0,0.0,0.0,0.0,0.0,0.0,0.0,0.1691,0.1437,0.1383,0.1383,0.0,0.1409,0.1449,0.1657,0.1853,0.205,0.2225,0.0,0.0,0.0,0.0,0.0,0.0,0.0,0.0,0.0,0.0,0.0,0.0,0.0,0.0,0.0,0.0,0.0,0.0,0.0,0.0,0.0,0.0,0.0,0.0,0.0,0.0,0.0,0.0,0.0,0.0,0.0,0.0,0.0,0.0,0.0,0.0,0.0,0.0,0.0,0.0,0.0,0.0,0.0,0.0,0.0,0.0,0.0,0.0,0.0,0.0,0.0,0.0,0.0,-0.106,-0.1072,-0.1001,-0.0966,-0.097,-0.0773,-0.066,-0.066,-0.0485,-0.0249,0.0,0.0,0.0,0.0,0.0,0.0,0.0,0.0,0.0,0.0,0.0,0.0,0.0,0.0,0.0,0.0,0.0,0.0,0.0,0.0,0.0,0.0,0.0,0.0,0.0,0.0,0.0,0.0,0.2053,0.1913,0.1633,0.0,0.0,0.0,0.0,0.0,0.0,0.0,0.0,0.0,0.0,0.0932,0.0706,0.0579,0.0,0.0,0.0503,0.0566,0.0753,0.098,0.1154,0.1348,0.1563,0.0,0.0,0.0,0.0,0.0,0.0,0.0,0.0,0.0,0.0,0.0,0.0,0.0,0.0,0.0,0.0,0.0,0.0,0.0,0.0,0.0,0.0,0.0,0.0,0.0,0.0,0.0,0.0,0.0,0.0,0.0,0.0,0.0,0.0,0.0,0.0,0.0,0.0,0.0,0.0,0.0,0.0,0.0,0.0,0.0,0.0,0.0,0.0,0.0,0.0,0.0,0.0,-0.1762,-0.18,-0.1644,-0.1559,-0.1601,-0.1313,-0.1154,-0.1154,-0.102,-0.077,0.0,0.0,0.0,0.0,0.0,0.0,0.0,0.0,0.0,0.0,0.0,0.0,0.0,0.0,0.0,0.0,0.0,0.0,0.0,0.0,0.0,0.0,0.0,0.0,0.0,0.0,0.0,0.0,0.1172,0.1007,0.0779,0.0,0.0,0.0,0.0,0.0,0.0,0.0,0.0,0.0,0.0,0.0065,-0.0199,-0.0354,-0.0468,-0.0452,-0.0427,-0.0312,-0.0044,0.0109,0.0279,0.0584,0.0,0.0,0.0,0.0,0.0,0.0,0.0,0.0,0.0,0.0,0.0,0.0,0.0,0.0,0.0,0.0,0.0,0.0,0.0,0.0,0.0,0.0,0.0,0.0,0.0,0.0,0.0,0.3844,0.0,0.0,0.3322,0.0,0.0,0.0,0.0,0.0,0.0,0.0,0.0,0.0,0.0,0.0,0.0,0.0,0.0,0.0,0.0,0.0,0.0,0.0,0.0,0.0,0.0,-0.2845,-0.295,-0.2696,-0.2637,-0.2738,-0.2257,-0.1989,-0.1966,-0.1472,-0.1191,-0.119,0.0,0.0,0.0,0.0,0.0,0.0,0.0,0.0,0.0,0.0,0.0,0.0,0.0,0.0,0.0,0.0,0.0,0.0,0.0,0.0,0.0,0.0,0.0,0.0,0.0,0.0,0.0561,0.0164,-0.0073,0.0,0.0,0.0,0.0,0.0,0.0,0.0,0.0,0.0,-0.0687,-0.0817,-0.1015,-0.1405,-0.1479,-0.1478,-0.1479,-0.1409,-0.1211,-0.0763,-0.0727,-0.0608,0.0,0.0,0.0,0.0,0.0,0.0,0.0,0.0,0.0,0.0,0.0,0.0,0.0,0.0,0.0,0.0,0.0,0.0,0.0,0.0,0.0,0.0,0.0,0.0,0.0,0.0,0.0,0.353,0.3273,0.0,0.0,0.0,0.0,0.0,0.0,0.0,0.0,0.0,0.0,0.0,-0.0731,-0.1371,0.0,0.0,0.0,0.0,0.0,0.0,0.0,0.0,0.0,0.0,0.0,0.0,-0.389,-0.3924,-0.3615,-0.3527,-0.3645,-0.3187,-0.2946,-0.2977,-0.2557,-0.207,-0.148,0.0,0.0,0.0,0.0,0.0,0.0,0.0,0.0,0.0,0.0,0.0,0.0,0.0,0.0,0.0,0.0,0.0,0.0,0.0,0.0,0.0,0.0,0.0,0.0,0.0,0.0144,0.0,0.0,0.0,0.0,0.0,0.0,0.0,0.0,0.0,0.0,0.0,-0.117,-0.1483,-0.1737,-0.2013,-0.2332,-0.2477,-0.2572,0.0,0.0,0.0,0.0,0.0,0.0,0.0,0.0,0.0,0.0,0.0,0.0,0.0,0.0,-0.0182,0.0441,0.0702,0.0812,0.0725,0.0,0.0,0.0,0.0,0.0,0.0,0.0,0.0,0.0,0.0,0.0,0.0,0.0,0.0,0.2781,0.0,0.2355,0.0,0.0,0.0,0.0,0.0,0.0,0.0,0.0,-0.1189,-0.1491,-0.1827,-0.2432,-0.2724,0.0,-0.3363,-0.3466,0.0,0.0,0.0,0.0,0.0,0.0,0.0,0.0,-0.477,-0.4841,-0.4538,-0.4457,-0.4596,-0.4235,-0.4047,-0.4093,-0.3615,-0.2982,-0.2071,-0.1803,-0.1553,0.0,0.0,0.0,0.0,0.0,0.0,0.0,0.0,0.0,0.0,0.0,0.0,0.0,0.0,0.0,0.0,0.0,0.0,0.0,0.0,0.0,0.0,0.0,-0.0893,0.0,0.0,0.0,0.0,0.0,0.0,0.0,0.0,0.0,-0.2005,-0.1967,-0.2163,-0.2561,-0.2805,-0.3076,-0.3415,0.0,0.0,0.0,0.0,0.0,0.0,0.0,-0.2749,-0.2202,-0.2128,-0.2145,-0.218,-0.2212,-0.2151,-0.1879,0.0,0.0,-0.0324,0.0,0.0115,0.0115,0.0115,0.0046,-0.0139,-0.0278,-0.0419,0.0,0.0,0.0,0.0,0.0,0.0,0.0,0.0,0.2046,0.1848,0.0,0.1378,0.0,0.0,0.0,0.0,-0.0796,-0.0834,0.0,0.0,-0.2314,-0.2635,-0.315,-0.3678,-0.3928,-0.3979,-0.4478,-0.4858,-0.4973,-0.4292,0.0,0.0,0.0,0.0,0.0,0.0,-0.5557,-0.5742,-0.5521,-0.547,-0.5655,-0.5377,-0.5245,-0.5196,-0.4657,-0.39,-0.299,-0.275,-0.246,-0.2048,-0.1729,0.0,0.0,0.0,0.0,0.0,0.0,0.0,0.0,0.0,0.0,0.0,0.0,0.0,0.0,0.0,0.0,0.0,0.0,0.0,0.0,-0.1783,0.0,0.0,0.0,0.0,0.0,0.0,0.0,0.0,0.0,0.0,-0.3239,-0.3082,-0.3285,-0.3867,0.0,0.0,0.0,0.0,-0.4736,-0.474,-0.4739,-0.4546,-0.4017,-0.3942,-0.3755,-0.3254,0.0,0.0,-0.3335,-0.3393,-0.3349,-0.3076,-0.2822,-0.2296,-0.1113,-0.0887,-0.0815,-0.0815,-0.0816,-0.0867,-0.093,-0.096,-0.0989,0.0958,0.0,0.0,0.0,0.0,0.1605,0.1479,0.1288,0.1097,0.09,0.0681,0.0434,0.0,0.0,0.0,0.0,0.0,0.0,-0.248,-0.3406,-0.3453,-0.3759,-0.4334,-0.4675,-0.487,-0.4983,-0.5526,-0.5871,-0.6058,-0.6083,-0.5933,-0.5608,0.0,0.0,0.0,0.0,-0.6792,-0.6842,-0.6765,-0.6768,-0.6872,-0.6442,-0.5984,-0.558,-0.5387,-0.4878,-0.3933,-0.3856,-0.3555,-0.2961,-0.283,0.0,0.0,0.0,0.0,0.0,0.0,0.0,0.0,0.0,0.0,0.0,0.0,0.0,0.0,0.0,0.0,0.0,0.0,0.0,-0.2346,-0.2746,-0.3004,0.0,0.0,0.0,0.0,0.0,0.0,0.0,0.0,0.0,-0.5209,-0.4626,-0.4386,0.0,0.0,-0.515,-0.5576,-0.5636,-0.5636,-0.5636,-0.5639,0.0,-0.518,-0.5103,-0.5,-0.4644,-0.4593,-0.4604,-0.4653,-0.465,-0.4515,-0.4011,-0.3853,-0.3569,-0.2853,-0.2039,-0.1575,-0.1524,-0.1524,-0.1577,-0.1795,-0.1822,-0.1877,-0.0291,0.0167,0.0582,0.0759,0.0736,0.0759,0.0662,0.0496,0.0293,0.0045,-0.0177,-0.0421,-0.0775,-0.1216,-0.1548,0.0,0.0,0.0,-0.3563,-0.445,-0.4659,-0.4971,-0.5434,-0.5846,-0.6083,-0.6174,-0.6589,-0.6845,-0.6967,-0.7279,-0.7245,-0.6915,0.0,0.0,-0.7137,-0.7346,-0.7476,-0.7537,-0.7533,-0.757,-0.7647,-0.7325,-0.6936,-0.6471,-0.6334,-0.5904,-0.5103,-0.4918,-0.4594,-0.4075,-0.3925,-0.3685,0.0,0.0,0.0,0.0,0.0,0.0,0.0,0.0,0.0,0.0,0.0,-0.1779,-0.1874,0.0,0.0,0.0,-0.2983,-0.3305,-0.349,-0.3798,0.0,0.0,0.0,0.0,0.0,0.0,0.0,-0.5755,-0.6088,-0.6453,-0.6695,-0.6245,-0.5946,-0.6062,-0.6132,-0.6276,-0.6637,0.0,-0.6669,-0.6669,-0.6669,-0.659,-0.6321,-0.6268,-0.6188,-0.5929,-0.5914,-0.5906,-0.591,-0.5831,-0.5656,-0.5228,-0.5045,-0.4837,-0.4429,-0.3797,-0.3101,-0.2597,-0.2476,-0.2533,-0.2685,-0.2716,-0.2777,-0.1319,-0.1239,-0.0586,-0.0264,-0.0192,-0.0192,-0.0191,-0.0239,-0.043,-0.0716,-0.1049,-0.1242,-0.1768,-0.2559,-0.302,0.0,-0.4052,-0.418,-0.4682,-0.5443,-0.5893,-0.6256,-0.6542,-0.707,-0.7352,-0.7375,-0.764,-0.7785,-0.7824,-0.8057,-0.8189,-0.8183,-0.7825,-0.7633,-0.7602,-0.77,-0.7837,-0.7987,-0.8006,-0.802,-0.8072,-0.8078,-0.7939,-0.7667,-0.7438,-0.7022,-0.6369,-0.6027,-0.5678,-0.5346,-0.5012,-0.4666,-0.4304,0.0,0.0,0.0,0.0,0.0,0.0,0.0,0.0,0.0,0.0,0.0,0.0,0.0,0.0,0.0,-0.4253,0.0,-0.4705,-0.4903,0.0,0.0,0.0,-0.5931,-0.5931,-0.6477,-0.6891,-0.6965,0.0,0.0,-0.773,-0.7761,-0.7699,-0.7475,-0.7378,-0.7458,-0.7726,-0.7738,-0.7753,-0.7716,-0.7751,-0.7691,-0.7413,-0.7348,-0.7273,-0.7065,-0.7083,-0.7106,-0.7117,-0.6973,-0.6776,-0.6545,-0.6293,-0.6054,-0.586,-0.5677,-0.534,-0.4025,-0.3713,-0.3674,-0.3707,-0.3721,-0.3763,-0.2448,-0.2262,-0.2059,-0.1585,-0.0947,-0.0947,-0.1063,-0.1268,-0.1512,-0.1789,-0.2075,-0.2347,-0.297,-0.3785,-0.4138,-0.4618,-0.5128,-0.5407,-0.5881,-0.6459,-0.682,-0.7187,-0.755,-0.7711,-0.788,-0.8075,-0.8332,-0.8523,-0.8625,-0.8944,-0.9086,-0.9079,-0.8989,-0.8721,-0.8295,-0.8395,-0.8514,-0.8659,-0.8821,-0.8813,-0.8692,-0.867,-0.8555,-0.829,-0.8232,-0.799,-0.7583,-0.7216,-0.6835,-0.6446,-0.6012,-0.5616,-0.5278,-0.5023,0.0,0.0,0.0,0.0,0.0,0.0,0.0,0.0,0.0,-0.3714,-0.4054,0.0,-0.4303,0.0,-0.5055,-0.5432,-0.5648,-0.5941,0.0,0.0,-0.6861,-0.7101,-0.7101,-0.7322,-0.7496,-0.7501,-0.7695,-0.7894,-0.8153,-0.8338,-0.8527,-0.8709,-0.8165,-0.7843,-0.8128,-0.8137,-0.8202,-0.8304,-0.8316,-0.8284,-0.8237,-0.8199,-0.818,-0.8142,-0.8131,-0.8155,-0.8155,-0.8122,-0.7985,-0.7667,-0.7388,-0.7137,-0.6842,-0.655,-0.6322,-0.5906,-0.5512,-0.5177,-0.5199,-0.5171,-0.5175,-0.3329,-0.3169,-0.3034,-0.2842,-0.2559,-0.2172,-0.2185,-0.2471,-0.2598,-0.281,-0.3085,-0.3672,-0.4274,-0.4828,-0.5266,-0.5678,-0.6104,-0.6484,-0.6909,-0.7315,-0.7723,-0.806,-0.8272,-0.8474,-0.8646,-0.88,-0.8944,-0.9041,-0.9149,-0.9323,-0.941,-0.941,-0.941,-0.924,-0.8899,-0.8995,-0.9049,-0.9137,-0.924,-0.9242,-0.9149,-0.912,-0.9062,-0.891,-0.8736,-0.859,-0.8422,-0.8089,-0.7761,-0.7472,-0.7093,-0.6733,-0.646,-0.6201,-0.5958,0.0,0.0,0.0,0.0,0.0,0.0,0.0,0.0,0.0,0.0,0.0,-0.5494,-0.5876,-0.6294,-0.6608,-0.6735,-0.6944,-0.7092,-0.7297,-0.7595,-0.7768,-0.7768,-0.805,-0.8232,-0.8232,-0.8433,-0.8618,-0.8764,-0.8896,-0.9087,-0.9252,-0.8884,-0.8613,-0.8755,-0.88,-0.8797,-0.8897,-0.8881,-0.8916,-0.8881,-0.891,-0.8881,-0.891,-0.891,-0.8881,-0.8887,-0.8765,-0.8638,-0.8518,-0.8272,-0.806,-0.7898,-0.7766,-0.7617,-0.7587,-0.7378,-0.6892,-0.6251,-0.6082,-0.6116,-0.4126,-0.4072,-0.3856,-0.4043,-0.4443,-0.3671,-0.3502,-0.3725,-0.3725,-0.3864,-0.4193,-0.5018,-0.5532,-0.586,-0.6334,-0.6712,-0.6988,-0.7435,-0.7786,-0.8016,-0.8551,-0.8786,-0.8821,-0.9205,-0.9388,-0.9408,-0.9437,-0.9415,-0.9435,-0.9435,-0.9442,-0.9435,-0.9464,-0.9464,-0.9435,-0.9464,-0.9429,-0.9408,-0.9429,-0.9442,-0.9464,-0.9464,-0.9464,-0.9435,-0.9173,-0.8997,-0.8997,-0.8744,-0.8537,-0.8425,-0.808,-0.7798,-0.7637,-0.7318,-0.7092,0.0,-0.6949,0.0,0.0,0.0,0.0,0.0,0.0,0.0,0.0,-0.6331,-0.6636,-0.7224,-0.7555,-0.7753,-0.7779,-0.7837,-0.7861,-0.7941,-0.8128,-0.8282,-0.8268,-0.8674,-0.8967,-0.8967,-0.9225,-0.941,-0.9367,-0.9395,-0.9408,-0.9408,-0.9429,-0.9399,-0.9442,-0.9399,-0.9393,-0.9429,-0.9464,-0.9417,-0.9404,-0.9426,-0.942,-0.942,-0.9426,-0.9435,-0.9456,-0.9222,-0.9049,-0.9116,-0.894,-0.8804,-0.8927,-0.8879,-0.8879,-0.8806,-0.8739,-0.834,-0.7307,-0.6995,-0.6887,-0.5324,-0.5099,-0.5072,-0.521,-0.5518,-0.5324,-0.5134,-0.4869,-0.4869,-0.5042,-0.5399,-0.6052,-0.6535,-0.6891,-0.7227,-0.7535,-0.781,-0.8248,-0.8479,-0.857,-0.9052,-0.9254,-0.9283,-0.9367,-0.9449,-0.9564,-0.9564,-0.9625,-0.9734,-0.9734,-0.9734,-0.9741,-0.971,-0.9741,-0.9741,0.0,0.0,0.0,-0.968,-0.9734,-0.9704,-0.9741,-0.971,-0.9741,-0.968,0.0,-0.9613,-0.9261,-0.9042,-0.9009,-0.8609,0.0,0.0,0.0,0.0,0.0,0.0,0.0,0.0,0.0,0.0,0.0,-0.7633,-0.7499,-0.7403,-0.7403,-0.7479,-0.7588,-0.7861,-0.8112,-0.8325,-0.8536,-0.8784,-0.904,-0.9126,-0.9154,-0.9161,-0.9237,-0.9328,-0.9328,-0.9376,-0.941,-0.943,-0.9483,-0.9564,-0.9571,-0.9636,-0.9704,-0.9727,-0.9632,-0.9612,-0.9713,-0.9713,-0.9734,-0.9734,-0.9727,-0.9707,-0.9741,-0.9741,-0.9727,-0.969,-0.9667,-0.9613,-0.9647,-0.9418,-0.9176,-0.9214,-0.9068,-0.8946,-0.8915,-0.8915,-0.8812,-0.8515,-0.8473,-0.8473,-0.6108,-0.5989,-0.611,-0.6289,0.0,-0.6624,-0.6712,-0.6678,-0.6027,-0.6005,-0.6459,-0.676,-0.7216,-0.7753,-0.8033,-0.8239,-0.8448,-0.886,-0.9036,-0.9072,-0.9334,-0.949,-0.9496,-0.9564,-0.9639,-0.9713,-0.9683,-0.9717,-0.9785,-0.9792,-0.9792,-0.9792,-0.9792,-0.9792,-0.9792,-0.9792,-0.9758,-0.9683,-0.9751,-0.9792,-0.9792,-0.9792,-0.9792,-0.9792,-0.9792,0.0,0.0,0.0,0.0,0.0,0.0,0.0,0.0,-0.8803,0.0,-0.8754,-0.8624,-0.8546,-0.8546,-0.8546,-0.8572,-0.8644,-0.8687,-0.8611,-0.8303,-0.8436,-0.854,-0.8546,-0.8676,-0.8811,-0.8931,-0.9063,-0.9207,-0.9381,-0.941,-0.941,-0.9417,-0.9449,-0.9496,-0.9503,-0.9557,-0.9598,-0.9598,-0.9659,-0.9683,-0.9683,-0.9774,-0.9792,-0.9785,-0.9761,-0.9717,-0.9808,-0.9792,-0.9792,-0.9792,-0.9792,-0.9792,-0.9792,-0.9792,-0.9792,-0.9792,-0.9792,-0.9792,-0.9792,-0.964,-0.9548,-0.9548,-0.9427,-0.9335,-0.9335,-0.9335,-0.9366,-0.9342,-0.9098,-0.8915,-0.693,-0.6954,-0.7122,-0.7315,-0.7532,-0.7686,-0.7957,-0.8251,0.0,0.0,0.0,-0.7472,-0.7838,-0.8429,-0.8685,-0.8893,-0.9004,-0.9292,-0.9422,-0.9458,-0.9578,-0.9616,-0.9652,-0.9768,-0.9792,-0.9792,-0.9792,-0.9792,-0.9792,-0.9792,-0.9792,-0.9792,-0.9792,-0.9792,-0.9792,-0.9792,-0.9792,-0.9792,-0.9792,-0.9792,-0.9792,-0.9792,-0.9792,-0.9792,-0.9792,-0.9792,-0.9792,-0.9792,-0.9737,-0.9652,-0.9646,-0.9591,-0.9469,-0.9435,-0.9451,-0.9451,-0.9395,-0.941,-0.941,-0.941,-0.9424,-0.9444,-0.9442,-0.9348,-0.901,-0.9236,-0.941,-0.941,-0.9401,-0.9422,-0.9451,-0.9449,-0.9485,-0.9456,-0.9456,-0.9492,-0.9469,-0.9564,-0.9646,-0.9659,-0.971,-0.9785,-0.9778,-0.9778,-0.9792,-0.9785,-0.9785,-0.9792,-0.9792,-0.9785,-0.9778,-0.9785,-0.9792,-0.9792,-0.9792,-0.9792,-0.9792,-0.9792,-0.9792,-0.9792,-0.9792,-0.9792,-0.9792,-0.9792,-0.9792,-0.9792,-0.9792,-0.9761,-0.9792,-0.9792,-0.9792,-0.9792,-0.9761,-0.9396,-0.9098,-0.8241,-0.8235,-0.8282,-0.8299,-0.8328,-0.8367,-0.8402,-0.8472,-0.8252,-0.8246,-0.8332,-0.857,-0.8727,-0.8833,-0.9151,-0.9303,-0.933,-0.9487,-0.9578,-0.9585,-0.9697,-0.9788,-0.9758,-0.9808,-0.9792,-0.9792,-0.9792,-0.9792,-0.9792,-0.9792,-0.9792,-0.9792,-0.9792,-0.9792,-0.9792,-0.9792,-0.9792,-0.9792,-0.9792,-0.9792,-0.9792,-0.9792,-0.9792,-0.9792,-0.9792,-0.9792,-0.9792,-0.9792,-0.9808,-0.9765,-0.9758,-0.9751,-0.9754,-0.9639,-0.9578,-0.9571,-0.9485,-0.941,-0.941,-0.941,-0.9435,-0.9541,-0.9693,-0.9623,-0.935,-0.9381,-0.941,-0.9417,-0.9503,-0.9578,-0.9585,-0.968,-0.971,-0.9717,-0.9754,-0.9761,-0.971,-0.9731,-0.9751,-0.9751,-0.9771,-0.9792,-0.9792,-0.9792,-0.9792,-0.9792,-0.9792,-0.9792,-0.9792,-0.9792,-0.9792,-0.9792,-0.9792,-0.9792,-0.9792,-0.9792,-0.9792,-0.9792,-0.9792,-0.9792,-0.9792,-0.9792,-0.9792,-0.9792,-0.9792,-0.9792,-0.9792,-0.9792,-0.9792,-0.9792,-0.9792,-0.9792,-0.9792,-0.97,-0.964,-0.8725,-0.8719,-0.8792,-0.882,-0.8849,-0.9026,-0.9121,-0.9098,-0.9169,-0.9022,-0.8742,-0.8858,-0.9049,-0.9268,-0.9444,-0.9551,-0.9625,-0.9693,-0.9697,-0.9704,-0.9758,-0.9792,-0.9792,-0.9792,-0.9792,-0.9792,-0.9792,-0.9792,-0.9792,-0.9792,-0.9792,-0.9792,-0.9792,-0.9792,-0.9792,-0.9792,-0.9792,-0.9792,-0.9792,-0.9792,-0.9792,-0.9792,-0.9792,-0.9792,-0.9792,-0.9792,-0.9792,-0.9792,-0.9792,-0.9792,-0.9792,-0.9792,-0.9785,-0.9761,-0.969,-0.972,-0.9659,-0.9618,-0.9618,-0.9618,-0.9616,-0.969,-0.9781,-0.9768,-0.9632,-0.9618,-0.9618,-0.9625,-0.9656,-0.9697,-0.9727,-0.9781,-0.9792,-0.9792,-0.9792,-0.9792,-0.9792,-0.9792,-0.9792,-0.9792,-0.9792,-0.9792,-0.9792,-0.9792,-0.9792,-0.9792,-0.9792,-0.9792,-0.9792,-0.9792,-0.9792,-0.9792,-0.9792,-0.9792,-0.9792,-0.9792,-0.9792,-0.9792,-0.9792,-0.9792,-0.9792,-0.9792,-0.9792,-0.9792,-0.9792,-0.9792,-0.9792,-0.9792,-0.9792,-0.9792,-0.9792,-0.9792,-0.9792,-0.9792,-0.9792,-0.9092,-0.9116,-0.9219,-0.9257,-0.9287,-0.954,-0.9659,-0.9673,-0.9744,-0.9543,-0.915,-0.9101,-0.9314,-0.9623,-0.9659,-0.969,-0.9778,-0.9792,-0.9792,-0.9792,-0.9792,-0.9792,-0.9792,-0.9792,-0.9792,-0.9792,-0.9792,-0.9792,-0.9792,-0.9825,-0.9866,-0.9924,-0.9924,-0.9893,-0.9924,-0.9924,-0.9924,-0.9924,-0.9893,-0.989,-0.9792,-0.9792,-0.9792,-0.9792,-0.9792,-0.9792,-0.9792,-0.9792,-0.9792,-0.9792,-0.9792,-0.9792,-0.9792,-0.9792,-0.9792,-0.9792,-0.9792,-0.9792,-0.9792,-0.9792,-0.9792,-0.9792,-0.9792,-0.9792,-0.9792,-0.9792,-0.9792,-0.9792,-0.9778,-0.9785,-0.9785,-0.9785,-0.9792,-0.9792,-0.9792,-0.9792,-0.9792,-0.9792,-0.9792,-0.9792,-0.9792,-0.9792,-0.9792,-0.9792,-0.9792,-0.9792,-0.9792,-0.9792,-0.9792,-0.9812,-0.9839,-0.9832,-0.9819,-0.9792,-0.9792,-0.9792,-0.9792,-0.9792,-0.9792,-0.9792,-0.9798,-0.9812,-0.9839,-0.9859,-0.9886,-0.9944,-0.9937,-0.9937,-0.9944,-0.9958,-0.9964,-0.9944,-0.9951,-0.9951,-0.9859,-0.97,-0.9731,-0.9711,-0.9741,-0.9734,-0.9765,-0.9765,-0.9771,-0.9785,-0.9785,-0.9707,-0.9721,-0.9714,-0.9802,-0.9765,-0.9771,-0.9792,-0.9792,-0.9792,-0.9792,-0.9792,-0.9792,-0.9792,-0.9792,-0.9792,-0.9792,-0.9805,-0.9849,-0.9825,-0.9934,-1.0069,-1.0222,-1.0236,-1.0261,-1.0261,-1.0261,-1.0229,-1.0267,-1.0236,-1.01,-0.9805,-0.9792,-0.9792,-0.9792,-0.9792,-0.9792,-0.9805,-0.9792,-0.9792,-0.9792,-0.9798,-0.9792,-0.9798,-0.9792,-0.9792,-0.9792,-0.9792,-0.9792,-0.9792,-0.9792,-0.9792,-0.9792,-0.9792,-0.9792,-0.9792,-0.9792,-0.9792,-0.9792,-0.9792,-0.9792,-0.9792,-0.9792,-0.9792,-0.9792,-0.9792,-0.9792,-0.9792,-0.9792,-0.9792,-0.9792,-0.9792,-0.9792,-0.9792,-0.9798,-0.9805,-0.9839,-0.9846,-0.9846,-0.9852,-0.9927,-0.9994,-0.9974,-0.9893,-0.9819,-0.9819,-0.9792,-0.9832,-0.9819,-0.9805,-0.9825,-0.9859,-0.9927,-0.9994,-1.0008,-1.012,-1.0188,-1.0202,-1.0236,-1.0247,-1.0199,-1.0213,-1.0247,-1.0267,-1.024,-1.012,-0.9792,-0.9792,-0.9792,-0.9792,-0.9792,-0.9792,-0.9792,-0.9792,-0.9792,-0.9792,-0.9792,-0.9792,-0.9792,-0.9792,-0.9792,-0.9792,-0.9792,-0.9792,-0.9792,-0.9792,-0.9792,-0.9792,-0.9798,-0.9886,-0.992,-0.9934,-1.0046,-1.0124,-1.0107,-1.0123,-1.0215,-1.0301,-1.0308,-1.0308,-1.0308,-1.0308,-1.0308,-1.0308,-1.0308,-1.0215,-1.0114,-1.0093,-1.0093,-1.0093,-1.0093,-1.0093,-1.0093,-1.0093,-1.0093,-1.0093,-1.0093,-1.0093,-1.0093,-0.9974,-0.9927,-0.992,-0.9839,-0.9792,-0.9792,-0.9792,-0.9792,-0.9792,-0.9792,-0.9792,-0.9792,-0.9792,-0.9792,-0.9792,-0.9792,-0.9792,-0.9792,-0.9792,-0.9792,-0.9792,-0.9792,-0.9792,-0.9792,-0.9792,-0.9792,-0.9792,-0.9792,-0.9792,-0.9805,-0.9873,-0.9961,-1.0066,-1.0086,-1.0073,-1.0093,-1.0148,-1.0181,-1.0181,-1.0127,-1.01,-1.0086,-1.0093,-1.0086,-1.0086,-1.0093,-1.0093,-1.0093,-1.0127,-1.0188,-1.0188,-1.0256,-1.0329,-1.0295,-1.0308,-1.0308,-1.0322,-1.0315,-1.0308,-1.0308,-1.0308,-1.024,-0.9792,-0.9792,-0.9792,-0.9792,-0.9792,-0.9792,-0.9792,-0.9792,-0.9792,-0.9792,-0.9792,-0.9832,-0.9852,-0.9846,-0.9812,-0.9792,-0.9792,-0.9792,-0.9812,-0.9846,-0.9852,-0.9879,-0.9927,-1.0021,-1.0082,-1.0103,-1.0222,-1.0297,-1.0363,-1.0369,-1.039,-1.0392,-1.0399,-1.0399,-1.0405,-1.0431,-1.0399,-1.0405,-1.0399,-1.0431,-1.0399,-1.0399,-1.0365,-1.0322,-1.0308,-1.0308,-1.0308,-1.0308,-1.0308,-1.0308,-1.0308,-1.0308,-1.0308,-1.0175,-1.0082,-1.0076,-0.9981,-0.9944,-0.9951,-0.9951,-0.9913,-0.9913,-0.9951,-0.9944,-0.9944,-0.9944,-0.9944,-0.9958,-0.992,-0.9937,-0.9798,-0.9792,-0.9805,-0.9846,-0.9852,-0.9866,-0.9913,-0.992,-0.9958,-0.9951,-0.9978,-0.9944,-0.9964,-1.0015,-1.0148,-1.0243,-1.0301,-1.0308,-1.0322,-1.0335,-1.0369,-1.0376,-1.0371,-1.0365,-1.0335,-1.0288,-1.0308,-1.0308,-1.0288,-1.0281,-1.0322,-1.0304,-1.0337,-1.0337,-1.0365,-1.0405,-1.0453,-1.0465,-1.0431,-1.0399,-1.0399,-1.0431,-1.0439,-1.0437,-1.0405,-0.9792,-0.9792,-0.9792,-0.9792,-0.9792,-0.9798,-0.9798,-0.9825,-0.9805,-0.9798,-0.9832,-0.9947,-1.0008,-1.0001,-0.9879,-0.9798,-0.9798,-0.9812,-0.9917,-1.0001,-0.9977,-1.0089,-1.0256,-1.027,-1.027,-1.0301,-1.0304,-1.0403,-1.048,-1.048,-1.0555,-1.065,-1.0677,-1.0657,-1.0677,-1.067,-1.069,-1.067,-1.067,-1.0683,-1.069,-1.0657,-1.0555,-1.0363,-1.0322,-1.0335,-1.0329,-1.0315,-1.0322,-1.0315,-1.0329,-1.0329,-1.0322,-1.0308,-1.027,-1.0295,-1.0288,-1.0281,-1.0274,-1.0267,-1.0267,-1.0243,-1.0222,-1.0281,-1.0247,-1.0247,-1.0247,-1.0281,-1.0215,-1.0152,-0.9903,-0.9846,-0.9879,-0.9994,-0.9977,-1.0069,-1.0261,-1.024,-1.0288,-1.0267,-1.0247,-1.0247,-1.0274,-1.0263,-1.0283,-1.0335,-1.0329,-1.0335,-1.0369,-1.0412,-1.0473,-1.0514,-1.0568,-1.0602,-1.039,-1.0383,-1.0363,-1.0369,-1.041,-1.0349,-1.0369,-1.0371,-1.0439,-1.0507,-1.0575,-1.0629,-1.0677,-1.0683,-1.0656,-1.0643,-1.0629,-1.0636,-1.0588,-1.0663,-1.0649,-0.9792,-0.9792,-0.9792,-0.9846,-0.9934,-0.994,-0.9994,-1.0114,-1.0114,-1.0114,-1.0127,-1.0175,-1.0195,-1.0195,-1.0141,-1.0114,-1.0114,-1.0114,-1.0148,-1.0195,-1.0195,-1.0229,-1.0283,-1.0371,-1.0419,-1.0432,-1.0514,-1.0588,-1.0596,-1.0603,-1.0663,-1.0711,-1.0717,-1.0717,-1.0717,-1.0717,-1.0717,-1.0717,-1.0717,-1.0717,-1.0717,-1.0717,-1.0663,-1.0575,-1.0561,-1.0561,-1.0561,-1.0561,-1.0561,-1.0561,-1.0561,-1.0561,-1.0555,-1.0466,-1.0403,-1.0322,-1.0308,-1.0308,-1.0308,-1.0308,-1.0308,-1.0308,-1.0308,-1.0322,-1.0308,-1.0308,-1.0308,-1.0315,-1.0315,-1.024,-1.0161,-1.0114,-1.0134,-1.0181,-1.0202,-1.0222,-1.0295,-1.0308,-1.0308,-1.0308,-1.0315,-1.031,-1.0399,-1.0419,-1.0453,-1.0541,-1.0561,-1.0555,-1.0561,-1.0609,-1.0629,-1.0643,-1.0677,-1.0657,-1.0602,-1.0568,-1.0561,-1.0568,-1.0568,-1.0568,-1.0582,-1.0561,-1.0616,-1.0609,-1.0697,-1.0711,-1.0711,-1.0711,-1.0717,-1.0717,-1.0717,-1.0717,-1.0717,-1.0717,-1.0717,-0.9819,-0.9859,-0.9866,-0.9954,-1.0089,-1.0089,-1.0181,-1.0308,-1.0308,-1.0308,-1.0322,-1.0363,-1.0383,-1.0358,-1.0399,-1.0419,-1.0405,-1.0363,-1.0335,-1.0344,-1.0351,-1.0403,-1.0432,-1.0521,-1.0561,-1.0582,-1.067,-1.0717,-1.0717,-1.0717,-1.0717,-1.0717,-1.0717,-1.0717,-1.0717,-1.0717,-1.0717,-1.0717,-1.0717,-1.0717,-1.0717,-1.0717,-1.0717,-1.0717,-1.0717,-1.0717,-1.0717,-1.0717,-1.0717,-1.0717,-1.0717,-1.0717,-1.0711,-1.0622,-1.0521,-1.0432,-1.0426,-1.0419,-1.0426,-1.0419,-1.0458,-1.0419,-1.0426,-1.0426,-1.0419,-1.0426,-1.0426,-1.0426,-1.0419,-1.0419,-1.0426,-1.0426,-1.0405,-1.0365,-1.0376,-1.0403,-1.0419,-1.0426,-1.0426,-1.0439,-1.0446,-1.048,-1.0541,-1.0561,-1.0576,-1.0677,-1.0717,-1.0717,-1.0717,-1.0717,-1.0717,-1.0717,-1.0711,-1.0717,-1.0677,-1.0656,-1.0656,-1.0663,-1.0663,-1.0704,-1.0717,-1.0717,-1.0717,-1.0717,-1.0717,-1.0717,-1.0717,-1.0717,-1.0717,-1.0717,-1.0717,-1.0717,-1.0717,-1.0717,-1.0717,-0.9886,-1.0008,-1.0015,-1.0109,-1.027,-1.0276,-1.0283,-1.0349,-1.0342,-1.0363,-1.0358,-1.0439,-1.0493,-1.0521,-1.0616,-1.0697,-1.0636,-1.0439,-1.0385,-1.0487,-1.0493,-1.0568,-1.0644,-1.0683,-1.0697,-1.0697,-1.0677,-1.0717,-1.0717,-1.0717,-1.0717,-1.0717,-1.0717,-1.0717,-1.0717,-1.0717,-1.0717,-1.0717,-1.0717,-1.0717,-1.0717,-1.0717,-1.0717,-1.0717,-1.0717,-1.0717,-1.0717,-1.0717,-1.0717,-1.0717,-1.0717,-1.0717,-1.0717,-1.0704,-1.0704,-1.0683,-1.0697,-1.0671,-1.0697,-1.065,-1.067,-1.067,-1.0697,-1.067,-1.0663,-1.0644,-1.0644,-1.0637,-1.0677,-1.069,-1.0683,-1.0677,-1.0596,-1.0521,-1.0493,-1.0548,-1.0649,-1.0704,-1.0711,-1.069,-1.067,-1.0711,-1.0711,-1.0697,-1.0671,-1.0711,-1.0717,-1.0717,-1.0717,-1.0717,-1.0717,-1.0717,-1.0717,-1.0717,-1.0717,-1.0717,-1.0717,-1.0717,-1.0711,-1.0717,-1.0717,-1.0717,-1.0717,-1.0717,-1.0717,-1.0717,-1.0717,-1.0717,-1.0717,-1.0717,-1.0717,-1.0724,-1.0717,-1.0717,-1.0717,-1.0035,-1.0202,-1.0209,-1.029,-1.0419,-1.0426,-1.048,-1.0575,-1.0582,-1.0549,-1.0588,-1.0629,-1.0649,-1.0656,-1.0704,-1.0717,-1.0711,-1.0622,-1.0609,-1.0643,-1.0649,-1.0637,-1.0711,-1.0717,-1.0717,-1.0717,-1.0717,-1.0717,-1.0717,-1.0717,-1.0717,-1.0717,-1.0717,-1.0717,-1.0717,-1.0717,-1.0717,-1.0717,-1.0717,-1.0717,-1.0717,-1.0717,-1.0717,-1.0717,-1.0717,-1.0717,-1.0717,-1.0717,-1.0717,-1.0717,-1.0717,-1.0717,-1.0717,-1.0717,-1.0717,-1.0717,-1.0717,-1.0717,-1.0717,-1.0717,-1.0717,-1.0717,-1.0717,-1.0717,-1.0717,-1.0717,-1.0717,-1.0717,-1.0717,-1.0717,-1.0717,-1.0717,-1.069,-1.0656,-1.0649,-1.0656,-1.0704,-1.0717,-1.0717,-1.0717,-1.0717,-1.0717,-1.0717,-1.0717,-1.0717,-1.0717,-1.0717,-1.0717,-1.0717,-1.0717,-1.0717,-1.0717,-1.0717,-1.0717,-1.0717,-1.0724,-1.0738,-1.0738,-1.0738,-1.0724,-1.0717,-1.0717,-1.0717,-1.0717,-1.0717,-1.0731,-1.0731,-1.0738,-1.0751,-1.0751,-1.0765,-1.0751,-1.0724,-1.0744,-1.0792,-1.0222,-1.0383,-1.0358,-1.0446,-1.0575,-1.0575,-1.0596,-1.0711,-1.0717,-1.0717,-1.0717,-1.0717,-1.0717,-1.0717,-1.0717,-1.0717,-1.0717,-1.0717,-1.0717,-1.0717,-1.0717,-1.0717,-1.0717,-1.0717,-1.0717,-1.0717,-1.0717,-1.0717,-1.0717,-1.0717,-1.0717,-1.0717,-1.0717,-1.0717,-1.0717,-1.0717,-1.0717,-1.0717,-1.0717,-1.0717,-1.0717,-1.0717,-1.0717,-1.0717,-1.0717,-1.0717,-1.0717,-1.0717,-1.0717,-1.0717,-1.0717,-1.0717,-1.0717,-1.0717,-1.0717,-1.0717,-1.0717,-1.0717,-1.0717,-1.0717,-1.0717,-1.0717,-1.0717,-1.0717,-1.0717,-1.0717,-1.0717,-1.0717,-1.0717,-1.0717,-1.0717,-1.0717,-1.0717,-1.0717,-1.0717,-1.0717,-1.0717,-1.0717,-1.0717,-1.0717,-1.0717,-1.0717,-1.0717,-1.0717,-1.0717,-1.0717,-1.0717,-1.0717,-1.0717,-1.0717,-1.0724,-1.0724,-1.0717,-1.0717,-1.0717,-1.0731,-1.0751,-1.0725,-1.0732,-1.0738,-1.0717,-1.0717,-1.0717,-1.0717,-1.0717,-1.0752,-1.0765,-1.0792,-1.0806,-1.0799,-1.086,-1.0914,-1.0948,-1.0934,-1.0962,-1.041,-1.05,-1.0507,-1.0582,-1.0704,-1.0704,-1.0711,-1.0717,-1.0717,-1.0717,-1.0717,-1.0717,-1.0717,-1.0717,-1.0717,-1.0717,-1.0717,-1.0717,-1.0717,-1.0717,-1.0717,-1.0717,-1.0717,-1.0717,-1.0717,-1.0717,-1.0717,-1.0717,-1.0717,-1.0717,-1.0717,-1.0717,-1.0717,-1.0717,-1.0717,-1.0717,-1.0698,-1.0751,-1.0711,-1.0751,-1.0772,-1.0765,-1.0765,-1.0772,-1.0778,-1.0778,-1.0792,-1.0792,-1.0758,-1.0724,-1.0717,-1.0717,-1.0717,-1.0717,-1.0717,-1.0717,-1.0717,-1.0717,-1.0717,-1.0717,-1.0717,-1.0717,-1.0717,-1.0717,-1.0717,-1.0717,-1.0717,-1.0717,-1.0717,-1.0717,-1.0717,-1.0717,-1.0717,-1.0717,-1.0717,-1.0717,-1.0717,-1.0717,-1.0717,-1.0717,-1.0717,-1.0717,-1.0717,-1.0717,-1.0717,-1.0717,-1.0717,-1.0717,-1.0698,-1.0698,-1.0704,-1.0725,-1.0799,-1.0839,-1.088,-1.0887,-1.09,-1.0914,-1.0907,-1.0873,-1.0826,-1.0819,-1.0826,-1.0812,-1.0792,-1.0813,-1.086,-1.0907,-1.0989,-1.1023,-1.1111,-1.1179,-1.1172,-1.1125,-1.1118,-1.0527,-1.0656,-1.063,-1.065,-1.0717,-1.0717,-1.0717,-1.0717,-1.0717,-1.0717,-1.0717,-1.0717,-1.0717,-1.0717,-1.0717,-1.0717,-1.0717,-1.0717,-1.0717,-1.0717,-1.0717,-1.0717,-1.0717,-1.0717,-1.0717,-1.0717,-1.0717,-1.0717,-1.0717,-1.0731,-1.0724,-1.0717,-1.0738,-1.0731,-1.0717,-1.0738,-1.0752,-1.084,-1.082,-1.0941,-1.1023,-1.1063,-1.1084,-1.1084,-1.1036,-1.107,-1.1077,-1.1084,-1.0928,-1.0738,-1.0717,-1.0717,-1.0738,-1.0731,-1.0731,-1.0731,-1.0724,-1.0717,-1.0717,-1.0717,-1.0717,-1.0717,-1.0717,-1.0717,-1.0717,-1.0717,-1.0717,-1.0717,-1.0717,-1.0717,-1.0717,-1.0724,-1.0724,-1.0717,-1.0711,-1.0738,-1.0717,-1.0717,-1.0717,-1.0717,-1.0717,-1.0724,-1.0731,-1.0731,-1.0738,-1.0744,-1.0751,-1.0751,-1.0759,-1.0806,-1.0853,-1.0894,-1.0975,-1.1023,-1.1097,-1.1097,-1.1104,-1.1125,-1.1125,-1.1125,-1.1091,-1.1077,-1.1084,-1.1091,-1.1029,-1.1016,-1.1063,-1.1104,-1.1186,-1.124,-1.1247,-1.1274,-1.1227,-1.1179,-1.12,-1.0636,-1.0717,-1.0717,-1.0717,-1.0717,-1.0717,-1.0717,-1.0717,-1.0717,-1.0717,-1.0717,-1.0717,-1.0717,-1.0717,-1.0717,-1.0717,-1.0717,-1.0717,-1.0717,-1.0717,-1.0717,-1.0717,-1.0717,-1.0717,-1.0717,-1.0717,-1.0724,-1.0717,-1.0704,-1.0745,-1.0779,-1.0806,-1.088,-1.0907,-1.0921,-1.0914,-1.0941,-1.1023,-1.1009,-1.1084,-1.1186,-1.12,-1.1193,-1.12,-1.12,-1.12,-1.1193,-1.1193,-1.1104,-1.0941,-1.0907,-1.0907,-1.09,-1.0846,-1.0786,-1.0779,-1.0732,-1.0717,-1.0717,-1.0717,-1.0717,-1.0717,-1.0717,-1.0717,-1.0717,-1.0717,-1.0717,-1.0717,-1.0717,-1.0717,-1.0698,-1.0738,-1.0779,-1.0799,-1.0833,-1.0853,-1.0744,-1.0717,-1.0717,-1.0717,-1.0724,-1.0725,-1.0765,-1.0786,-1.0853,-1.0894,-1.0934,-1.0934,-1.0941,-1.0961,-1.1009,-1.1077,-1.1104,-1.1172,-1.1193,-1.1193,-1.1247,-1.1274,-1.1294,-1.1329,-1.1261,-1.124,-1.122,-1.1213,-1.1206,-1.122,-1.1261,-1.1308,-1.1321,-1.1348,-1.1335,-1.1341,-1.1328,-1.1287,-1.1336,-1.0717,-1.0717,-1.0717,-1.0717,-1.0717,-1.0717,-1.0717,-1.0717,-1.0717,-1.0717,-1.0717,-1.0717,-1.0717,-1.0717,-1.0717,-1.0717,-1.0717,-1.0717,-1.0711,-1.0732,-1.0785,-1.0806,-1.0812,-1.0785,-1.0738,-1.0772,-1.0725,-1.0785,-1.0839,-1.0894,-1.0928,-1.0955,-1.109,-1.1179,-1.1145,-1.1166,-1.12,-1.122,-1.1192,-1.1219,-1.1288,-1.1302,-1.1302,-1.1302,-1.1302,-1.1295,-1.1288,-1.1274,-1.1219,-1.1247,-1.122,-1.1172,-1.1166,-1.1023,-1.0941,-1.0921,-1.0873,-1.0806,-1.0778,-1.0812,-1.0785,-1.0806,-1.0799,-1.0765,-1.0799,-1.0812,-1.0819,-1.0826,-1.0738,-1.0806,-1.0819,-1.0867,-1.0921,-1.0948,-1.1084,-1.105,-1.0846,-1.0732,-1.0732,-1.0765,-1.0772,-1.0806,-1.088,-1.0948,-1.0975,-1.1063,-1.1097,-1.1091,-1.1077,-1.1138,-1.1172,-1.1234,-1.1254,-1.1268,-1.1281,-1.1281,-1.1363,-1.1389,-1.1477,-1.1477,-1.1355,-1.1307,-1.1302,-1.1288,-1.1328,-1.1369,-1.1396,-1.1443,-1.1477,-1.1497,-1.1484,-1.1538,-1.1586,-1.1511,-1.1484,-1.0717,-1.0717,-1.0717,-1.0717,-1.0717,-1.0717,-1.0717,-1.0717,-1.0717,-1.0717,-1.0717,-1.0717,-1.0717,-1.0717,-1.0731,-1.0717,-1.0738,-1.0744,-1.0745,-1.0874,-1.1023,-1.1091,-1.107,-1.0962,-1.0874,-1.0887,-1.1016,-1.1091,-1.1111,-1.1084,-1.1152,-1.1131,-1.1172,-1.12,-1.1213,-1.124,-1.1268,-1.1356,-1.1376,-1.1396,-1.1477,-1.1491,-1.1491,-1.1491,-1.1497,-1.1511,-1.1518,-1.1525,-1.1525,-1.1463,-1.1349,-1.1234,-1.122,-1.1145,-1.1118,-1.1138,-1.1118,-1.1091,-1.1097,-1.1077,-1.1097,-1.107,-1.1029,-1.1063,-1.1104,-1.1084,-1.1091,-1.1097,-1.1104,-1.1036,-1.1036,-1.1118,-1.1152,-1.1166,-1.1193,-1.12,-1.1118,-1.1097,-1.1077,-1.1043,-1.1043,-1.1077,-1.1111,-1.1118,-1.1179,-1.12,-1.1213,-1.1206,-1.1254,-1.1329,-1.1356,-1.1376,-1.1417,-1.1402,-1.1409,-1.1402,-1.1436,-1.1491,-1.1565,-1.1577,-1.1484,-1.145,-1.1423,-1.1457,-1.1531,-1.1516,-1.1525,-1.1545,-1.1565,-1.1563,-1.1584,-1.1584,-1.1584,-1.1584,-1.1584,-1.0717,-1.0717,-1.0717,-1.0717,-1.0717,-1.0717,-1.0717,-1.0717,-1.0717,-1.0717,-1.0717,-1.0717,-1.0717,-1.0731,-1.0759,-1.0799,-1.0813,-1.09,-1.0968,-1.1056,-1.1131,-1.1193,-1.1213,-1.1158,-1.1131,-1.1077,-1.1152,-1.1193,-1.1213,-1.1274,-1.1302,-1.1315,-1.1335,-1.1396,-1.1375,-1.1369,-1.1423,-1.1477,-1.1497,-1.1545,-1.1606,-1.1584,-1.1584,-1.1584,-1.1584,-1.1584,-1.157,-1.1577,-1.1577,-1.1543,-1.1463,-1.1375,-1.1355,-1.1307,-1.1308,-1.1295,-1.1227,-1.12,-1.1193,-1.12,-1.1186,-1.1206,-1.12,-1.12,-1.12,-1.12,-1.12,-1.12,-1.1193,-1.1193,-1.12,-1.1281,-1.1295,-1.1322,-1.1335,-1.1369,-1.139,-1.1295,-1.12,-1.12,-1.1179,-1.1234,-1.1268,-1.1302,-1.1363,-1.1375,-1.1409,-1.1402,-1.1423,-1.1477,-1.1484,-1.1511,-1.1558,-1.1586,-1.1586,-1.1579,-1.1558,-1.1579,-1.1592,-1.1584,-1.1565,-1.1572,-1.1592,-1.157,-1.1563,-1.157,-1.155,-1.1584,-1.1584,-1.1584,-1.1584,-1.1584,-1.1584,-1.1584,-1.1584,-1.0717,-1.0717,-1.0717,-1.0717,-1.0717,-1.0717,-1.0717,-1.0717,-1.0717,-1.0717,-1.0698,-1.0704,-1.0745,-1.0759,-1.0887,-1.0941,-1.0982,-1.1124,-1.1192,-1.124,-1.126,-1.1315,-1.1336,-1.1348,-1.1355,-1.1274,-1.1295,-1.1295,-1.1329,-1.1348,-1.1423,-1.1443,-1.1538,-1.1565,-1.1599,-1.1613,-1.1586,-1.1556,-1.1556,-1.1599,-1.1584,-1.1584,-1.1584,-1.1584,-1.1584,-1.1584,-1.1584,-1.1584,-1.1584,-1.1584,-1.1584,-1.1584,-1.1586,-1.1511,-1.1423,-1.1423,-1.1328,-1.1329,-1.1322,-1.1302,-1.1295,-1.1268,-1.1274,-1.1281,-1.1288,-1.1308,-1.1315,-1.1302,-1.1308,-1.1308,-1.1246,-1.1383,-1.1416,-1.1443,-1.1545,-1.157,-1.1572,-1.1382,-1.1322,-1.1302,-1.1349,-1.1362,-1.1396,-1.143,-1.1511,-1.1579,-1.1599,-1.1584,-1.1584,-1.1577,-1.1592,-1.1586,-1.1606,-1.1613,-1.1584,-1.1584,-1.1584,-1.1584,-1.1584,-1.1584,-1.1584,-1.1584,-1.1584,-1.1584,-1.1577,-1.1584,-1.1584,-1.1584,-1.1584,-1.1584,-1.1584,-1.1584,-1.1584,-1.1584,-1.1584,-1.0717,-1.0717,-1.0717,-1.0717,-1.0717,-1.0717,-1.0717,-1.0717,-1.0724,-1.0724,-1.0744,-1.0819,-1.0874,-1.0914,-1.1063,-1.1124,-1.1179,-1.1287,-1.139,-1.1375,-1.1443,-1.1504,-1.1504,-1.1518,-1.1509,-1.1558,-1.1518,-1.1504,-1.1518,-1.1572,-1.1516,-1.1579,-1.1599,-1.1584,-1.1584,-1.1584,-1.1584,-1.1584,-1.1584,-1.1584,-1.1584,-1.1584,-1.1584,-1.1584,-1.1584,-1.1584,-1.1584,-1.1584,-1.1584,-1.1584,-1.1584,-1.1584,-1.1613,-1.1586,-1.1565,-1.1552,-1.1525,-1.1484,-1.1491,-1.1518,-1.1538,-1.1545,-1.1511,-1.1518,-1.1525,-1.1525,-1.1484,-1.1504,-1.1504,-1.1525,-1.1538,-1.1538,-1.1565,-1.1586,-1.1592,-1.1584,-1.157,-1.1516,-1.1491,-1.1477,-1.1504,-1.1518,-1.1525,-1.1531,-1.1565,-1.1599,-1.1606,-1.1584,-1.1584,-1.1584,-1.1613,-1.1606,-1.1577,-1.1584,-1.1584,-1.1584,-1.1584,-1.1584,-1.1584,-1.1584,-1.1584,-1.1584,-1.1584,-1.1584,-1.1584,-1.1584,-1.1584,-1.1584,-1.1584,-1.1584,-1.1584,-1.1584,-1.1584,-1.1584,-1.1584,-1.0717,-1.0717,-1.0717,-1.0717,-1.0717,-1.0717,-1.0717,-1.0698,-1.0772,-1.0806,-1.0846,-1.0989,-1.1056,-1.1097,-1.1212,-1.1349,-1.1402,-1.1463,-1.1511,-1.1531,-1.1586,-1.1584,-1.1584,-1.1584,-1.1584,-1.1613,-1.1577,-1.1584,-1.1584,-1.1613,-1.1584,-1.1577,-1.1584,-1.1584,-1.1584,-1.1584,-1.1584,-1.1584,-1.1584,-1.1584,-1.1584,-1.1584,-1.1584,-1.1584,-1.1584,-1.1584,-1.1584,-1.1584,-1.1584,-1.1584,-1.1584,-1.1584,-1.1584,-1.1584,-1.1584,-1.1584,-1.1584,-1.1584,-1.1584,-1.1584,-1.157,-1.1577,-1.1584,-1.1584,-1.1584,-1.157,-1.1584,-1.1584,-1.1584,-1.1584,-1.157,-1.1584,-1.1584,-1.1584,-1.1584,-1.1584,-1.1584,-1.1584,-1.1584,-1.1584,-1.1592,-1.1579,-1.1592,-1.1563,-1.1577,-1.1584,-1.1584,-1.1584,-1.1584,-1.1584,-1.1584,-1.1584,-1.1584,-1.1584,-1.1584,-1.1584,-1.1584,-1.1584,-1.1584,-1.1584,-1.1584,-1.1584,-1.1584,-1.1584,-1.1584,-1.1584,-1.1584,-1.1584,-1.1584,-1.1584,-1.1584,-1.1584,-1.1584,-1.1584,-1.1584,-1.0717,-1.0717,-1.0717,-1.0717,-1.0724,-1.0725,-1.0738,-1.0759,-1.0894,-1.0955,-1.0982,-1.1138,-1.124,-1.1281,-1.1362,-1.1504,-1.1584,-1.1613,-1.157,-1.157,-1.1613,-1.1584,-1.1584,-1.1584,-1.1584,-1.1584,-1.1584,-1.1584,-1.1584,-1.1584,-1.1584,-1.1584,-1.1584,-1.1584,-1.1584,-1.1584,-1.1584,-1.1584,-1.1584,-1.1584,-1.1584,-1.1584,-1.1584,-1.1584,-1.1584,-1.1584,-1.1584,-1.1584,-1.1584,-1.1584,-1.1584,-1.1584,-1.1584,-1.1584,-1.1584,-1.1584,-1.1584,-1.1584,-1.1584,-1.1584,-1.1584,-1.1584,-1.1584,-1.1584,-1.1584,-1.1584,-1.1584,-1.1584,-1.1584,-1.1584,-1.1584,-1.1584,-1.1584,-1.1584,-1.1584,-1.1584,-1.1584,-1.1584,-1.1584,-1.1584,-1.1584,-1.1584,-1.1584,-1.1584,-1.1584,-1.1584,-1.1584,-1.1584,-1.1584,-1.1584,-1.1584,-1.1584,-1.1584,-1.1584,-1.1584,-1.1584,-1.1584,-1.1584,-1.1584,-1.1584,-1.1584,-1.1584,-1.1584,-1.159,-1.1584,-1.1584,-1.1584,-1.1584,-1.1584,-1.1584,-1.1584,-1.1584,-1.1584,-1.1584,-1.1584,-1.0717,-1.0717,-1.0717,-1.0717,-1.0711,-1.0826,-1.0853,-1.0907,-1.1077,-1.1172,-1.1186,-1.1294,-1.1397,-1.1396,-1.1511,-1.1592,-1.1613,-1.1584,-1.1584,-1.1584,-1.1584,-1.1584,-1.1584,-1.1584,-1.1584,-1.1584,-1.1584,-1.1584,-1.1584,-1.1584,-1.1584,-1.1584,-1.1584,-1.1584,-1.1584,-1.1584,-1.1584,-1.1584,-1.1584,-1.1584,-1.1584,-1.1584,-1.1584,-1.1584,-1.1584,-1.1584,-1.1584,-1.1584,-1.1584,-1.1584,-1.1584,-1.1584,-1.1584,-1.1584,-1.1584,-1.1584,-1.1584,-1.1584,-1.1584,-1.1584,-1.1584,-1.1584,-1.1584,-1.1584,-1.1584,-1.1584,-1.1584,-1.1584,-1.1584,-1.1584,-1.1584,-1.1584,-1.1584,-1.1584,-1.1584,-1.1584,-1.1584,-1.1584,-1.1584,-1.1584,-1.1584,-1.1584,-1.1584,-1.1584,-1.1584,-1.1584,-1.1584,-1.1584,-1.1584,-1.1584,-1.1584,-1.1584,-1.1584,-1.1584,-1.1584,-1.1584,-1.1584,-1.1584,-1.159,-1.159,-1.159,-1.1597,-1.1611,-1.1611,-1.1611,-1.1681,-1.1714,-1.1708,-1.1611,-1.1653,-1.1708,-1.1638,-1.1584,-1.159,-1.1681,-1.0717,-1.0717,-1.0717,-1.0738,-1.0819,-1.0887,-1.0961,-1.109,-1.1226,-1.1329,-1.1356,-1.145,-1.1518,-1.1531,-1.1599,-1.1577,-1.1584,-1.1584,-1.1584,-1.1584,-1.1584,-1.1584,-1.1584,-1.1584,-1.1584,-1.1584,-1.1584,-1.1584,-1.1584,-1.1584,-1.1584,-1.1584,-1.1584,-1.1584,-1.1584,-1.1584,-1.1584,-1.1584,-1.1584,-1.1584,-1.1584,-1.1584,-1.1584,-1.1584,-1.1584,-1.1584,-1.1584,-1.1584,-1.1584,-1.1584,-1.1584,-1.1584,-1.1584,-1.1584,-1.1584,-1.1584,-1.1584,-1.1584,-1.1584,-1.1584,-1.1584,-1.1584,-1.1584,-1.1584,-1.1584,-1.1584,-1.1584,-1.1584,-1.1584,-1.1584,-1.1584,-1.1584,-1.1584,-1.1584,-1.1584,-1.1584,-1.1584,-1.1584,-1.1584,-1.1584,-1.1584,-1.1584,-1.1584,-1.1584,-1.1584,-1.1584,-1.1584,-1.1584,-1.1584,-1.1584,-1.1584,-1.1584,-1.1584,-1.1584,-1.1584,-1.1584,-1.1633,-1.1633,-1.1604,-1.1604,-1.1611,-1.1617,-1.1671,-1.1782,-1.1843,-1.1857,-1.1843,-1.1803,-1.1762,-1.1782,-1.1816,-1.1803,-1.1803,-1.1857,-1.1898,-1.0704,-1.0745,-1.0745,-1.0813,-1.0921,-1.0988,-1.1124,-1.1268,-1.1417,-1.145,-1.1477,-1.1565,-1.1577,-1.1584,-1.1613,-1.1584,-1.1584,-1.1584,-1.1584,-1.1584,-1.1584,-1.1584,-1.1584,-1.1584,-1.1584,-1.1584,-1.1584,-1.1584,-1.1584,-1.1584,-1.1584,-1.1584,-1.1584,-1.1584,-1.1584,-1.1584,-1.1584,-1.1584,-1.1584,-1.1584,-1.1584,-1.1584,-1.1584,-1.1584,-1.1584,-1.1584,-1.1584,-1.1584,-1.1584,-1.1584,-1.1584,-1.1584,-1.1584,-1.1584,-1.1584,-1.1584,-1.1584,-1.1584,-1.1584,-1.1584,-1.1584,-1.1584,-1.1584,-1.1584,-1.1584,-1.1584,-1.1584,-1.1584,-1.1584,-1.1584,-1.1584,-1.1584,-1.1584,-1.1584,-1.1584,-1.1584,-1.1584,-1.1584,-1.1584,-1.1584,-1.1584,-1.1584,-1.1584,-1.1584,-1.1584,-1.1584,-1.1584,-1.1584,-1.1584,-1.159,-1.159,-1.1597,-1.1633,-1.1633,-1.1604,-1.1604,-1.1647,-1.1681,-1.1658,-1.1728,-1.1775,-1.1823,-1.1877,-1.1952,-1.2013,-1.1993,-1.1952,-1.1918,-1.1891,-1.1911,-1.1945,-1.1999,-1.2064,-1.2104,-1.2104,-1.0772,-1.0901,-1.0901,-1.0914,-1.0914,-1.1212,-1.1362,-1.1389,-1.1531,-1.1586,-1.1543,-1.1613,-1.1584,-1.1584,-1.1584,-1.1584,-1.1584,-1.1584,-1.1584,-1.1584,-1.1584,-1.1584,-1.1584,-1.1584,-1.1584,-1.1584,-1.1584,-1.1584,-1.1584,-1.1584,-1.1584,-1.1584,-1.1584,-1.1584,-1.1584,-1.1584,-1.1584,-1.1584,-1.1584,-1.1584,-1.1584,-1.1584,-1.1584,-1.1584,-1.1584,-1.1584,-1.1584,-1.1584,-1.1584,-1.1584,-1.1584,-1.1584,-1.1584,-1.1584,-1.1584,-1.1584,-1.1584,-1.1584,-1.1584,-1.1584,-1.1584,-1.1584,-1.1584,-1.1584,-1.1584,-1.1584,-1.1584,-1.1584,-1.1584,-1.1584,-1.1584,-1.1584,-1.1584,-1.1584,-1.1584,-1.1584,-1.1584,-1.1584,-1.1584,-1.1584,-1.1584,-1.1584,-1.1584,-1.1584,-1.1584,-1.1584,-1.1584,-1.1584,-1.1597,-1.1604,-1.1611,-1.1617,-1.166,-1.166,-1.1667,-1.1701,-1.1796,-1.1843,-1.187,-1.1925,-1.1986,-1.2064,-1.2047,-1.2111,-1.2159,-1.2132,-1.2125,-1.2101,-1.2101,-1.206,-1.2118,-1.2155,-1.2213,-1.222,-1.22,-1.086,-1.09,-1.1103,-1.1219,-1.1198,-1.1341,-1.1443,-1.1531,-1.1592,-1.1584,-1.1584,-1.1584,-1.1584,-1.1584,-1.1584,-1.1584,-1.1584,-1.1584,-1.1584,-1.1584,-1.1584,-1.1584,-1.1584,-1.1584,-1.1584,-1.1584,-1.1584,-1.1584,-1.1584,-1.1584,-1.1584,-1.1584,-1.1584,-1.1584,-1.1584,-1.1584,-1.1584,-1.1584,-1.1584,-1.1584,-1.1584,-1.1584,-1.1584,-1.1584,-1.1584,-1.1584,-1.1584,-1.1584,-1.1584,-1.1584,-1.1584,-1.1584,-1.1584,-1.1584,-1.1584,-1.1584,-1.1584,-1.1584,-1.1584,-1.1584,-1.1584,-1.1584,-1.1584,-1.1584,-1.1584,-1.1584,-1.1584,-1.1584,-1.1584,-1.1584,-1.1584,-1.1584,-1.1584,-1.1584,-1.1584,-1.1584,-1.1584,-1.1584,-1.1611,-1.1617,-1.1597,-1.1584,-1.1584,-1.1584,-1.1584,-1.1584,-1.1584,-1.1597,-1.1674,-1.1714,-1.1735,-1.1769,-1.1782,-1.1823,-1.1837,-1.1898,-1.1972,-1.2006,-1.204,-1.2088,-1.2179,-1.2182,-1.2203,-1.2261,-1.2295,-1.2322,-1.2305,-1.2325,-1.2298,-1.223,-1.2264,-1.2352,-1.2345,-1.2305,-1.2322,-1.1002,-1.107,-1.1307,-1.1431,-1.1396,-1.1443,-1.1518,-1.157,-1.1584,-1.1584,-1.1584,-1.1584,-1.1584,-1.1584,-1.1584,-1.1584,-1.1584,-1.1584,-1.1584,-1.1584,-1.1584,-1.1584,-1.1584,-1.1584,-1.1584,-1.1584,-1.1584,-1.1584,-1.1584,-1.1584,-1.1584,-1.1584,-1.1584,-1.1584,-1.1584,-1.1584,-1.1584,-1.1584,-1.1584,-1.1584,-1.1584,-1.1584,-1.1584,-1.1584,-1.1584,-1.1584,-1.1584,-1.1584,-1.1584,-1.1584,-1.1584,-1.1584,-1.1584,-1.1584,-1.1584,-1.1584,-1.1584,-1.1584,-1.1584,-1.1584,-1.1584,-1.1584,-1.1584,-1.1584,-1.1584,-1.1584,-1.1584,-1.1584,-1.1584,-1.1584,-1.1584,-1.1584,-1.1584,-1.1584,-1.1584,-1.1584,-1.1584,-1.1584,-1.1631,-1.1658,-1.1651,-1.1678,-1.1789,-1.1803,-1.1762,-1.1775,-1.1809,-1.1823,-1.1843,-1.187,-1.1891,-1.1962,-1.1996,-1.2036,-1.2084,-1.2094,-1.2128,-1.2162,-1.2196,-1.223,-1.2277,-1.2318,-1.2345,-1.2359,-1.2406,-1.2481,-1.2474,-1.2427,-1.24,-1.2366,-1.2413,-1.2447,-1.2447,-1.2406,-1.2433,-1.1274,-1.1375,-1.1389,-1.1402,-1.1423,-1.1552,-1.1577,-1.1584,-1.1584,-1.1584,-1.1584,-1.1584,-1.1584,-1.1584,-1.1584,-1.1584,-1.1584,-1.1584,-1.1584,-1.1584,-1.1584,-1.1584,-1.1584,-1.1584,-1.1584,-1.1584,-1.1584,-1.1584,-1.1584,-1.1584,-1.1584,-1.1584,-1.1584,-1.1584,-1.1584,-1.1584,-1.1584,-1.1584,-1.1584,-1.1584,-1.1584,-1.1584,-1.1584,-1.1584,-1.1584,-1.1584,-1.1584,-1.1584,-1.1584,-1.1584,-1.1647,-1.1653,-1.1653,-1.1674,-1.1681,-1.1674,-1.166,-1.1653,-1.164,-1.1633,-1.1647,-1.159,-1.1584,-1.1584,-1.1584,-1.1584,-1.1584,-1.1584,-1.1584,-1.159,-1.1584,-1.1597,-1.1604,-1.1687,-1.1701,-1.1708,-1.1714,-1.1721,-1.1782,-1.1816,-1.1837,-1.187,-1.2009,-1.2064,-1.1959,-1.1959,-1.2036,-1.205,-1.2036,-1.2033,-1.2054,-1.2125,-1.2159,-1.2207,-1.2216,-1.2257,-1.2291,-1.2318,-1.2338,-1.2359,-1.2393,-1.2427,-1.2454,-1.2481,-1.2488,-1.2501,-1.2501,-1.2494,-1.2461,-1.2433,-1.2461,-1.2488,-1.2501,-1.2501,-1.2501,-1.1341,-1.1402,-1.1497,-1.1545,-1.1552,-1.1592,-1.1584,-1.1584,-1.1584,-1.1584,-1.1584,-1.1584,-1.1584,-1.1584,-1.1584,-1.1584,-1.1584,-1.1584,-1.1584,-1.1584,-1.1584,-1.1584,-1.1584,-1.1584,-1.1584,-1.1584,-1.1584,-1.1584,-1.1584,-1.1584,-1.1584,-1.1584,-1.1584,-1.1584,-1.1584,-1.1584,-1.1584,-1.1584,-1.1584,-1.1584,-1.1584,-1.1584,-1.159,-1.159,-1.1597,-1.1647,-1.1647,-1.166,-1.166,-1.1667,-1.1708,-1.1726,-1.1782,-1.1816,-1.1891,-1.1898,-1.1904,-1.1948,-1.1948,-1.1941,-1.1809,-1.1708,-1.1647,-1.1653,-1.159,-1.1584,-1.1584,-1.1633,-1.166,-1.1651,-1.1698,-1.1726,-1.1759,-1.1911,-1.1982,-1.1982,-1.1982,-1.1982,-1.2002,-1.2016,-1.1993,-1.2006,-1.2111,-1.222,-1.2155,-1.2115,-1.2142,-1.2145,-1.2118,-1.2162,-1.2216,-1.2257,-1.2298,-1.2338,-1.2379,-1.2379,-1.2386,-1.2406,-1.2427,-1.2454,-1.2488,-1.2501,-1.2501,-1.2488,-1.2494,-1.2501,-1.2501,-1.2501,-1.2501,-1.2494,-1.2501,-1.2501,-1.2501,-1.2501,-1.2501,-1.147,-1.1484,-1.1579,-1.1584,-1.1584,-1.1584,-1.1584,-1.1584,-1.1584,-1.1584,-1.1584,-1.1584,-1.1584,-1.1584,-1.1584,-1.1584,-1.1584,-1.1584,-1.1584,-1.1584,-1.1584,-1.1584,-1.1584,-1.1584,-1.1584,-1.1584,-1.1584,-1.1584,-1.1584,-1.1584,-1.1584,-1.1584,-1.1584,-1.1584,-1.1584,-1.1584,-1.1584,-1.1584,-1.1584,-1.1584,-1.1597,-1.1624,-1.1665,-1.1685,-1.1748,-1.1789,-1.1775,-1.1769,-1.1769,-1.1796,-1.1843,-1.1911,-1.1952,-1.1993,-1.2098,-1.2098,-1.2098,-1.2091,-1.2077,-1.2077,-1.1968,-1.183,-1.1775,-1.1769,-1.1775,-1.1803,-1.1803,-1.1796,-1.1762,-1.1816,-1.1884,-1.1911,-1.1959,-1.2111,-1.2118,-1.2111,-1.2104,-1.2098,-1.2132,-1.2145,-1.2179,-1.2193,-1.2227,-1.2277,-1.2345,-1.2311,-1.2284,-1.223,-1.2227,-1.2271,-1.2345,-1.2372,-1.24,-1.2427,-1.2447,-1.2461,-1.2474,-1.2494,-1.2501,-1.2501,-1.2501,-1.2501,-1.2501,-1.2501,-1.2501,-1.2501,-1.2501,-1.2501,-1.2501,-1.2501,-1.2501,-1.2501,-1.2501,-1.2501,-1.2501,-1.1577,-1.1584,-1.1584,-1.1584,-1.1584,-1.1584,-1.1584,-1.1584,-1.1584,-1.1584,-1.1584,-1.1584,-1.1584,-1.1584,-1.1584,-1.1584,-1.1584,-1.1584,-1.1584,-1.1584,-1.1584,-1.1584,-1.1584,-1.1584,-1.1584,-1.1584,-1.1584,-1.1584,-1.1584,-1.1584,-1.1584,-1.1604,-1.1631,-1.1681,-1.1687,-1.1708,-1.1694,-1.1644,-1.1708,-1.1721,-1.1742,-1.1753,-1.183,-1.1864,-1.1925,-1.1972,-1.2023,-1.203,-1.2043,-1.2064,-1.2091,-1.2104,-1.2111,-1.2111,-1.2111,-1.2125,-1.2139,-1.2159,-1.2166,-1.2179,-1.2166,-1.2118,-1.2111,-1.2111,-1.2057,-1.2016,-1.2002,-1.2009,-1.1965,-1.205,-1.2098,-1.2074,-1.2088,-1.2159,-1.2173,-1.2166,-1.2166,-1.2186,-1.2241,-1.2275,-1.2315,-1.2356,-1.2386,-1.2461,-1.244,-1.2433,-1.24,-1.24,-1.2404,-1.2386,-1.2447,-1.2447,-1.2474,-1.2481,-1.2501,-1.2501,-1.2501,-1.2501,-1.2501,-1.2501,-1.2501,-1.2501,-1.2501,-1.2501,-1.2501,-1.2501,-1.2501,-1.2501,-1.2501,-1.2501,-1.2501,-1.2501,-1.2501,-1.2501,-1.2501,-1.1584,-1.1584,-1.1584,-1.1584,-1.1584,-1.1584,-1.1584,-1.1584,-1.1584,-1.1584,-1.1584,-1.1584,-1.1584,-1.1584,-1.1584,-1.1584,-1.1584,-1.1584,-1.1584,-1.1584,-1.1584,-1.1584,-1.1584,-1.1584,-1.1584,-1.1584,-1.1584,-1.159,-1.1626,-1.1626,-1.1665,-1.1719,-1.1732,-1.1823,-1.1877,-1.1932,-1.1864,-1.1786,-1.1864,-1.1877,-1.1904,-1.1959,-1.1993,-1.2026,-1.206,-1.2139,-1.2139,-1.2132,-1.2132,-1.2125,-1.2213,-1.2261,-1.2261,-1.2311,-1.2372,-1.2372,-1.2379,-1.2379,-1.2411,-1.2411,-1.2397,-1.2377,-1.2383,-1.2261,-1.2179,-1.2125,-1.2132,-1.2159,-1.2166,-1.2193,-1.2241,-1.2261,-1.225,-1.2284,-1.2291,-1.2329,-1.2329,-1.2343,-1.2352,-1.2359,-1.24,-1.2413,-1.2494,-1.2494,-1.2474,-1.2494,-1.2501,-1.2501,-1.2501,-1.2501,-1.2501,-1.2501,-1.2501,-1.2501,-1.2501,-1.2501,-1.2501,-1.2501,-1.2501,-1.2501,-1.2501,-1.2501,-1.2501,-1.2501,-1.2501,-1.2501,-1.2501,-1.2501,-1.2501,-1.2501,-1.2501,-1.2501,-1.2501,-1.2501,-1.2501,-1.1584,-1.1584,-1.1584,-1.1584,-1.1584,-1.1584,-1.1584,-1.1584,-1.1584,-1.1584,-1.1584,-1.1584,-1.1584,-1.1584,-1.1584,-1.1584,-1.1584,-1.1584,-1.1584,-1.1584,-1.1584,-1.1584,-1.1584,-1.1584,-1.1584,-1.1584,-1.1597,-1.1617,-1.1694,-1.1782,-1.1864,-1.1911,-1.1925,-1.1972,-1.2077,-1.2125,-1.2101,-1.2054,-1.204,-1.2098,-1.2125,-1.2159,-1.2186,-1.22,-1.2227,-1.2254,-1.2261,-1.2254,-1.2261,-1.2275,-1.2352,-1.2372,-1.2379,-1.2454,-1.2494,-1.2481,-1.2474,-1.2474,-1.2467,-1.2481,-1.2494,-1.2501,-1.2501,-1.2413,-1.2332,-1.2277,-1.2271,-1.2277,-1.2309,-1.2315,-1.237,-1.2379,-1.2433,-1.2481,-1.2481,-1.2488,-1.2488,-1.2488,-1.2488,-1.2488,-1.2494,-1.2488,-1.2501,-1.2501,-1.2501,-1.2501,-1.2501,-1.2501,-1.2501,-1.2501,-1.2501,-1.2501,-1.2501,-1.2501,-1.2501,-1.2501,-1.2501,-1.2501,-1.2501,-1.2501,-1.2501,-1.2501,-1.2501,-1.2501,-1.2501,-1.2501,-1.2501,-1.2501,-1.2501,-1.2501,-1.2501,-1.2501,-1.2501,-1.2501,-1.2501,-1.1584,-1.1584,-1.1584,-1.1584,-1.1584,-1.1584,-1.1584,-1.1584,-1.1584,-1.1584,-1.1584,-1.1584,-1.1584,-1.1584,-1.1584,-1.1584,-1.1584,-1.1584,-1.1584,-1.1584,-1.1584,-1.1584,-1.1584,-1.1597,-1.1638,-1.1653,-1.1687,-1.1782,-1.1864,-1.1938,-1.2036,-1.2111,-1.2118,-1.2152,-1.2176,-1.2295,-1.2277,-1.2264,-1.2203,-1.2207,-1.222,-1.2268,-1.2305,-1.2325,-1.24,-1.2474,-1.2481,-1.2488,-1.2501,-1.2494,-1.2494,-1.2488,-1.2488,-1.2494,-1.2501,-1.2501,-1.2501,-1.2501,-1.2501,-1.2501,-1.2501,-1.2501,-1.2501,-1.2481,-1.2433,-1.2406,-1.24,-1.24,-1.2386,-1.2424,-1.2427,-1.244,-1.2474,-1.2494,-1.2501,-1.2501,-1.2501,-1.2501,-1.2501,-1.2501,-1.2501,-1.2501,-1.2501,-1.2501,-1.2501,-1.2501,-1.2501,-1.2501,-1.2501,-1.2501,-1.2501,-1.2501,-1.2501,-1.2501,-1.2501,-1.2501,-1.2501,-1.2501,-1.2501,-1.2501,-1.2501,-1.2501,-1.2501,-1.2501,-1.2501,-1.2501,-1.2501,-1.2501,-1.2501,-1.2501,-1.2501,-1.2501,-1.2501,-1.2501,-1.2501,-1.1584,-1.1584,-1.1584,-1.1584,-1.1584,-1.1584,-1.1584,-1.1584,-1.1584,-1.1584,-1.1584,-1.1584,-1.1584,-1.1584,-1.1584,-1.1584,-1.1584,-1.1584,-1.1584,-1.1626,-1.1626,-1.1611,-1.1617,-1.1705,-1.1732,-1.1823,-1.1884,-1.1959,-1.2013,-1.2104,-1.2173,-1.2223,-1.2237,-1.2264,-1.2352,-1.2427,-1.2427,-1.242,-1.2386,-1.2383,-1.2404,-1.24,-1.2454,-1.2454,-1.2501,-1.2501,-1.2501,-1.2501,-1.2501,-1.2501,-1.2501,-1.2501,-1.2501,-1.2501,-1.2501,-1.2501,-1.2501,-1.2501,-1.2501,-1.2501,-1.2501,-1.2501,-1.2501,-1.2501,-1.2494,-1.2501,-1.2501,-1.2501,-1.2501,-1.2501,-1.2501,-1.2501,-1.2501,-1.2501,-1.2501,-1.2501,-1.2501,-1.2501,-1.2501,-1.2501,-1.2501,-1.2501,-1.2501,-1.2501,-1.2501,-1.2501,-1.2501,-1.2501,-1.2501,-1.2501,-1.2501,-1.2501,-1.2501,-1.2501,-1.2501,-1.2501,-1.2501,-1.2501,-1.2501,-1.2501,-1.2501,-1.2501,-1.2501,-1.2501,-1.2501,-1.2501,-1.2501,-1.2501,-1.2501,-1.2501,-1.2501,-1.2501,-1.2501,-1.2501,-1.2501,-1.1584,-1.1584,-1.1584,-1.1584,-1.1584,-1.1584,-1.1584,-1.1584,-1.1584,-1.1584,-1.1584,-1.1584,-1.1584,-1.1584,-1.1584,-1.1584,-1.1584,-1.1584,-1.1584,-1.1626,-1.1694,-1.1678,-1.1732,-1.182,-1.1911,-1.1972,-1.2088,-1.2155,-1.2207,-1.225,-1.2332,-1.2372,-1.2386,-1.2413,-1.2501,-1.2501,-1.2501,-1.2494,-1.2501,-1.2501,-1.2501,-1.2501,-1.2501,-1.2501,-1.2501,-1.2501,-1.2501,-1.2501,-1.2501,-1.2501,-1.2501,-1.2501,-1.2501,-1.2501,-1.2501,-1.2501,-1.2501,-1.2501,-1.2501,-1.2501,-1.2501,-1.2501,-1.2501,-1.2501,-1.2501,-1.2501,-1.2501,-1.2501,-1.2501,-1.2501,-1.2501,-1.2501,-1.2501,-1.2501,-1.2501,-1.2501,-1.2501,-1.2501,-1.2501,-1.2501,-1.2501,-1.2501,-1.2501,-1.2501,-1.2501,-1.2501,-1.2501,-1.2501,-1.2501,-1.2501,-1.2501,-1.2501,-1.2501,-1.2501,-1.2501,-1.2501,-1.2501,-1.2501,-1.2501,-1.2501,-1.2501,-1.2501,-1.2501,-1.2501,-1.2501,-1.2501,-1.2501,-1.2501,-1.2501,-1.2501,-1.2501,-1.2501,-1.2501,-1.2501,-1.2501,-1.1584,-1.1584,-1.1584,-1.1584,-1.1584,-1.1584,-1.1584,-1.1584,-1.1584,-1.1584,-1.1584,-1.1584,-1.1584,-1.1584,-1.1584,-1.1584,-1.1597,-1.1638,-1.1624,-1.1665,-1.1773,-1.1843,-1.1918,-1.2013,-1.2088,-1.2169,-1.2264,-1.2298,-1.2318,-1.2393,-1.2447,-1.2494,-1.2501,-1.2501,-1.2501,-1.2501,-1.2501,-1.2501,-1.2501,-1.2501,-1.2501,-1.2501,-1.2501,-1.2501,-1.2501,-1.2501,-1.2501,-1.2501,-1.2501,-1.2501,-1.2501,-1.2501,-1.2501,-1.2501,-1.2501,-1.2501,-1.2501,-1.2501,-1.2501,-1.2501,-1.2501,-1.2501,-1.2501,-1.2501,-1.2501,-1.2501,-1.2501,-1.2501,-1.2501,-1.2501,-1.2501,-1.2501,-1.2501,-1.2501,-1.2501,-1.2501,-1.2501,-1.2501,-1.2501,-1.2501,-1.2501,-1.2501,-1.2501,-1.2501,-1.2501,-1.2501,-1.2501,-1.2501,-1.2501,-1.2501,-1.2501,-1.2501,-1.2501,-1.2501,-1.2501,-1.2501,-1.2501,-1.2501,-1.2501,-1.2501,-1.2501,-1.2501,-1.2501,-1.2501,-1.2501,-1.2515,-1.2508,-1.2501,-1.2501,-1.2522,-1.2501,-1.2501,-1.2501,-1.2501,-1.2501,-1.1584,-1.1584,-1.1584,-1.1584,-1.1584,-1.1584,-1.1584,-1.1584,-1.1584,-1.1584,-1.1597,-1.1584,-1.1584,-1.1584,-1.1584,-1.1604,-1.1708,-1.1712,-1.1753,-1.178,-1.1952,-1.1999,-1.206,-1.2176,-1.2298,-1.2372,-1.2413,-1.2447,-1.242,-1.2467,-1.2501,-1.2501,-1.2501,-1.2501,-1.2501,-1.2501,-1.2501,-1.2501,-1.2501,-1.2501,-1.2501,-1.2501,-1.2501,-1.2501,-1.2501,-1.2501,-1.2501,-1.2501,-1.2501,-1.2501,-1.2501,-1.2501,-1.2501,-1.2501,-1.2501,-1.2501,-1.2501,-1.2501,-1.2501,-1.2501,-1.2501,-1.2501,-1.2501,-1.2501,-1.2501,-1.2501,-1.2501,-1.2501,-1.2501,-1.2501,-1.2501,-1.2501,-1.2501,-1.2501,-1.2501,-1.2501,-1.2501,-1.2501,-1.2501,-1.2501,-1.2501,-1.2501,-1.2501,-1.2501,-1.2501,-1.2501,-1.2501,-1.2501,-1.2501,-1.2501,-1.2508,-1.2522,-1.2528,-1.2501,-1.2501,-1.2501,-1.2501,-1.2501,-1.2522,-1.2569,-1.2569,-1.2508,-1.2508,-1.2589,-1.2562,-1.2549,-1.2535,-1.2596,-1.2569,-1.2583,-1.2522,-1.2501,-1.2515,-1.2556,-1.2603]},{"header":{"parameterUnit":"m.s-1","parameterCategory":1,"la1":31.0,"la2":29.5877,"lo1":-88.7671,"lo2":-86.6584,"dy":0.0162,"dx":0.0185,"nx":115,"ny":88,"refTime":"2023-08-15T12:00:00:Z","depth":0,"parameterNumber":3,"parameterNumberName":"V-component_of_WINDS"},"data":[0.0,0.0,0.0,0.0,0.0,0.0,0.0,0.0,0.0,0.0,0.0,0.0,0.0,0.0,0.0,0.0,0.0,0.0,0.0,0.0,0.0,0.0,0.0,0.0,0.0,0.0,0.0,0.0,0.0,0.0,0.0,0.0,0.0,0.0,0.0,0.0,0.0,0.0,0.0,0.0,0.0,0.0,0.0,0.0,0.0,0.0,0.0,0.0,0.0,0.0,0.0,0.0,0.0,0.0,0.0,0.0,0.0,0.0,0.0,0.0,0.0,0.0,0.0,0.0,0.0,0.0,0.0,0.0,0.0,0.0,0.0,0.0,0.0,0.0,0.0,0.0,0.0,0.0,0.0,0.0,0.0,0.0,0.0,0.0,0.0,0.0,0.0,0.0,0.0,0.0,0.0,0.0,0.0,0.0,0.0,0.0,0.0,0.0,0.0,0.0,0.0,0.0,0.0,0.0,0.0,0.0,0.0,0.0,0.0,0.0,0.0,0.0,0.0,0.0,0.0,0.0,0.0,0.0,0.0,0.0,0.0,0.0,0.0,0.0,0.0,0.0,0.0,0.0,0.0,0.0,0.0,0.0,0.0,0.0,0.0,0.0,0.0,0.0,0.0,0.0,0.0,0.0,0.0,0.0,0.0,0.0,0.0,0.0,0.0,0.0,0.0,0.0,0.0,0.0,0.0,0.0,0.0,0.0,0.0,0.0,0.0,0.0,0.0,0.0,0.0,0.0,0.0,0.0,0.0,0.0,0.0,0.0,0.0,0.0,0.0,0.0,0.0,0.0,0.0,0.0,0.0,0.0,0.0,0.0,0.0,0.0,0.0,0.0,0.0,0.0,0.0,0.0,0.0,0.0,0.0,0.0,0.0,0.0,0.0,0.0,0.0,0.0,0.0,0.0,0.0,0.0,0.0,0.0,0.0,0.0,0.0,0.0,0.0,0.0,0.0,0.0,0.0,0.0,0.0,0.0,0.0,0.0,0.0,0.0,0.0,0.0,0.0,0.0,0.0,0.0,0.0,0.0,0.0,0.0,0.0,0.0,0.0,0.0,0.0,0.0,0.0,0.0,0.0,0.0,0.0,0.0,0.0,0.0,0.0,0.0,0.0,0.0,0.0,0.0,0.0,0.0,0.0,0.0,0.0,0.0,0.0,0.0,0.0,0.0,0.0,0.0,0.0,0.0,0.0,0.0,0.0,0.0,0.0,0.0,0.0,0.0,0.0,0.0,0.0,0.0,0.0,0.0,0.0,0.0,0.0,0.0,0.0,0.0,0.0,0.0,0.0,0.0,0.0,0.0,0.0,0.0,0.0,0.0,0.0,0.0,0.0,0.0,0.0,0.0,0.0,0.0,0.0,0.0,0.0,0.0,0.0,0.0,0.0,0.0,0.0,0.0,0.0,0.0,0.0,0.0,0.0,0.0,0.0,0.0,0.0,0.0,0.0,0.0,0.0,0.0,0.0,0.0,0.0,0.0,0.0,0.0,0.0,0.0,0.0,0.0,0.0,0.0,0.0,0.0,0.0,0.0,0.0,0.0,0.0,0.0,0.0,0.0,0.0,0.0,0.0,0.0,0.0,0.0,0.0,0.0,0.0,0.0,0.0,0.0,0.0,0.0,0.0,0.0,0.0,0.0,0.0,0.0,0.0,0.0,0.0,0.0,0.0,0.0,0.0,0.0,0.0,0.0,0.0,0.0,0.0,0.0,0.0,0.0,0.0,0.0,0.0,0.0,0.0,0.0,0.0,0.0,0.0,0.0,0.0,0.0,0.0,0.0,0.0,0.0,0.0,0.0,0.0,0.0,0.0,0.0,0.0,0.0,0.0,0.0,0.0,0.0,0.0,0.0,0.0,0.0,0.0,0.0,0.0,0.0,0.0,0.0,0.0,0.0,0.0,0.0,0.0,0.0,0.0,0.0,0.0,0.0,0.0,0.0,0.0,0.0,0.0,0.0,0.0,0.0,0.0,0.0,0.0,0.0,0.0,0.0,0.0,0.0,0.0,0.0,0.0,0.0,0.0,0.0,0.0,0.0,0.0,0.0,0.0,0.0,0.0,0.0,0.0,0.0,0.0,0.0,0.0,0.0,0.0,0.0,0.0,0.0,0.0,0.0,0.0,0.0,0.0,0.0,0.0,0.0,0.0,0.0,0.0,0.0,0.0,0.0,0.0,0.0,0.0,0.0,0.0,0.0,0.0,0.0,0.0,0.0,0.0,0.0,0.0,0.0,0.0,0.0,0.0,0.0,0.0,0.0,0.0,0.0,0.0,0.0,0.0,0.0,0.0,0.0,0.0,0.0,0.0,0.0,0.0,0.0,0.0,0.0,0.0,0.0,0.0,0.0,0.0,0.0,0.0,0.0,0.0,0.0,0.0,0.0,0.0,0.0,0.0,0.0,0.0,0.0,0.0,0.0,0.0,0.0,0.0,0.0,0.0,0.0,0.0,0.0,0.0,0.0,0.0,0.0,0.0,0.0,0.0,0.0,0.0,0.0,0.0,0.0,0.0,0.0,0.0,0.0,0.0,0.0,0.0,0.0,0.0,0.0,0.0,0.0,0.0,0.0,0.0,0.0,0.0,0.0,0.0,0.0,0.0,0.0,0.0,0.0,0.0,0.0,0.0,0.0,0.0,0.0,0.0,0.0,0.0,0.0,0.0,0.0,0.0,0.0,0.0,0.0,0.0,0.0,0.0,0.0,0.0,0.0,0.0,0.0,0.0,0.0,0.0,0.0,0.0,0.0,0.0,0.0,0.0,0.0,0.0,0.0,0.0,0.0,0.0,0.0,0.0,0.0,0.0,0.0,0.0,0.0,0.0,0.0,0.0,0.0,0.0,0.0,0.0,0.0,0.0,0.0,0.0,0.0,0.0,0.0,0.0,0.0,0.0,0.0,0.0,0.0,0.0,0.0,0.0,0.0,0.0,0.0,0.0,0.0,0.0,0.0,0.0,0.0,0.0,0.0,0.0,0.0,0.0,0.0,0.0,0.0,0.0,0.0,0.0,0.0,0.0,0.0,0.0,0.0,0.0,0.0,0.0,0.0,0.0,0.0,0.0,0.0,0.0,0.0,0.0,0.0,0.0,0.0,0.0,0.0,0.0,0.0,0.0,0.0,0.0,0.0,0.0,0.0,0.0,0.0,0.0,0.0,0.0,0.0,0.0,0.0,0.0,0.0,0.0,0.0,0.0,0.0,0.0,0.0,0.0,0.0,0.0,0.0,0.0,0.0,0.0,0.0,0.0,0.0,0.0,0.0,0.0,0.0,0.0,0.0,0.0,0.0,0.0,0.0,0.0,0.0,0.0,0.0,0.0,0.0,0.0,0.0,0.0,0.0,0.0,0.0,0.0,0.0,0.0,0.0,0.0,0.0,0.0,0.0,0.0,0.0,0.0,0.0,0.0,0.0,0.0,0.0,0.0,0.0,0.0,0.0,0.0,0.0,0.0,0.0,0.0,0.0,0.0,0.0,0.0,0.0,0.0,0.0,0.0,0.0,0.0,0.0,0.0,0.0,0.0,0.0,0.0,0.0,0.0,0.0,0.0,0.0,0.0,0.0,0.0,0.0,0.0,0.0,0.0,0.0,0.0,0.0,0.0,0.0,0.0,0.0,0.0,0.0,0.0,0.0,0.0,0.0,0.0,0.0,0.0,0.0,0.0,0.0,0.0,0.0,0.0,0.0,0.0,0.0,0.0,0.0,0.0,0.0,0.0,0.0,0.0,0.0,0.0,0.0,0.0,0.0,0.0,0.0,0.0,0.0,0.0,0.0,0.0,0.0,0.0,0.0,0.0,0.0,0.0,0.0,0.0,0.0,0.0,0.0,0.0,0.0,0.0,0.0,0.0,0.0,0.0,0.0,0.0,0.0,0.0,0.0,0.0,0.0,0.0,0.0,0.0,0.0,0.0,0.0,0.0,0.0,0.0,0.0,0.0,0.0,0.0,0.0,0.0,0.0,0.0,0.0,0.0,0.0,0.0,0.0,0.0,0.0,0.0,0.0,0.0,0.0,0.0,0.0,0.0,0.0,0.0,0.0,0.0,0.0,0.0,0.0,0.0,0.0,0.0,0.0,0.0,0.0,0.0,0.0,0.0,0.0,0.0,0.0,0.0,0.0,0.0,0.0,0.0,0.0,0.0,0.0,0.0,0.0,0.0,0.0,0.0,0.0,0.0,0.0,0.0,0.0,0.0,0.0,0.0,0.0,0.0,0.0,0.0,0.0,0.0,0.0,0.0,0.0,0.0,0.0,0.0,0.0,0.0,0.0,0.0,0.0,1.8354,0.0,0.0,0.0,0.0,0.0,0.0,0.0,0.0,0.0,0.0,0.0,0.0,0.0,0.0,0.0,0.0,0.0,0.0,0.0,0.0,0.0,0.0,0.0,0.0,0.0,0.0,0.0,0.0,0.0,0.0,0.0,0.0,0.0,0.0,0.0,0.0,0.0,0.0,0.0,0.0,0.0,0.0,0.0,0.0,0.0,0.0,0.0,0.0,0.0,0.0,0.0,0.0,0.0,0.0,0.0,0.0,0.0,0.0,0.0,0.0,0.0,0.0,0.0,0.0,0.0,0.0,0.0,0.0,0.0,0.0,0.0,0.0,0.0,0.0,0.0,0.0,0.0,0.0,0.0,0.0,0.0,0.0,0.0,0.0,0.0,0.0,0.0,0.0,0.0,0.0,0.0,0.0,0.0,0.0,0.0,0.0,0.0,0.0,0.0,0.0,0.0,0.0,0.0,0.0,0.0,0.0,0.0,0.0,0.0,0.0,2.0573,2.0567,2.0524,2.0098,1.9226,0.0,0.0,0.0,0.0,0.0,0.0,0.0,0.0,0.0,0.0,0.0,0.0,0.0,0.0,0.0,0.0,0.0,0.0,0.0,0.0,0.0,0.0,0.0,0.0,0.0,0.0,0.0,0.0,0.0,0.0,0.0,0.0,0.0,0.0,0.0,0.0,0.0,0.0,0.0,0.0,0.0,0.0,0.0,0.0,0.0,0.0,0.0,0.0,0.0,0.0,0.0,0.0,0.0,0.0,0.0,0.0,0.0,0.0,0.0,0.0,0.0,0.0,0.0,0.0,0.0,0.0,0.0,0.0,0.0,0.0,0.0,0.0,0.0,0.0,0.0,0.0,0.0,0.0,0.0,0.0,0.0,0.0,0.0,0.0,0.0,0.0,0.0,0.0,0.0,0.0,0.0,0.0,0.0,0.0,0.0,0.0,0.0,0.0,0.0,0.0,0.0,0.0,0.0,0.0,0.0,0.0,0.0,0.0,0.0,0.0,0.0,0.0,2.1447,2.0982,2.0086,0.0,0.0,0.0,0.0,0.0,0.0,0.0,0.0,0.0,0.0,0.0,0.0,0.0,0.0,0.0,0.0,0.0,0.0,0.0,0.0,0.0,0.0,0.0,0.0,0.0,0.0,0.0,0.0,0.0,0.0,0.0,0.0,0.0,0.0,0.0,0.0,0.0,0.0,0.0,0.0,0.0,0.0,0.0,0.0,0.0,0.0,0.0,0.0,0.0,0.0,0.0,0.0,0.0,0.0,0.0,0.0,0.0,0.0,0.0,0.0,0.0,0.0,0.0,0.0,0.0,0.0,0.0,0.0,0.0,0.0,0.0,0.0,0.0,0.0,0.0,0.0,0.0,0.0,0.0,0.0,0.0,0.0,0.0,0.0,0.0,0.0,0.0,0.0,0.0,0.0,0.0,0.0,0.0,0.0,0.0,0.0,0.0,0.0,0.0,0.0,0.0,0.0,0.0,0.0,0.0,0.0,0.0,0.0,0.0,0.0,2.246,2.2403,2.2353,0.0,2.0966,0.0,0.0,0.0,0.0,0.0,0.0,0.0,0.0,0.0,0.0,0.0,0.0,0.0,0.0,0.0,0.0,0.0,0.0,0.0,0.0,0.0,0.0,0.0,0.0,0.0,0.0,0.0,0.0,0.0,0.0,0.0,0.0,0.0,0.0,0.0,0.0,0.0,0.0,0.0,0.0,0.0,0.0,0.0,0.0,0.0,0.0,0.0,0.0,0.0,0.0,0.0,0.0,0.0,0.0,0.0,0.0,0.0,0.0,0.0,0.0,0.0,0.0,0.0,0.0,0.0,0.0,0.0,0.0,0.0,0.0,0.0,0.0,0.0,0.0,0.0,0.0,0.0,0.0,0.0,0.0,0.0,0.0,0.0,0.0,0.0,0.0,0.0,0.0,0.0,0.0,0.0,0.0,0.0,0.0,0.0,0.0,0.0,0.0,0.0,0.0,0.0,0.0,0.0,0.0,0.0,0.0,0.0,0.0,0.0,0.0,2.334,2.3296,2.2763,2.2269,0.0,0.0,0.0,0.0,0.0,0.0,0.0,0.0,0.0,0.0,0.0,0.0,0.0,0.0,0.0,0.0,0.0,0.0,0.0,0.0,0.0,0.0,0.0,0.0,0.0,0.0,0.0,0.0,0.0,0.0,0.0,0.0,0.0,0.0,0.0,0.0,0.0,0.0,0.0,0.0,0.0,0.0,0.0,0.0,0.0,0.0,0.0,0.0,0.0,0.0,0.0,0.0,0.0,0.0,0.0,0.0,0.0,0.0,0.0,0.0,0.0,0.0,0.0,0.0,0.0,0.0,0.0,0.0,0.0,0.0,0.0,0.0,0.0,0.0,0.0,0.0,0.0,0.0,0.0,0.0,0.0,0.0,0.0,0.0,0.0,0.0,0.0,0.0,0.0,0.0,0.0,0.0,0.0,0.0,0.0,0.0,0.0,0.0,0.0,0.0,0.0,0.0,0.0,0.0,0.0,0.0,0.0,0.0,0.0,0.0,2.463,2.4683,2.4793,2.3999,2.3385,2.302,0.0,0.0,0.0,0.0,0.0,0.0,0.0,0.0,0.0,0.0,0.0,0.0,0.0,0.0,0.0,0.0,0.0,0.0,0.0,0.0,0.0,0.0,0.0,0.0,0.0,0.0,0.0,0.0,0.0,0.0,0.0,0.0,0.0,0.0,0.0,0.0,0.0,0.0,0.0,0.0,0.0,0.0,0.0,0.0,0.0,0.0,0.0,0.0,0.0,0.0,0.0,0.0,0.0,0.0,0.0,0.0,0.0,0.0,0.0,0.0,0.0,0.0,0.0,0.0,0.0,0.0,0.0,0.0,0.0,0.0,0.0,0.0,0.0,0.0,0.0,0.0,0.0,0.0,0.0,0.0,0.0,0.0,0.0,0.0,0.0,0.0,0.0,0.0,0.0,0.0,0.0,0.0,0.0,0.0,0.0,0.0,0.0,0.0,0.0,0.0,0.0,0.0,0.0,0.0,0.0,0.0,0.0,0.0,2.6269,2.6388,2.672,2.7306,2.6523,2.5649,0.0,0.0,0.0,0.0,0.0,0.0,0.0,0.0,0.0,0.0,0.0,0.0,0.0,0.0,0.0,0.0,0.0,0.0,0.0,0.0,0.0,0.0,0.0,0.0,0.0,0.0,0.0,0.0,0.0,0.0,0.0,0.0,0.0,0.0,0.0,0.0,0.0,0.0,0.0,0.0,0.0,0.0,0.0,0.0,0.0,0.0,0.0,0.0,0.0,0.0,0.0,0.0,0.0,0.0,0.0,0.0,0.0,0.0,0.0,0.0,0.0,0.0,0.0,0.0,0.0,0.0,0.0,0.0,0.0,0.0,0.0,0.0,0.0,0.0,0.0,0.0,0.0,0.0,0.0,0.0,0.0,0.0,0.0,0.0,0.0,0.0,0.0,0.0,0.0,0.0,0.0,0.0,0.0,0.0,0.0,0.0,0.0,0.0,0.0,0.0,0.0,0.0,0.0,0.0,0.0,0.0,0.0,0.0,0.0,2.6469,2.701,2.7392,2.7622,2.6729,2.6084,0.0,0.0,0.0,0.0,0.0,0.0,0.0,0.0,0.0,0.0,0.0,0.0,0.0,0.0,0.0,0.0,0.0,0.0,0.0,0.0,0.0,0.0,0.0,0.0,0.0,0.0,0.0,0.0,0.0,0.0,0.0,0.0,0.0,0.0,0.0,0.0,0.0,0.0,0.0,0.0,0.0,0.0,0.0,0.0,0.0,0.0,0.0,0.0,0.0,0.0,0.0,0.0,0.0,0.0,0.0,0.0,0.0,0.0,0.0,0.0,0.0,0.0,0.0,0.0,0.0,0.0,0.0,0.0,0.0,0.0,0.0,0.0,0.0,0.0,0.0,0.0,0.0,0.0,0.0,0.0,0.0,0.0,0.0,0.0,0.0,0.0,0.0,0.0,0.0,0.0,0.0,0.0,0.0,0.0,0.0,0.0,0.0,0.0,0.0,0.0,0.0,0.0,0.0,0.0,0.0,0.0,0.0,0.0,0.0,2.7363,0.0,2.8536,2.8492,2.7631,2.6985,0.0,0.0,0.0,0.0,0.0,0.0,0.0,0.0,0.0,0.0,0.0,0.0,0.0,0.0,0.0,0.0,0.0,0.0,0.0,0.0,0.0,0.0,0.0,0.0,0.0,0.0,0.0,0.0,0.0,0.0,0.0,0.0,0.0,0.0,0.0,0.0,0.0,0.0,0.0,0.0,0.0,0.0,0.0,0.0,0.0,0.0,0.0,0.0,0.0,0.0,0.0,0.0,0.0,0.0,0.0,0.0,0.0,0.0,0.0,0.0,0.0,0.0,0.0,0.0,0.0,0.0,0.0,0.0,0.0,0.0,0.0,0.0,0.0,0.0,0.0,0.0,0.0,0.0,0.0,0.0,0.0,0.0,0.0,0.0,0.0,0.0,0.0,0.0,0.0,0.0,0.0,0.0,0.0,0.0,0.0,0.0,0.0,0.0,0.0,0.0,0.0,0.0,0.0,0.0,0.0,0.0,0.0,0.0,2.7489,2.9078,2.9882,3.0232,3.0195,2.933,2.8432,0.0,0.0,0.0,0.0,0.0,0.0,0.0,0.0,0.0,0.0,0.0,0.0,0.0,0.0,0.0,0.0,0.0,0.0,0.0,0.0,0.0,0.0,0.0,0.0,0.0,0.0,0.0,0.0,0.0,0.0,0.0,0.0,0.0,0.0,0.0,0.0,0.0,0.0,0.0,0.0,0.0,0.0,0.0,0.0,0.0,0.0,0.0,0.0,0.0,0.0,0.0,0.0,0.0,0.0,0.0,0.0,0.0,0.0,0.0,0.0,0.0,0.0,0.0,0.0,0.0,0.0,0.0,0.0,0.0,0.0,0.0,0.0,0.0,0.0,0.0,0.0,0.0,0.0,0.0,0.0,0.0,0.0,0.0,0.0,0.0,0.0,0.0,0.0,0.0,0.0,0.0,0.0,0.0,0.0,0.0,0.0,0.0,0.0,0.0,0.0,0.0,0.0,0.0,0.0,0.0,0.0,0.0,0.0,0.0,3.0876,3.1091,3.1181,3.1159,3.0281,2.9118,0.0,0.0,0.0,0.0,0.0,0.0,0.0,0.0,0.0,0.0,0.0,0.0,0.0,0.0,0.0,0.0,0.0,0.0,0.0,0.0,0.0,0.0,0.0,0.0,0.0,0.0,0.0,0.0,0.0,0.0,0.0,0.0,0.0,0.0,0.0,0.0,0.0,0.0,0.0,0.0,0.0,0.0,0.0,0.0,0.0,0.0,0.0,0.0,0.0,0.0,0.0,0.0,0.0,0.0,0.0,0.0,0.0,0.0,0.0,0.0,0.0,0.0,0.0,0.0,0.0,0.0,0.0,0.0,0.0,0.0,0.0,0.0,0.0,0.0,0.0,0.0,0.0,0.0,0.0,0.0,0.0,0.0,0.0,0.0,0.0,0.0,0.0,0.0,0.0,0.0,0.0,0.0,0.0,0.0,0.0,0.0,0.0,0.0,0.0,0.0,0.0,0.0,0.0,0.0,0.0,0.0,0.0,0.0,0.0,3.2161,3.2134,3.1958,3.1645,3.1034,2.9902,2.8214,0.0,0.0,0.0,0.0,0.0,0.0,0.0,0.0,0.0,0.0,0.0,0.0,0.0,0.0,0.0,0.0,0.0,0.0,0.0,0.0,0.0,0.0,0.0,0.0,0.0,0.0,0.0,0.0,0.0,0.0,0.0,0.0,0.0,0.0,0.0,0.0,0.0,0.0,0.0,0.0,0.0,0.0,0.0,0.0,0.0,0.0,0.0,0.0,0.0,0.0,0.0,0.0,0.0,0.0,0.0,0.0,0.0,0.0,0.0,0.0,0.0,0.0,0.0,0.0,0.0,0.0,0.0,0.0,0.0,0.0,0.0,0.0,0.0,0.0,0.0,0.0,0.0,0.0,0.0,0.0,0.0,0.0,0.0,0.0,0.0,0.0,0.0,0.0,0.0,0.0,0.0,0.0,0.0,0.0,0.0,0.0,0.0,0.0,0.0,0.0,0.0,0.0,0.0,0.0,0.0,0.0,0.0,0.0,3.3076,3.3124,3.2748,3.1868,3.1715,3.081,0.0,0.0,0.0,0.0,0.0,0.0,0.0,0.0,0.0,0.0,0.0,0.0,0.0,0.0,0.0,0.0,0.0,0.0,0.0,0.0,0.0,0.0,0.0,0.0,0.0,0.0,0.0,0.0,0.0,0.0,0.0,0.0,0.0,0.0,0.0,0.0,0.0,0.0,0.0,0.0,0.0,0.0,0.0,0.0,0.0,0.0,0.0,0.0,0.0,0.0,0.0,0.0,0.0,0.0,0.0,0.0,0.0,0.0,0.0,0.0,0.0,0.0,0.0,0.0,0.0,0.0,0.0,0.0,0.0,0.0,0.0,0.0,0.0,0.0,0.0,0.0,0.0,0.0,0.0,0.0,0.0,0.0,0.0,0.0,0.0,0.0,0.0,0.0,0.0,0.0,0.0,0.0,0.0,0.0,0.0,0.0,0.0,0.0,0.0,0.0,0.0,0.0,0.0,0.0,0.0,0.0,0.0,0.0,0.0,3.4081,3.4654,3.448,3.3592,3.29,3.1744,0.0,0.0,0.0,0.0,0.0,0.0,0.0,0.0,0.0,0.0,0.0,0.0,0.0,0.0,0.0,0.0,0.0,0.0,0.0,0.0,0.0,0.0,0.0,0.0,0.0,0.0,0.0,0.0,0.0,0.0,0.0,0.0,0.0,0.0,0.0,0.0,0.0,0.0,0.0,0.0,0.0,0.0,0.0,0.0,0.0,0.0,0.0,0.0,0.0,0.0,0.0,0.0,0.0,0.0,0.0,0.0,0.0,0.0,0.0,0.0,0.0,0.0,0.0,0.0,0.0,0.0,0.0,0.0,0.0,0.0,0.0,0.0,0.0,0.0,0.0,0.0,0.0,0.0,0.0,0.0,0.0,0.0,0.0,0.0,0.0,0.0,0.0,0.0,0.0,0.0,0.0,0.0,0.0,0.0,0.0,0.0,0.0,0.0,0.0,0.0,0.0,0.0,0.0,0.0,0.0,0.0,0.0,0.0,3.3606,3.4501,3.5275,3.5413,3.4836,3.361,3.2288,0.0,0.0,0.0,0.0,0.0,0.0,0.0,0.0,0.0,0.0,0.0,0.0,0.0,0.0,0.0,0.0,0.0,0.0,0.0,0.0,0.0,0.0,0.0,0.0,0.0,0.0,0.0,0.0,0.0,0.0,0.0,0.0,0.0,0.0,0.0,0.0,0.0,0.0,0.0,0.0,0.0,0.0,0.0,0.0,0.0,0.0,0.0,0.0,0.0,0.0,0.0,0.0,0.0,0.0,0.0,0.0,0.0,0.0,0.0,0.0,0.0,0.0,0.0,0.0,0.0,0.0,0.0,0.0,0.0,0.0,0.0,0.0,0.0,0.0,0.0,0.0,0.0,0.0,0.0,0.0,0.0,0.0,0.0,0.0,0.0,0.0,0.0,0.0,0.0,0.0,0.0,0.0,0.0,0.0,0.0,0.0,0.0,0.0,0.0,0.0,0.0,0.0,0.0,0.0,0.0,0.0,0.0,0.0,3.3808,3.4781,3.5534,3.5926,3.5798,3.4108,3.2754,0.0,0.0,0.0,0.0,0.0,0.0,0.0,0.0,0.0,0.0,0.0,0.0,0.0,0.0,0.0,0.0,0.0,0.0,0.0,0.0,0.0,0.0,0.0,0.0,0.0,0.0,0.0,0.0,0.0,0.0,0.0,0.0,0.0,0.0,0.0,0.0,0.0,0.0,0.0,0.0,0.0,0.0,0.0,0.0,0.0,0.0,0.0,0.0,0.0,0.0,0.0,0.0,0.0,0.0,0.0,0.0,0.0,0.0,0.0,0.0,0.0,0.0,0.0,0.0,0.0,0.0,0.0,0.0,0.0,0.0,0.0,0.0,0.0,0.0,0.0,0.0,0.0,0.0,0.0,0.0,0.0,0.0,0.0,0.0,0.0,0.0,0.0,0.0,0.0,0.0,0.0,0.0,0.0,0.0,0.0,0.0,0.0,0.0,0.0,0.0,0.0,0.0,0.0,0.0,0.0,0.0,0.0,0.0,3.5073,3.6593,3.6768,3.6816,3.6807,3.5047,3.3677,0.0,0.0,0.0,0.0,0.0,0.0,0.0,0.0,0.0,0.0,0.0,0.0,0.0,0.0,0.0,0.0,0.0,0.0,0.0,0.0,0.0,0.0,0.0,0.0,0.0,0.0,0.0,0.0,0.0,0.0,0.0,0.0,0.0,0.0,0.0,0.0,0.0,0.0,0.0,0.0,0.0,0.0,0.0,0.0,0.0,0.0,0.0,0.0,2.7805,0.0,0.0,0.0,0.0,0.0,0.0,0.0,0.0,0.0,0.0,0.0,0.0,0.0,0.0,0.0,0.0,0.0,0.0,0.0,0.0,0.0,0.0,0.0,0.0,0.0,0.0,0.0,0.0,0.0,0.0,0.0,0.0,0.0,0.0,0.0,0.0,0.0,0.0,0.0,0.0,0.0,0.0,0.0,0.0,0.0,0.0,0.0,0.0,0.0,0.0,0.0,0.0,0.0,0.0,0.0,0.0,0.0,0.0,0.0,3.5901,3.7147,3.7562,3.7577,3.7146,3.6192,3.4831,0.0,0.0,0.0,0.0,0.0,0.0,0.0,0.0,0.0,0.0,0.0,0.0,0.0,0.0,0.0,0.0,0.0,0.0,0.0,0.0,0.0,0.0,0.0,0.0,0.0,0.0,0.0,0.0,0.0,0.0,0.0,0.0,0.0,0.0,0.0,0.0,0.0,0.0,0.0,0.0,0.0,0.0,0.0,0.0,0.0,0.0,0.0,0.0,0.0,0.0,0.0,0.0,0.0,0.0,0.0,0.0,0.0,0.0,0.0,0.0,0.0,0.0,0.0,0.0,0.0,0.0,0.0,0.0,0.0,0.0,0.0,0.0,0.0,0.0,0.0,0.0,0.0,0.0,0.0,0.0,0.0,0.0,0.0,0.0,0.0,0.0,0.0,0.0,0.0,0.0,0.0,0.0,0.0,0.0,0.0,0.0,0.0,0.0,0.0,0.0,0.0,0.0,0.0,0.0,0.0,0.0,0.0,3.5302,3.6598,3.7378,3.8265,3.8362,3.7627,3.74,3.6133,3.3616,0.0,0.0,0.0,0.0,0.0,0.0,0.0,0.0,0.0,0.0,0.0,0.0,0.0,0.0,0.0,0.0,0.0,0.0,0.0,0.0,0.0,0.0,0.0,0.0,0.0,0.0,0.0,0.0,0.0,0.0,0.0,0.0,0.0,0.0,0.0,0.0,0.0,0.0,2.6974,2.8445,0.0,0.0,0.0,0.0,0.0,0.0,0.0,0.0,3.0001,0.0,0.0,0.0,0.0,0.0,0.0,0.0,0.0,0.0,0.0,0.0,0.0,0.0,0.0,0.0,0.0,0.0,0.0,0.0,0.0,0.0,0.0,0.0,0.0,0.0,0.0,0.0,0.0,0.0,0.0,0.0,0.0,0.0,0.0,0.0,0.0,0.0,0.0,0.0,0.0,0.0,0.0,0.0,0.0,0.0,0.0,0.0,0.0,0.0,0.0,0.0,0.0,0.0,0.0,0.0,0.0,3.4464,3.6184,3.7473,3.8291,3.915,3.9524,3.936,3.8598,3.7313,3.5417,0.0,0.0,0.0,0.0,0.0,0.0,0.0,0.0,0.0,0.0,0.0,0.0,0.0,0.0,0.0,0.0,0.0,0.0,0.0,0.0,0.0,0.0,0.0,0.0,0.0,0.0,0.0,0.0,0.0,0.0,0.0,0.0,0.0,0.0,0.0,0.0,0.0,0.0,0.0,3.0276,3.1361,0.0,0.0,0.0,0.0,0.0,0.0,0.0,0.0,3.1086,0.0,0.0,0.0,0.0,0.0,0.0,0.0,0.0,0.0,0.0,0.0,0.0,0.0,0.0,0.0,0.0,0.0,0.0,0.0,0.0,0.0,0.0,0.0,0.0,0.0,0.0,0.0,0.0,0.0,0.0,0.0,0.0,0.0,0.0,0.0,0.0,0.0,0.0,0.0,0.0,0.0,0.0,0.0,0.0,0.0,0.0,0.0,0.0,0.0,0.0,0.0,0.0,0.0,0.0,0.0,3.537,3.7094,3.8385,3.9205,4.0022,4.0246,3.9796,3.8917,3.7836,0.0,0.0,0.0,0.0,0.0,0.0,0.0,0.0,0.0,0.0,0.0,0.0,0.0,0.0,0.0,0.0,0.0,0.0,0.0,0.0,0.0,0.0,0.0,0.0,0.0,0.0,0.0,0.0,0.0,0.0,0.0,0.0,0.0,0.0,0.0,0.0,0.0,0.0,0.0,0.0,3.128,3.1947,3.2401,0.0,0.0,0.0,0.0,0.0,0.0,3.2485,3.2168,0.0,0.0,0.0,0.0,0.0,0.0,0.0,0.0,0.0,0.0,0.0,0.0,0.0,0.0,0.0,0.0,0.0,0.0,0.0,0.0,0.0,0.0,0.0,0.0,0.0,0.0,0.0,0.0,0.0,0.0,0.0,0.0,0.0,0.0,0.0,0.0,0.0,0.0,0.0,0.0,0.0,0.0,0.0,0.0,0.0,0.0,0.0,0.0,0.0,0.0,0.0,0.0,0.0,0.0,0.0,3.6236,3.7805,3.9018,3.9877,4.0694,4.0768,4.0058,3.9028,3.8187,0.0,0.0,0.0,0.0,0.0,0.0,0.0,0.0,0.0,0.0,0.0,0.0,0.0,0.0,0.0,0.0,0.0,0.0,0.0,0.0,0.0,0.0,0.0,0.0,0.0,0.0,0.0,0.0,0.0,0.0,0.0,0.0,0.0,0.0,0.0,0.0,0.0,0.0,0.0,0.0,0.0,3.2394,3.325,3.353,0.0,0.0,0.0,0.0,3.3386,3.3362,0.0,0.0,0.0,0.0,0.0,0.0,0.0,0.0,0.0,0.0,0.0,0.0,0.0,0.0,0.0,0.0,0.0,0.0,0.0,0.0,0.0,0.0,0.0,0.0,0.0,0.0,0.0,0.0,0.0,0.0,0.0,0.0,0.0,0.0,0.0,0.0,0.0,0.0,0.0,0.0,0.0,0.0,0.0,0.0,0.0,0.0,0.0,0.0,0.0,0.0,0.0,0.0,0.0,0.0,0.0,0.0,3.7068,3.8084,3.9022,3.9881,4.07,4.1049,4.0922,3.9354,3.8443,0.0,0.0,0.0,0.0,0.0,0.0,0.0,0.0,0.0,0.0,0.0,0.0,0.0,0.0,0.0,0.0,0.0,0.0,0.0,0.0,0.0,0.0,0.0,0.0,0.0,0.0,0.0,0.0,0.0,0.0,0.0,0.0,0.0,0.0,0.0,0.0,0.0,0.0,0.0,0.0,0.0,3.3333,3.4216,3.4992,3.5497,0.0,0.0,3.5223,3.4449,3.435,0.0,0.0,0.0,0.0,0.0,0.0,0.0,0.0,0.0,0.0,0.0,0.0,0.0,0.0,0.0,0.0,0.0,0.0,0.0,0.0,0.0,0.0,0.0,0.0,0.0,0.0,0.0,0.0,0.0,0.0,0.0,0.0,0.0,0.0,0.0,0.0,0.0,0.0,0.0,0.0,0.0,0.0,0.0,0.0,0.0,0.0,0.0,0.0,0.0,0.0,0.0,0.0,0.0,0.0,0.0,3.5426,3.7967,3.8398,3.9257,4.0585,4.0936,4.1091,4.1088,3.9912,3.9045,0.0,0.0,0.0,0.0,0.0,0.0,0.0,0.0,0.0,0.0,0.0,0.0,0.0,0.0,0.0,0.0,0.0,0.0,0.0,0.0,0.0,0.0,0.0,0.0,0.0,0.0,0.0,0.0,0.0,0.0,0.0,0.0,0.0,0.0,0.0,0.0,0.0,0.0,0.0,0.0,0.0,0.0,3.5845,3.6354,0.0,0.0,0.0,3.7016,3.6109,0.0,0.0,0.0,0.0,0.0,0.0,0.0,0.0,0.0,0.0,0.0,0.0,0.0,0.0,0.0,0.0,0.0,0.0,0.0,0.0,0.0,0.0,0.0,0.0,0.0,0.0,0.0,0.0,0.0,0.0,0.0,0.0,0.0,0.0,0.0,0.0,0.0,0.0,0.0,0.0,0.0,0.0,0.0,0.0,0.0,0.0,0.0,0.0,0.0,0.0,0.0,0.0,0.0,0.0,0.0,0.0,0.0,3.8555,3.8828,3.9765,4.1445,4.1445,4.1406,4.1406,4.0622,0.0,0.0,0.0,0.0,0.0,0.0,0.0,0.0,0.0,0.0,0.0,0.0,0.0,0.0,0.0,0.0,0.0,0.0,0.0,0.0,0.0,0.0,0.0,0.0,0.0,0.0,0.0,2.7633,0.0,0.0,0.0,0.0,0.0,0.0,0.0,0.0,0.0,0.0,0.0,0.0,0.0,0.0,3.5572,3.7273,3.7548,3.7783,0.0,0.0,3.8249,3.757,3.7283,3.6686,0.0,0.0,0.0,0.0,0.0,0.0,0.0,0.0,0.0,0.0,0.0,0.0,0.0,0.0,0.0,0.0,0.0,0.0,0.0,0.0,0.0,0.0,0.0,0.0,0.0,0.0,0.0,0.0,0.0,0.0,0.0,0.0,0.0,0.0,0.0,0.0,0.0,0.0,0.0,0.0,0.0,0.0,0.0,0.0,0.0,0.0,0.0,0.0,0.0,0.0,0.0,0.0,0.0,0.0,3.6792,3.8549,3.9409,4.0619,4.222,4.2302,4.2303,4.2303,4.1484,4.0624,0.0,0.0,0.0,0.0,0.0,0.0,0.0,0.0,0.0,0.0,0.0,0.0,0.0,0.0,0.0,0.0,0.0,0.0,0.0,0.0,0.0,0.0,0.0,0.0,0.0,0.0,0.0,0.0,0.0,0.0,0.0,0.0,0.0,0.0,0.0,0.0,0.0,0.0,0.0,0.0,0.0,3.6445,3.8176,3.8413,3.8413,0.0,3.8529,3.8488,3.8441,3.7728,3.717,3.7043,0.0,0.0,0.0,0.0,0.0,0.0,0.0,0.0,0.0,0.0,0.0,0.0,0.0,0.0,0.0,0.0,0.0,0.0,0.0,0.0,0.0,0.0,0.0,0.0,0.0,0.0,0.0,0.0,0.0,0.0,0.0,0.0,0.0,0.0,0.0,0.0,0.0,0.0,0.0,0.0,0.0,0.0,0.0,0.0,0.0,0.0,0.0,0.0,0.0,0.0,0.0,0.0,0.0,3.7368,3.854,3.9909,4.12,4.2333,4.2923,4.3198,4.3198,4.2341,4.1523,0.0,0.0,0.0,0.0,0.0,0.0,0.0,0.0,0.0,0.0,0.0,0.0,0.0,0.0,0.0,0.0,0.0,0.0,0.0,0.0,0.0,0.0,0.0,0.0,0.0,0.0,0.0,0.0,3.0556,3.0996,3.1481,0.0,0.0,0.0,0.0,0.0,0.0,0.0,0.0,0.0,0.0,3.7957,3.9212,3.9332,0.0,0.0,4.0114,3.9918,3.9446,3.905,3.8459,3.7437,3.6724,0.0,0.0,0.0,0.0,0.0,0.0,0.0,0.0,0.0,0.0,0.0,0.0,0.0,0.0,0.0,0.0,0.0,0.0,0.0,0.0,0.0,0.0,0.0,0.0,0.0,0.0,0.0,0.0,0.0,0.0,0.0,0.0,0.0,0.0,0.0,0.0,0.0,0.0,0.0,0.0,0.0,0.0,0.0,0.0,0.0,0.0,0.0,0.0,0.0,0.0,0.0,0.0,3.8436,3.9256,4.0709,4.2002,4.3134,4.3769,4.4086,4.4086,4.3504,4.2766,0.0,0.0,0.0,0.0,0.0,0.0,0.0,0.0,0.0,0.0,0.0,0.0,0.0,0.0,0.0,0.0,0.0,0.0,0.0,0.0,0.0,0.0,0.0,0.0,0.0,0.0,0.0,0.0,3.158,3.182,3.2452,0.0,0.0,0.0,0.0,0.0,0.0,0.0,0.0,0.0,0.0,3.9609,4.0507,4.0584,4.0818,4.1404,4.1248,4.0897,4.0351,4.0,3.9413,3.8238,0.0,0.0,0.0,0.0,0.0,0.0,0.0,0.0,0.0,0.0,0.0,0.0,0.0,0.0,0.0,0.0,0.0,0.0,0.0,0.0,0.0,0.0,0.0,0.0,0.0,0.0,0.0,2.8019,0.0,0.0,2.8203,0.0,0.0,0.0,0.0,0.0,0.0,0.0,0.0,0.0,0.0,0.0,0.0,0.0,0.0,0.0,0.0,0.0,0.0,0.0,0.0,0.0,0.0,4.0055,4.0909,4.1827,4.3122,4.476,4.4943,4.4995,4.5035,4.4976,4.4554,4.3616,0.0,0.0,0.0,0.0,0.0,0.0,0.0,0.0,0.0,0.0,0.0,0.0,0.0,0.0,0.0,0.0,0.0,0.0,0.0,0.0,0.0,0.0,0.0,0.0,0.0,0.0,3.3198,3.3359,3.3359,0.0,0.0,0.0,0.0,0.0,0.0,0.0,0.0,0.0,3.9369,4.0499,4.1355,4.2203,4.2357,4.2318,4.2357,4.1656,4.1115,4.1126,4.0384,3.98,0.0,0.0,0.0,0.0,0.0,0.0,0.0,0.0,0.0,0.0,0.0,0.0,0.0,0.0,0.0,0.0,0.0,0.0,0.0,0.0,0.0,0.0,0.0,0.0,0.0,0.0,0.0,3.1443,3.1471,0.0,0.0,0.0,0.0,0.0,0.0,0.0,0.0,0.0,0.0,0.0,3.7219,3.7514,0.0,0.0,0.0,0.0,0.0,0.0,0.0,0.0,0.0,0.0,0.0,0.0,4.0634,4.0984,4.2934,4.4509,4.5675,4.6297,4.69,4.7406,4.6375,4.5148,4.3764,0.0,0.0,0.0,0.0,0.0,0.0,0.0,0.0,0.0,0.0,0.0,0.0,0.0,0.0,0.0,0.0,0.0,0.0,0.0,0.0,0.0,0.0,0.0,0.0,0.0,3.3086,0.0,0.0,0.0,0.0,0.0,0.0,0.0,0.0,0.0,0.0,0.0,3.9709,4.0559,4.1878,4.2882,4.314,4.321,4.3205,0.0,0.0,0.0,0.0,0.0,0.0,0.0,0.0,0.0,0.0,0.0,0.0,0.0,0.0,4.1601,4.0427,4.0228,4.0226,4.0267,0.0,0.0,0.0,0.0,0.0,0.0,0.0,0.0,0.0,0.0,0.0,0.0,0.0,0.0,3.4145,0.0,3.4216,0.0,0.0,0.0,0.0,0.0,0.0,0.0,0.0,3.8224,3.9034,3.9841,4.0122,4.022,0.0,4.0211,3.9614,0.0,0.0,0.0,0.0,0.0,0.0,0.0,0.0,4.2074,4.2695,4.4339,4.576,4.6924,4.7507,4.8072,4.8617,4.7597,4.6271,4.4639,4.3478,4.2472,0.0,0.0,0.0,0.0,0.0,0.0,0.0,0.0,0.0,0.0,0.0,0.0,0.0,0.0,0.0,0.0,0.0,0.0,0.0,0.0,0.0,0.0,0.0,3.4832,0.0,0.0,0.0,0.0,0.0,0.0,0.0,0.0,0.0,3.8659,4.003,4.1271,4.1875,4.3151,4.3994,4.4008,0.0,0.0,0.0,0.0,0.0,0.0,0.0,4.3389,4.2912,4.2838,4.272,4.2483,4.3107,4.3775,4.414,0.0,0.0,4.2381,4.2031,4.1992,4.2031,4.1992,4.2109,4.2382,4.246,4.2693,0.0,0.0,0.0,0.0,0.0,0.0,0.0,0.0,3.6036,3.6007,0.0,3.6067,0.0,0.0,0.0,0.0,3.7413,3.8233,0.0,0.0,4.0755,4.1596,4.2383,4.3125,4.3534,4.3569,4.352,4.3479,4.323,4.0201,0.0,0.0,0.0,0.0,0.0,0.0,4.4262,4.5735,4.5998,4.6869,4.846,4.861,4.8624,4.8669,4.8645,4.7888,4.6388,4.6207,4.505,4.2646,4.1683,0.0,0.0,0.0,0.0,0.0,0.0,0.0,0.0,0.0,0.0,0.0,0.0,0.0,0.0,0.0,0.0,0.0,0.0,0.0,0.0,3.6284,0.0,0.0,0.0,0.0,0.0,0.0,0.0,0.0,0.0,0.0,4.1162,4.1174,4.1746,4.3383,0.0,0.0,0.0,0.0,4.4829,4.4867,4.416,4.3709,4.3722,4.369,4.3745,4.3785,0.0,0.0,4.4876,4.5655,4.6442,4.7322,4.7416,4.674,4.4361,4.3936,4.3938,4.3938,4.3977,4.4171,4.4873,4.5107,4.5341,4.1825,0.0,0.0,0.0,0.0,3.9733,3.9269,3.8689,3.8656,3.8349,3.7845,3.7849,0.0,0.0,0.0,0.0,0.0,0.0,4.1293,4.154,4.2399,4.3235,4.4006,4.4246,4.4696,4.5273,4.521,4.5167,4.5063,4.4153,4.307,4.1892,0.0,0.0,0.0,0.0,4.5275,4.5781,4.7016,4.8159,4.9289,4.9347,4.9404,4.9452,4.9434,4.8976,4.7964,4.7343,4.6466,4.5176,4.4285,0.0,0.0,0.0,0.0,0.0,0.0,0.0,0.0,0.0,0.0,0.0,0.0,0.0,0.0,0.0,0.0,0.0,0.0,0.0,3.7348,3.7791,3.8163,0.0,0.0,0.0,0.0,0.0,0.0,0.0,0.0,0.0,4.4422,4.4015,4.404,0.0,0.0,4.6788,4.7329,4.74,4.74,4.74,4.7203,0.0,4.7059,4.7068,4.7079,4.7155,4.716,4.7276,4.7507,4.7743,4.7991,4.8271,4.8284,4.8032,4.7492,4.73,4.7317,4.7358,4.7358,4.7396,4.7661,4.7699,4.7776,4.4413,4.3867,4.2652,4.2142,4.2142,4.2142,4.1831,4.1325,4.1327,4.1055,4.0625,4.0623,4.0578,4.0529,4.0517,0.0,0.0,0.0,4.3448,4.3719,4.4562,4.5393,4.6126,4.6155,4.64,4.69,4.6883,4.6846,4.6789,4.6781,4.6233,4.5256,0.0,0.0,4.4747,4.6058,4.6868,4.7254,4.8243,4.9186,5.0044,5.0132,5.0147,5.021,5.0227,4.9886,4.9071,4.858,4.7984,4.7168,4.6318,4.5241,0.0,0.0,0.0,0.0,0.0,0.0,0.0,0.0,0.0,0.0,0.0,3.5033,3.538,0.0,0.0,0.0,3.8165,3.9001,3.9887,3.9898,0.0,0.0,0.0,0.0,0.0,0.0,0.0,4.4276,4.5099,4.5916,4.671,4.6457,4.6339,4.6836,4.7378,4.7872,4.8375,0.0,4.841,4.841,4.841,4.8421,4.8417,4.8424,4.8434,4.8506,4.8823,4.8981,4.902,4.9265,4.964,5.0001,5.0098,5.0236,5.0627,5.0717,5.0256,4.9033,4.8765,4.8841,4.9184,4.9261,4.9375,4.6505,4.6351,4.4762,4.4023,4.3906,4.3906,4.3867,4.3788,4.3787,4.3744,4.3698,4.3771,4.3792,4.3792,4.388,0.0,4.3836,4.4688,4.5502,4.6204,4.6936,4.7717,4.8467,4.8392,4.8469,4.8623,4.8582,4.8639,4.8711,4.8634,4.8612,4.8573,4.788,4.7357,4.7165,4.794,4.8789,4.9556,4.9671,5.0104,5.0966,5.1005,5.1027,5.1108,5.1102,5.0767,5.0065,4.9989,4.9598,4.881,4.7942,4.7113,4.6285,0.0,0.0,0.0,0.0,0.0,0.0,0.0,0.0,0.0,0.0,0.0,0.0,0.0,0.0,0.0,4.0677,0.0,4.2317,4.2413,0.0,0.0,0.0,4.3583,4.3583,4.4334,4.5101,4.592,0.0,0.0,4.8291,4.8484,4.8613,4.8569,4.8465,4.8453,4.8608,4.8686,4.8604,4.8887,4.8763,4.8733,4.9052,4.8983,4.9034,4.9104,4.9417,4.9966,5.0043,5.0616,5.147,5.213,5.2436,5.2622,5.3508,5.3449,5.2738,4.9759,4.9235,4.9434,5.0254,5.0449,5.0641,4.8219,4.8189,4.7768,4.6848,4.5693,4.5693,4.53,4.4708,4.4701,4.43,4.3701,4.4313,4.4941,4.5546,4.6143,4.6372,4.6358,4.723,4.7685,4.7847,4.7955,4.8454,4.9229,4.9204,4.9929,5.1163,5.1162,5.1447,5.2064,5.205,5.2025,5.1986,5.1804,5.0423,4.796,4.8696,4.9547,5.0394,5.1001,5.1795,5.2647,5.269,5.2709,5.2711,5.272,5.2679,5.2502,5.1962,5.1265,5.0449,4.9637,4.8819,4.7952,4.633,0.0,0.0,0.0,0.0,0.0,0.0,0.0,0.0,0.0,3.9474,4.0265,0.0,4.1378,0.0,4.2906,4.3844,4.4014,4.4567,0.0,0.0,4.5738,4.6136,4.6136,4.6893,4.7498,4.7695,4.8416,4.8977,4.9212,5.033,5.113,5.102,4.9962,4.9697,5.0957,5.1193,5.142,5.1879,5.1956,5.2119,5.2008,5.2133,5.2017,5.2141,5.2262,5.2416,5.2416,5.2579,5.2837,5.3082,5.32,5.3313,5.3549,5.3585,5.3416,5.2599,5.2445,5.2558,5.2791,5.2794,5.2833,4.8754,4.8764,4.8734,4.8197,4.7353,4.7372,4.7098,4.6653,4.6646,4.636,4.5912,4.6339,4.6797,4.7175,4.76,4.7749,4.7776,4.8632,4.8968,4.8948,4.9637,5.0177,5.0617,5.098,5.1664,5.2589,5.2565,5.2786,5.3243,5.3213,5.3197,5.3197,5.3197,5.2236,5.0471,5.0851,5.1318,5.1818,5.2236,5.2751,5.3243,5.3248,5.3258,5.3244,5.3273,5.3296,5.3363,5.294,5.2318,5.1531,5.1072,5.0293,4.9069,4.8118,4.7243,0.0,0.0,0.0,0.0,0.0,0.0,0.0,0.0,0.0,0.0,0.0,4.3955,4.426,4.5504,4.6288,4.627,4.6634,4.6928,4.6897,4.7284,4.7533,4.7533,4.8595,4.9357,4.9357,5.0393,5.1154,5.1169,5.1939,5.254,5.2472,5.1703,5.1472,5.2319,5.2589,5.2748,5.3167,5.3249,5.3282,5.3249,5.3244,5.3249,5.3244,5.3244,5.3249,5.3287,5.3268,5.3407,5.3783,5.394,5.413,5.4469,5.4607,5.4628,5.4632,5.466,5.4409,5.3818,5.3641,5.3676,4.9006,4.9011,4.8989,4.8974,4.8939,4.9042,4.8937,4.8686,4.8686,4.8753,4.8844,4.8766,4.8789,4.8829,4.8731,4.8719,4.8759,4.9563,4.9864,4.9907,5.1442,5.2156,5.2189,5.2877,5.3241,5.3356,5.3351,5.3395,5.351,5.351,5.3549,5.351,5.3505,5.3505,5.351,5.3505,5.3472,5.3356,5.3472,5.3549,5.3505,5.3505,5.3505,5.351,5.3556,5.3586,5.3586,5.3509,5.3147,5.2453,5.2309,5.1601,5.0164,4.9896,4.91,0.0,4.7384,0.0,0.0,0.0,0.0,0.0,0.0,0.0,0.0,4.5775,4.6482,4.7105,4.8042,4.8604,4.86,4.8789,4.8943,4.893,4.8899,4.8834,4.8915,5.0154,5.1015,5.1015,5.2318,5.3197,5.3126,5.328,5.3356,5.3356,5.3472,5.3477,5.3549,5.3477,5.3439,5.3472,5.3505,5.3751,5.3674,5.3631,5.3592,5.3592,5.3631,5.351,5.3626,5.3666,5.3894,5.4477,5.4704,5.5003,5.5774,5.5861,5.5861,5.5794,5.5765,5.5391,5.4355,5.4041,5.3898,5.0658,5.0642,5.0645,5.0631,5.0638,5.0658,4.9893,4.8624,4.8624,4.8999,4.955,4.9514,4.9847,5.043,5.0422,5.0417,5.0375,5.1175,5.1533,5.1558,5.2507,5.2987,5.2982,5.3126,5.3587,5.4241,5.4241,5.4587,5.5203,5.5203,5.5203,5.5241,5.5247,5.5241,5.5241,0.0,0.0,0.0,5.4895,5.5203,5.5208,5.5241,5.5247,5.5241,5.5252,0.0,5.5224,5.4611,5.4212,5.4019,5.3412,0.0,0.0,0.0,0.0,0.0,0.0,0.0,0.0,0.0,0.0,0.0,4.9414,4.9079,4.775,4.775,4.7896,4.8077,4.9457,5.0327,5.0252,5.1524,5.2314,5.2271,5.2256,5.2251,5.2289,5.2554,5.2736,5.2736,5.3005,5.3197,5.3313,5.378,5.4241,5.428,5.4824,5.5208,5.5164,5.4626,5.4511,5.5088,5.5088,5.5203,5.5203,5.5164,5.5049,5.5241,5.5241,5.5164,5.5131,5.5175,5.5224,5.5416,5.5535,5.5576,5.5807,5.587,5.589,5.5895,5.5895,5.5832,5.5523,5.545,5.545,5.234,5.2314,5.1868,5.1689,0.0,5.1175,5.0769,5.0301,4.9989,5.0031,5.0329,5.029,5.0739,5.149,5.1447,5.1652,5.2053,5.242,5.2589,5.2622,5.3449,5.3818,5.3857,5.4241,5.4664,5.5088,5.5093,5.5285,5.567,5.5708,5.5708,5.5708,5.5708,5.5708,5.5708,5.5708,5.5516,5.5093,5.5478,5.5708,5.5708,5.5708,5.5708,5.5708,5.5708,0.0,0.0,0.0,0.0,0.0,0.0,0.0,0.0,5.243,0.0,5.1963,5.1193,5.073,5.073,5.073,5.0884,5.1308,5.1737,5.163,5.081,5.0749,5.0692,5.073,5.1501,5.1953,5.1973,5.2743,5.3233,5.3203,5.3197,5.3197,5.3236,5.3587,5.3857,5.3895,5.4203,5.4434,5.4434,5.478,5.5093,5.5093,5.5434,5.5708,5.567,5.5357,5.5285,5.5626,5.5708,5.5708,5.5708,5.5708,5.5708,5.5708,5.5708,5.5708,5.5708,5.5708,5.5708,5.5708,5.5735,5.5751,5.5751,5.5771,5.5787,5.5787,5.5787,5.5782,5.5825,5.5865,5.5895,5.3538,5.3495,5.2764,5.2461,5.2351,5.1618,5.1696,5.2282,0.0,0.0,0.0,5.1334,5.1674,5.2294,5.2252,5.2613,5.3268,5.3377,5.3433,5.3467,5.4318,5.4708,5.4741,5.5395,5.5708,5.5708,5.5708,5.5708,5.5708,5.5708,5.5708,5.5708,5.5708,5.5708,5.5708,5.5708,5.5708,5.5708,5.5708,5.5708,5.5708,5.5708,5.5708,5.5708,5.5708,5.5708,5.5708,5.5708,5.5401,5.4741,5.4703,5.4395,5.3703,5.351,5.3428,5.3428,5.328,5.3197,5.3197,5.3197,5.3274,5.339,5.3549,5.3526,5.3306,5.3228,5.3197,5.3197,5.3318,5.3433,5.3428,5.3587,5.3621,5.3626,5.3626,5.3659,5.3703,5.4241,5.4703,5.478,5.5247,5.567,5.5631,5.5631,5.5708,5.567,5.567,5.5708,5.5708,5.567,5.5631,5.567,5.5708,5.5708,5.5708,5.5708,5.5708,5.5708,5.5708,5.5708,5.5708,5.5708,5.5708,5.5708,5.5708,5.5708,5.5708,5.5714,5.5708,5.5708,5.5708,5.5708,5.5714,5.5776,5.5865,5.3351,5.3313,5.3227,5.3145,5.314,5.3016,5.305,5.3117,5.3034,5.2995,5.2982,5.2983,5.3037,5.3138,5.3084,5.3097,5.3251,5.3977,5.4318,5.4357,5.517,5.5511,5.5516,5.5626,5.5708,5.5708,5.5708,5.5708,5.5708,5.5708,5.5708,5.5708,5.5708,5.5708,5.5708,5.5708,5.5708,5.5708,5.5708,5.5708,5.5708,5.5708,5.5708,5.5708,5.5708,5.5708,5.5708,5.5708,5.5626,5.5555,5.5516,5.5478,5.5318,5.4664,5.4318,5.428,5.3621,5.3197,5.3197,5.3197,5.351,5.4285,5.4972,5.4747,5.3367,5.3203,5.3197,5.3236,5.3895,5.4318,5.4357,5.4895,5.5247,5.5285,5.5318,5.5357,5.5247,5.5362,5.5478,5.5478,5.5593,5.5708,5.5708,5.5708,5.5708,5.5708,5.5708,5.5708,5.5708,5.5708,5.5708,5.5708,5.5708,5.5708,5.5708,5.5708,5.5708,5.5708,5.5708,5.5708,5.5708,5.5708,5.5708,5.5708,5.5708,5.5708,5.5708,5.5708,5.5708,5.5708,5.5708,5.5708,5.5708,5.5724,5.5735,5.4699,5.466,5.4174,5.3971,5.3967,5.3937,5.3961,5.4005,5.4428,5.4096,5.3311,5.3292,5.3537,5.3936,5.3905,5.4164,5.4587,5.4972,5.517,5.5208,5.5516,5.5708,5.5708,5.5708,5.5708,5.5708,5.5708,5.5708,5.5708,5.5708,5.5708,5.5708,5.5708,5.5708,5.5708,5.5708,5.5708,5.5708,5.5708,5.5708,5.5708,5.5708,5.5708,5.5708,5.5708,5.5708,5.5708,5.5708,5.5708,5.5708,5.5708,5.5708,5.567,5.5357,5.5131,5.5126,5.478,5.4549,5.4549,5.4549,5.4708,5.5131,5.5472,5.5395,5.4626,5.4549,5.4549,5.4587,5.4939,5.517,5.5164,5.5472,5.5708,5.5708,5.5708,5.5708,5.5708,5.5708,5.5708,5.5708,5.5708,5.5708,5.5708,5.5708,5.5708,5.5708,5.5708,5.5708,5.5708,5.5708,5.5708,5.5708,5.5708,5.5708,5.5708,5.5708,5.5708,5.5708,5.5708,5.5708,5.5708,5.5708,5.5708,5.5708,5.5708,5.5708,5.5708,5.5708,5.5708,5.5708,5.5708,5.5708,5.5708,5.5708,5.5708,5.5827,5.5783,5.5093,5.477,5.4765,5.4801,5.478,5.4857,5.5439,5.4998,5.3956,5.3845,5.4205,5.4747,5.478,5.5131,5.5631,5.5708,5.5708,5.5708,5.5708,5.5708,5.5708,5.5708,5.5708,5.5708,5.5708,5.5708,5.5708,5.5901,5.6132,5.628,5.628,5.6285,5.628,5.628,5.628,5.628,5.6285,5.6088,5.5708,5.5708,5.5708,5.5708,5.5708,5.5708,5.5708,5.5708,5.5708,5.5708,5.5708,5.5708,5.5708,5.5708,5.5708,5.5708,5.5708,5.5708,5.5708,5.5708,5.5708,5.5708,5.5708,5.5708,5.5708,5.5708,5.5708,5.5708,5.5631,5.567,5.567,5.567,5.5708,5.5708,5.5708,5.5708,5.5708,5.5708,5.5708,5.5708,5.5708,5.5708,5.5708,5.5708,5.5708,5.5708,5.5708,5.5708,5.5708,5.5824,5.5978,5.5939,5.5862,5.5708,5.5708,5.5708,5.5708,5.5708,5.5708,5.5708,5.5747,5.5824,5.5978,5.6093,5.6247,5.6395,5.6357,5.6357,5.6395,5.6472,5.6511,5.6395,5.6434,5.6434,5.6093,5.5724,5.5719,5.5604,5.5598,5.556,5.5555,5.5555,5.5593,5.567,5.567,5.5406,5.5483,5.5444,5.5588,5.5555,5.5593,5.5708,5.5708,5.5708,5.5708,5.5708,5.5708,5.5708,5.5708,5.5708,5.5708,5.5785,5.5857,5.5901,5.6516,5.7286,5.7973,5.805,5.8006,5.8006,5.8006,5.8011,5.8044,5.805,5.728,5.5785,5.5708,5.5708,5.5708,5.5708,5.5708,5.5785,5.5708,5.5708,5.5708,5.5747,5.5708,5.5747,5.5708,5.5708,5.5708,5.5708,5.5708,5.5708,5.5708,5.5708,5.5708,5.5708,5.5708,5.5708,5.5708,5.5708,5.5708,5.5708,5.5708,5.5708,5.5708,5.5708,5.5708,5.5708,5.5708,5.5708,5.5708,5.5708,5.5708,5.5708,5.5708,5.5708,5.5747,5.5785,5.5978,5.6016,5.6016,5.6055,5.6478,5.6863,5.6747,5.6285,5.5862,5.5862,5.5708,5.5939,5.5862,5.5785,5.5901,5.6093,5.6478,5.6863,5.694,5.7396,5.778,5.7857,5.805,5.7929,5.7659,5.7736,5.7929,5.8044,5.789,5.7396,5.5708,5.5708,5.5708,5.5708,5.5708,5.5708,5.5708,5.5708,5.5708,5.5708,5.5708,5.5708,5.5708,5.5708,5.5708,5.5708,5.5708,5.5708,5.5708,5.5708,5.5708,5.5708,5.5747,5.6247,5.6439,5.6516,5.6973,5.7236,5.7319,5.7594,5.7934,5.8236,5.8275,5.8275,5.8275,5.8275,5.8275,5.8275,5.8275,5.7934,5.7357,5.7242,5.7242,5.7242,5.7242,5.7242,5.7242,5.7242,5.7242,5.7242,5.7242,5.7242,5.7242,5.6747,5.6478,5.6439,5.5978,5.5708,5.5708,5.5708,5.5708,5.5708,5.5708,5.5708,5.5708,5.5708,5.5708,5.5708,5.5708,5.5708,5.5708,5.5708,5.5708,5.5708,5.5708,5.5708,5.5708,5.5708,5.5708,5.5708,5.5708,5.5708,5.5785,5.617,5.667,5.7088,5.7203,5.7126,5.7242,5.755,5.7742,5.7742,5.7434,5.728,5.7203,5.7242,5.7203,5.7203,5.7242,5.7242,5.7242,5.7434,5.778,5.778,5.8165,5.839,5.8198,5.8275,5.8275,5.8352,5.8313,5.8275,5.8275,5.8275,5.789,5.5708,5.5708,5.5708,5.5708,5.5708,5.5708,5.5708,5.5708,5.5708,5.5708,5.5708,5.5939,5.6055,5.6016,5.5824,5.5708,5.5708,5.5708,5.5824,5.6016,5.6055,5.6209,5.6478,5.7016,5.7363,5.7478,5.7973,5.8396,5.8583,5.8621,5.8736,5.8934,5.8973,5.8973,5.9011,5.8967,5.8973,5.9011,5.8973,5.8967,5.8973,5.8973,5.8781,5.8352,5.8275,5.8275,5.8275,5.8275,5.8275,5.8275,5.8275,5.8275,5.8275,5.7703,5.7363,5.7324,5.6786,5.6395,5.6434,5.6434,5.6401,5.6401,5.6434,5.6395,5.6395,5.6395,5.6395,5.6472,5.6439,5.6357,5.5747,5.5708,5.5785,5.6016,5.6055,5.6132,5.6401,5.6439,5.6472,5.6434,5.6588,5.6395,5.6511,5.6978,5.755,5.8088,5.8236,5.8275,5.8352,5.8429,5.8621,5.866,5.8819,5.8781,5.8429,5.8159,5.8275,5.8275,5.8159,5.8121,5.8352,5.8434,5.8627,5.8627,5.8781,5.9011,5.9281,5.916,5.8967,5.8973,5.8973,5.8967,5.9204,5.9006,5.9011,5.5708,5.5708,5.5708,5.5708,5.5708,5.5747,5.5747,5.5901,5.5785,5.5747,5.5939,5.6593,5.694,5.6901,5.6209,5.5747,5.5747,5.5824,5.6242,5.6901,5.6945,5.7401,5.8165,5.8242,5.8242,5.8236,5.8434,5.8813,5.9435,5.9435,5.9858,6.0594,6.055,6.0633,6.055,6.0512,6.0627,6.0512,6.0512,6.0589,6.0627,6.0633,5.9858,5.8583,5.8352,5.8429,5.839,5.8313,5.8352,5.8313,5.839,5.839,5.8352,5.8275,5.8242,5.8198,5.8159,5.8121,5.8083,5.8044,5.8044,5.8088,5.7973,5.8121,5.7929,5.7929,5.7929,5.8121,5.7934,5.739,5.6165,5.6016,5.6209,5.6863,5.6945,5.7286,5.8006,5.789,5.8159,5.8044,5.7929,5.7929,5.8083,5.8204,5.8319,5.8429,5.839,5.8429,5.8621,5.905,5.9396,5.9627,5.9935,6.0127,5.8736,5.8698,5.8583,5.8621,5.8852,5.8506,5.8621,5.8819,5.9204,5.9588,5.9973,6.0281,6.055,6.0589,6.0435,6.0358,6.0281,6.0319,6.005,6.0473,6.0396,5.5708,5.5708,5.5708,5.6016,5.6516,5.6555,5.6863,5.7357,5.7357,5.7357,5.7434,5.7703,5.7819,5.7819,5.7511,5.7357,5.7357,5.7357,5.755,5.7819,5.7819,5.8011,5.8319,5.8819,5.9088,5.9165,5.9627,6.005,6.0287,6.0325,6.0473,6.0742,6.0781,6.0781,6.0781,6.0781,6.0781,6.0781,6.0781,6.0781,6.0781,6.0781,6.0473,5.9973,5.9896,5.9896,5.9896,5.9896,5.9896,5.9896,5.9896,5.9896,5.9858,5.9358,5.8813,5.8352,5.8275,5.8275,5.8275,5.8275,5.8275,5.8275,5.8275,5.8352,5.8275,5.8275,5.8275,5.8313,5.8313,5.789,5.7627,5.7357,5.7473,5.7742,5.7857,5.7973,5.8198,5.8275,5.8275,5.8275,5.8313,5.8473,5.8973,5.9088,5.9281,5.9781,5.9896,5.9858,5.9896,6.0165,6.0281,6.0358,6.055,6.0633,6.0127,5.9935,5.9896,5.9935,5.9935,5.9935,6.0012,5.9896,6.0204,6.0165,6.0666,6.0742,6.0742,6.0742,6.0781,6.0781,6.0781,6.0781,6.0781,6.0781,6.0781,5.5862,5.6093,5.6132,5.6632,5.7401,5.7401,5.7742,5.8275,5.8275,5.8275,5.8352,5.8583,5.8698,5.8742,5.8973,5.9088,5.9011,5.8583,5.8429,5.8665,5.8704,5.8813,5.9165,5.9665,5.9896,6.0012,6.0512,6.0781,6.0781,6.0781,6.0781,6.0781,6.0781,6.0781,6.0781,6.0781,6.0781,6.0781,6.0781,6.0781,6.0781,6.0781,6.0781,6.0781,6.0781,6.0781,6.0781,6.0781,6.0781,6.0781,6.0781,6.0781,6.0742,6.0242,5.9665,5.9165,5.9127,5.9088,5.9127,5.9088,5.9121,5.9088,5.9127,5.9127,5.9088,5.9127,5.9127,5.9127,5.9088,5.9088,5.9127,5.9127,5.9011,5.8781,5.866,5.8813,5.9088,5.9127,5.9127,5.9204,5.9242,5.9435,5.9781,5.9896,6.0171,6.0748,6.0781,6.0781,6.0781,6.0781,6.0781,6.0781,6.0742,6.0781,6.055,6.0435,6.0435,6.0473,6.0473,6.0704,6.0781,6.0781,6.0781,6.0781,6.0781,6.0781,6.0781,6.0781,6.0781,6.0781,6.0781,6.0781,6.0781,6.0781,6.0781,5.6247,5.694,5.6978,5.7517,5.8242,5.828,5.8319,5.8506,5.8467,5.8583,5.8742,5.9204,5.9511,5.9665,6.0204,6.0666,6.0319,5.9204,5.8896,5.9473,5.9511,5.9935,6.0556,6.0589,6.0666,6.0666,6.0748,6.0781,6.0781,6.0781,6.0781,6.0781,6.0781,6.0781,6.0781,6.0781,6.0781,6.0781,6.0781,6.0781,6.0781,6.0781,6.0781,6.0781,6.0781,6.0781,6.0781,6.0781,6.0781,6.0781,6.0781,6.0781,6.0781,6.0704,6.0704,6.0589,6.0666,6.071,6.0666,6.0594,6.0512,6.0512,6.0666,6.0512,6.0473,6.0556,6.0556,6.0517,6.055,6.0627,6.0589,6.055,6.0287,5.9665,5.9511,5.9819,6.0396,6.0704,6.0742,6.0627,6.0512,6.0742,6.0742,6.0666,6.071,6.0742,6.0781,6.0781,6.0781,6.0781,6.0781,6.0781,6.0781,6.0781,6.0781,6.0781,6.0781,6.0781,6.0742,6.0781,6.0781,6.0781,6.0781,6.0781,6.0781,6.0781,6.0781,6.0781,6.0781,6.0781,6.0781,6.0819,6.0781,6.0781,6.0781,5.7093,5.7857,5.7896,5.8357,5.9088,5.9127,5.9435,5.9973,6.0012,6.0017,6.005,6.0281,6.0396,6.0435,6.0704,6.0781,6.0742,6.0242,6.0165,6.0358,6.0396,6.0517,6.0742,6.0781,6.0781,6.0781,6.0781,6.0781,6.0781,6.0781,6.0781,6.0781,6.0781,6.0781,6.0781,6.0781,6.0781,6.0781,6.0781,6.0781,6.0781,6.0781,6.0781,6.0781,6.0781,6.0781,6.0781,6.0781,6.0781,6.0781,6.0781,6.0781,6.0781,6.0781,6.0781,6.0781,6.0781,6.0781,6.0781,6.0781,6.0781,6.0781,6.0781,6.0781,6.0781,6.0781,6.0781,6.0781,6.0781,6.0781,6.0781,6.0781,6.0627,6.0435,6.0396,6.0435,6.0704,6.0781,6.0781,6.0781,6.0781,6.0781,6.0781,6.0781,6.0781,6.0781,6.0781,6.0781,6.0781,6.0781,6.0781,6.0781,6.0781,6.0781,6.0781,6.0819,6.0896,6.0896,6.0896,6.0819,6.0781,6.0781,6.0781,6.0781,6.0781,6.0858,6.0858,6.0896,6.0973,6.0973,6.105,6.0973,6.0819,6.0935,6.1204,5.7973,5.8698,5.8742,5.9242,5.9973,5.9973,6.0287,6.0742,6.0781,6.0781,6.0781,6.0781,6.0781,6.0781,6.0781,6.0781,6.0781,6.0781,6.0781,6.0781,6.0781,6.0781,6.0781,6.0781,6.0781,6.0781,6.0781,6.0781,6.0781,6.0781,6.0781,6.0781,6.0781,6.0781,6.0781,6.0781,6.0781,6.0781,6.0781,6.0781,6.0781,6.0781,6.0781,6.0781,6.0781,6.0781,6.0781,6.0781,6.0781,6.0781,6.0781,6.0781,6.0781,6.0781,6.0781,6.0781,6.0781,6.0781,6.0781,6.0781,6.0781,6.0781,6.0781,6.0781,6.0781,6.0781,6.0781,6.0781,6.0781,6.0781,6.0781,6.0781,6.0781,6.0781,6.0781,6.0781,6.0781,6.0781,6.0781,6.0781,6.0781,6.0781,6.0781,6.0781,6.0781,6.0781,6.0781,6.0781,6.0781,6.0781,6.0819,6.0819,6.0781,6.0781,6.0781,6.0858,6.0973,6.1018,6.1056,6.0896,6.0781,6.0781,6.0781,6.0781,6.0781,6.1172,6.1248,6.1402,6.1479,6.1441,6.1589,6.1897,6.2089,6.2012,6.2166,5.8852,5.955,5.9588,6.0012,6.0704,6.0704,6.0742,6.0781,6.0781,6.0781,6.0781,6.0781,6.0781,6.0781,6.0781,6.0781,6.0781,6.0781,6.0781,6.0781,6.0781,6.0781,6.0781,6.0781,6.0781,6.0781,6.0781,6.0781,6.0781,6.0781,6.0781,6.0781,6.0781,6.0781,6.0781,6.0781,6.0864,6.0973,6.0941,6.0973,6.1089,6.105,6.105,6.1089,6.1127,6.1127,6.1204,6.1204,6.1012,6.0819,6.0781,6.0781,6.0781,6.0781,6.0781,6.0781,6.0781,6.0781,6.0781,6.0781,6.0781,6.0781,6.0781,6.0781,6.0781,6.0781,6.0781,6.0781,6.0781,6.0781,6.0781,6.0781,6.0781,6.0781,6.0781,6.0781,6.0781,6.0781,6.0781,6.0781,6.0781,6.0781,6.0781,6.0781,6.0781,6.0781,6.0781,6.0781,6.0864,6.0864,6.0902,6.1018,6.1243,6.1473,6.1704,6.1743,6.182,6.1897,6.1858,6.1666,6.1396,6.1358,6.1396,6.132,6.1204,6.1518,6.1787,6.2056,6.232,6.2512,6.2814,6.3198,6.316,6.2891,6.2852,5.9704,6.0435,6.0479,6.0594,6.0781,6.0781,6.0781,6.0781,6.0781,6.0781,6.0781,6.0781,6.0781,6.0781,6.0781,6.0781,6.0781,6.0781,6.0781,6.0781,6.0781,6.0781,6.0781,6.0781,6.0781,6.0781,6.0781,6.0781,6.0781,6.0858,6.0819,6.0781,6.0896,6.0858,6.0781,6.0896,6.1172,6.1672,6.1755,6.205,6.2512,6.2545,6.266,6.266,6.2589,6.2583,6.2621,6.266,6.1973,6.0896,6.0781,6.0781,6.0896,6.0858,6.0858,6.0858,6.0819,6.0781,6.0781,6.0781,6.0781,6.0781,6.0781,6.0781,6.0781,6.0781,6.0781,6.0781,6.0781,6.0781,6.0781,6.0819,6.0819,6.0781,6.0941,6.0896,6.0781,6.0781,6.0781,6.0781,6.0781,6.0819,6.0858,6.0858,6.0896,6.0935,6.0973,6.0973,6.121,6.1479,6.1749,6.1979,6.2243,6.2512,6.2737,6.2737,6.2775,6.2891,6.2891,6.2891,6.2698,6.2621,6.266,6.2698,6.2352,6.2474,6.2743,6.2974,6.3237,6.3545,6.3583,6.3737,6.3468,6.3198,6.3314,6.0319,6.0781,6.0781,6.0781,6.0781,6.0781,6.0781,6.0781,6.0781,6.0781,6.0781,6.0781,6.0781,6.0781,6.0781,6.0781,6.0781,6.0781,6.0781,6.0781,6.0781,6.0781,6.0781,6.0781,6.0781,6.0781,6.0819,6.0781,6.0902,6.1133,6.1325,6.1479,6.1704,6.1858,6.1935,6.1897,6.205,6.2512,6.2633,6.2858,6.3237,6.3314,6.3275,6.3314,6.3314,6.3314,6.3275,6.3275,6.2775,6.205,6.1858,6.1858,6.182,6.1512,6.1364,6.1325,6.1056,6.0781,6.0781,6.0781,6.0781,6.0781,6.0781,6.0781,6.0781,6.0781,6.0781,6.0781,6.0781,6.0781,6.0864,6.1095,6.1325,6.1441,6.1633,6.155,6.0935,6.0781,6.0781,6.0781,6.0819,6.1018,6.1248,6.1364,6.155,6.1781,6.2012,6.2012,6.205,6.2364,6.2633,6.282,6.2974,6.316,6.3275,6.3275,6.3583,6.3737,6.4051,6.4045,6.366,6.3545,6.3429,6.3391,6.3352,6.3429,6.366,6.3929,6.4205,6.4359,6.4282,6.432,6.4243,6.4012,6.4083,6.0781,6.0781,6.0781,6.0781,6.0781,6.0781,6.0781,6.0781,6.0781,6.0781,6.0781,6.0781,6.0781,6.0781,6.0781,6.0781,6.0781,6.0781,6.0941,6.1056,6.1166,6.1281,6.132,6.1166,6.1095,6.1089,6.1018,6.1166,6.1473,6.1979,6.2172,6.2326,6.2897,6.3198,6.3006,6.3121,6.3314,6.3429,6.3474,6.3628,6.3814,6.3891,6.3891,6.3891,6.3891,6.3852,6.3814,6.3737,6.3628,6.3583,6.3429,6.316,6.3121,6.2512,6.2249,6.2133,6.1666,6.1281,6.1127,6.132,6.1166,6.1281,6.1243,6.105,6.1243,6.132,6.1358,6.1396,6.1095,6.1281,6.1358,6.1826,6.2133,6.2287,6.2858,6.2468,6.1512,6.1056,6.1056,6.105,6.1089,6.1479,6.1903,6.2287,6.2441,6.2545,6.2737,6.2698,6.282,6.3166,6.3358,6.3506,6.3622,6.3698,6.3775,6.3775,6.4237,6.4589,6.5089,6.5089,6.4397,6.4128,6.3891,6.3814,6.4243,6.4474,6.4628,6.4897,6.5089,6.5205,6.5128,6.5436,6.5705,6.5282,6.5128,6.0781,6.0781,6.0781,6.0781,6.0781,6.0781,6.0781,6.0781,6.0781,6.0781,6.0781,6.0781,6.0781,6.0781,6.0858,6.0781,6.0896,6.0935,6.1133,6.1864,6.2512,6.2698,6.2583,6.2166,6.1864,6.1941,6.2474,6.2698,6.2814,6.2858,6.3045,6.3128,6.3358,6.3314,6.3391,6.3545,6.3698,6.4199,6.4314,6.4628,6.5089,6.5166,6.5166,6.5166,6.5205,6.5282,6.532,6.5359,6.5359,6.5013,6.416,6.3506,6.3429,6.3205,6.3051,6.2968,6.2852,6.2698,6.2737,6.2621,6.2737,6.2583,6.2551,6.2743,6.2775,6.266,6.2698,6.2737,6.2775,6.2589,6.2589,6.2852,6.3045,6.3121,6.3275,6.3314,6.2852,6.2737,6.2621,6.2627,6.2627,6.282,6.3012,6.3051,6.3198,6.3314,6.3391,6.3352,6.3622,6.4045,6.4199,6.4314,6.4545,6.4666,6.4705,6.4666,6.4859,6.5166,6.559,6.5865,6.5128,6.4936,6.4782,6.4974,6.5397,6.5519,6.5359,6.5474,6.559,6.5788,6.5904,6.5904,6.5904,6.5904,6.5904,6.0781,6.0781,6.0781,6.0781,6.0781,6.0781,6.0781,6.0781,6.0781,6.0781,6.0781,6.0781,6.0781,6.0858,6.121,6.1441,6.1518,6.182,6.2204,6.2704,6.3128,6.3275,6.3391,6.3281,6.3128,6.282,6.3045,6.3275,6.3391,6.3737,6.3891,6.3968,6.4282,6.4628,6.4512,6.4474,6.4782,6.5089,6.5205,6.5474,6.582,6.5904,6.5904,6.5904,6.5904,6.5904,6.5827,6.5865,6.5865,6.5673,6.5013,6.4512,6.4397,6.4128,6.3929,6.3852,6.3468,6.3314,6.3275,6.3314,6.3237,6.3352,6.3314,6.3314,6.3314,6.3314,6.3314,6.3314,6.3275,6.3275,6.3314,6.3775,6.3852,6.4006,6.4282,6.4474,6.4391,6.3852,6.3314,6.3314,6.3198,6.3506,6.3698,6.3891,6.4237,6.4512,6.4705,6.4666,6.4782,6.5089,6.5128,6.5282,6.5551,6.5705,6.5705,6.5667,6.5551,6.5667,6.5743,6.5904,6.559,6.5628,6.5743,6.5827,6.5788,6.5827,6.5711,6.5904,6.5904,6.5904,6.5904,6.5904,6.5904,6.5904,6.5904,6.0781,6.0781,6.0781,6.0781,6.0781,6.0781,6.0781,6.0781,6.0781,6.0781,6.0864,6.0902,6.1133,6.121,6.1941,6.2249,6.248,6.3089,6.3474,6.3545,6.3858,6.3968,6.4083,6.4359,6.4397,6.3737,6.3852,6.3852,6.4045,6.4359,6.4782,6.4897,6.5436,6.559,6.5782,6.5859,6.5705,6.575,6.575,6.5782,6.5904,6.5904,6.5904,6.5904,6.5904,6.5904,6.5904,6.5904,6.5904,6.5904,6.5904,6.5904,6.5705,6.5282,6.4782,6.4782,6.4243,6.4045,6.4006,6.3891,6.3852,6.3698,6.3737,6.3775,6.3814,6.3929,6.3968,6.3891,6.3929,6.3929,6.3782,6.4352,6.4743,6.4897,6.5474,6.5827,6.5628,6.4551,6.4006,6.3891,6.416,6.4436,6.4628,6.482,6.5282,6.5667,6.5782,6.5904,6.5904,6.5865,6.5743,6.5705,6.582,6.5859,6.5904,6.5904,6.5904,6.5904,6.5904,6.5904,6.5904,6.5904,6.5904,6.5904,6.5865,6.5904,6.5904,6.5904,6.5904,6.5904,6.5904,6.5904,6.5904,6.5904,6.5904,6.0781,6.0781,6.0781,6.0781,6.0781,6.0781,6.0781,6.0781,6.0819,6.0819,6.0935,6.1556,6.1864,6.2095,6.2743,6.3089,6.3397,6.4012,6.4391,6.4512,6.4897,6.5243,6.5243,6.532,6.548,6.5551,6.532,6.5243,6.532,6.5628,6.5519,6.5667,6.5782,6.5904,6.5904,6.5904,6.5904,6.5904,6.5904,6.5904,6.5904,6.5904,6.5904,6.5904,6.5904,6.5904,6.5904,6.5904,6.5904,6.5904,6.5904,6.5904,6.5859,6.5705,6.559,6.5513,6.5359,6.5128,6.5166,6.532,6.5436,6.5474,6.5282,6.532,6.5359,6.5359,6.5128,6.5243,6.5243,6.5359,6.5436,6.5436,6.559,6.5705,6.5743,6.5904,6.5827,6.5519,6.5166,6.5089,6.5243,6.532,6.5359,6.5397,6.559,6.5782,6.582,6.5904,6.5904,6.5904,6.5859,6.582,6.5865,6.5904,6.5904,6.5904,6.5904,6.5904,6.5904,6.5904,6.5904,6.5904,6.5904,6.5904,6.5904,6.5904,6.5904,6.5904,6.5904,6.5904,6.5904,6.5904,6.5904,6.5904,6.5904,6.0781,6.0781,6.0781,6.0781,6.0781,6.0781,6.0781,6.0864,6.1287,6.1479,6.171,6.232,6.2704,6.2935,6.3589,6.416,6.4666,6.5013,6.5282,6.5397,6.5705,6.5904,6.5904,6.5904,6.5904,6.5859,6.5865,6.5904,6.5904,6.5859,6.5904,6.5865,6.5904,6.5904,6.5904,6.5904,6.5904,6.5904,6.5904,6.5904,6.5904,6.5904,6.5904,6.5904,6.5904,6.5904,6.5904,6.5904,6.5904,6.5904,6.5904,6.5904,6.5904,6.5904,6.5904,6.5904,6.5904,6.5904,6.5904,6.5904,6.5827,6.5865,6.5904,6.5904,6.5904,6.5827,6.5904,6.5904,6.5904,6.5904,6.5827,6.5904,6.5904,6.5904,6.5904,6.5904,6.5904,6.5904,6.5904,6.5904,6.5743,6.5667,6.5743,6.5788,6.5865,6.5904,6.5904,6.5904,6.5904,6.5904,6.5904,6.5904,6.5904,6.5904,6.5904,6.5904,6.5904,6.5904,6.5904,6.5904,6.5904,6.5904,6.5904,6.5904,6.5904,6.5904,6.5904,6.5904,6.5904,6.5904,6.5904,6.5904,6.5904,6.5904,6.5904,6.0781,6.0781,6.0781,6.0781,6.0819,6.1018,6.1095,6.121,6.1979,6.2326,6.248,6.3166,6.3545,6.3775,6.4436,6.5243,6.5904,6.5859,6.5827,6.5827,6.5859,6.5904,6.5904,6.5904,6.5904,6.5904,6.5904,6.5904,6.5904,6.5904,6.5904,6.5904,6.5904,6.5904,6.5904,6.5904,6.5904,6.5904,6.5904,6.5904,6.5904,6.5904,6.5904,6.5904,6.5904,6.5904,6.5904,6.5904,6.5904,6.5904,6.5904,6.5904,6.5904,6.5904,6.5904,6.5904,6.5904,6.5904,6.5904,6.5904,6.5904,6.5904,6.5904,6.5904,6.5904,6.5904,6.5904,6.5904,6.5904,6.5904,6.5904,6.5904,6.5904,6.5904,6.5904,6.5904,6.5904,6.5904,6.5904,6.5904,6.5904,6.5904,6.5904,6.5904,6.5904,6.5904,6.5904,6.5904,6.5904,6.5904,6.5904,6.5904,6.5904,6.5904,6.5904,6.5904,6.5904,6.5904,6.5904,6.5904,6.5904,6.5904,6.5904,6.5942,6.5904,6.5904,6.5904,6.5904,6.5904,6.5904,6.5904,6.5904,6.5904,6.5904,6.5904,6.0781,6.0781,6.0781,6.0781,6.0941,6.1595,6.1947,6.2056,6.282,6.316,6.3237,6.4051,6.4429,6.4628,6.5282,6.5743,6.5859,6.5904,6.5904,6.5904,6.5904,6.5904,6.5904,6.5904,6.5904,6.5904,6.5904,6.5904,6.5904,6.5904,6.5904,6.5904,6.5904,6.5904,6.5904,6.5904,6.5904,6.5904,6.5904,6.5904,6.5904,6.5904,6.5904,6.5904,6.5904,6.5904,6.5904,6.5904,6.5904,6.5904,6.5904,6.5904,6.5904,6.5904,6.5904,6.5904,6.5904,6.5904,6.5904,6.5904,6.5904,6.5904,6.5904,6.5904,6.5904,6.5904,6.5904,6.5904,6.5904,6.5904,6.5904,6.5904,6.5904,6.5904,6.5904,6.5904,6.5904,6.5904,6.5904,6.5904,6.5904,6.5904,6.5904,6.5904,6.5904,6.5904,6.5904,6.5904,6.5904,6.5904,6.5904,6.5904,6.5904,6.5904,6.5904,6.5904,6.5904,6.5904,6.5942,6.5942,6.5942,6.5981,6.6058,6.6058,6.6058,6.6244,6.6436,6.6397,6.6058,6.609,6.6397,6.6211,6.5904,6.5942,6.6244,6.0781,6.0781,6.0781,6.1095,6.1556,6.1941,6.2364,6.2897,6.3666,6.4045,6.4199,6.4936,6.532,6.5397,6.5782,6.5865,6.5904,6.5904,6.5904,6.5904,6.5904,6.5904,6.5904,6.5904,6.5904,6.5904,6.5904,6.5904,6.5904,6.5904,6.5904,6.5904,6.5904,6.5904,6.5904,6.5904,6.5904,6.5904,6.5904,6.5904,6.5904,6.5904,6.5904,6.5904,6.5904,6.5904,6.5904,6.5904,6.5904,6.5904,6.5904,6.5904,6.5904,6.5904,6.5904,6.5904,6.5904,6.5904,6.5904,6.5904,6.5904,6.5904,6.5904,6.5904,6.5904,6.5904,6.5904,6.5904,6.5904,6.5904,6.5904,6.5904,6.5904,6.5904,6.5904,6.5904,6.5904,6.5904,6.5904,6.5904,6.5904,6.5904,6.5904,6.5904,6.5904,6.5904,6.5904,6.5904,6.5904,6.5904,6.5904,6.5904,6.5904,6.5904,6.5904,6.5904,6.5974,6.5974,6.6019,6.6019,6.6058,6.6096,6.6404,6.6821,6.7167,6.7244,6.7167,6.6936,6.6705,6.6821,6.7013,6.6936,6.6936,6.7244,6.7475,6.0902,6.1133,6.1133,6.1518,6.2133,6.2518,6.3089,6.3698,6.4545,6.4936,6.5089,6.559,6.5865,6.5904,6.5859,6.5904,6.5904,6.5904,6.5904,6.5904,6.5904,6.5904,6.5904,6.5904,6.5904,6.5904,6.5904,6.5904,6.5904,6.5904,6.5904,6.5904,6.5904,6.5904,6.5904,6.5904,6.5904,6.5904,6.5904,6.5904,6.5904,6.5904,6.5904,6.5904,6.5904,6.5904,6.5904,6.5904,6.5904,6.5904,6.5904,6.5904,6.5904,6.5904,6.5904,6.5904,6.5904,6.5904,6.5904,6.5904,6.5904,6.5904,6.5904,6.5904,6.5904,6.5904,6.5904,6.5904,6.5904,6.5904,6.5904,6.5904,6.5904,6.5904,6.5904,6.5904,6.5904,6.5904,6.5904,6.5904,6.5904,6.5904,6.5904,6.5904,6.5904,6.5904,6.5904,6.5904,6.5904,6.5942,6.5942,6.5981,6.5974,6.5974,6.6019,6.6019,6.6051,6.6244,6.6327,6.6513,6.6782,6.7051,6.7359,6.7782,6.8129,6.8013,6.7782,6.759,6.7436,6.7552,6.7744,6.8052,6.8199,6.843,6.843,6.1287,6.2018,6.2018,6.2095,6.2293,6.3788,6.4436,6.4589,6.5397,6.5705,6.5673,6.5859,6.5904,6.5904,6.5904,6.5904,6.5904,6.5904,6.5904,6.5904,6.5904,6.5904,6.5904,6.5904,6.5904,6.5904,6.5904,6.5904,6.5904,6.5904,6.5904,6.5904,6.5904,6.5904,6.5904,6.5904,6.5904,6.5904,6.5904,6.5904,6.5904,6.5904,6.5904,6.5904,6.5904,6.5904,6.5904,6.5904,6.5904,6.5904,6.5904,6.5904,6.5904,6.5904,6.5904,6.5904,6.5904,6.5904,6.5904,6.5904,6.5904,6.5904,6.5904,6.5904,6.5904,6.5904,6.5904,6.5904,6.5904,6.5904,6.5904,6.5904,6.5904,6.5904,6.5904,6.5904,6.5904,6.5904,6.5904,6.5904,6.5904,6.5904,6.5904,6.5904,6.5904,6.5904,6.5904,6.5904,6.5981,6.6019,6.6058,6.6096,6.6128,6.6128,6.6167,6.6359,6.6898,6.7167,6.7321,6.7628,6.7975,6.8199,6.8321,6.8468,6.8737,6.8584,6.8545,6.8629,6.8629,6.8398,6.8507,6.8936,6.9045,6.9084,6.8968,6.1787,6.2216,6.3172,6.3628,6.3711,6.432,6.4897,6.5397,6.5743,6.5904,6.5904,6.5904,6.5904,6.5904,6.5904,6.5904,6.5904,6.5904,6.5904,6.5904,6.5904,6.5904,6.5904,6.5904,6.5904,6.5904,6.5904,6.5904,6.5904,6.5904,6.5904,6.5904,6.5904,6.5904,6.5904,6.5904,6.5904,6.5904,6.5904,6.5904,6.5904,6.5904,6.5904,6.5904,6.5904,6.5904,6.5904,6.5904,6.5904,6.5904,6.5904,6.5904,6.5904,6.5904,6.5904,6.5904,6.5904,6.5904,6.5904,6.5904,6.5904,6.5904,6.5904,6.5904,6.5904,6.5904,6.5904,6.5904,6.5904,6.5904,6.5904,6.5904,6.5904,6.5904,6.5904,6.5904,6.5904,6.5904,6.6058,6.6096,6.5981,6.5904,6.5904,6.5904,6.5904,6.5904,6.5904,6.5981,6.6205,6.6436,6.6551,6.6744,6.6821,6.7051,6.7128,6.7475,6.7898,6.809,6.8282,6.8552,6.8853,6.909,6.9206,6.9314,6.9507,6.9661,6.9783,6.9898,6.9744,6.936,6.9552,7.0052,7.0014,6.9783,6.9661,6.2595,6.298,6.4128,6.4622,6.4628,6.4897,6.532,6.5827,6.5904,6.5904,6.5904,6.5904,6.5904,6.5904,6.5904,6.5904,6.5904,6.5904,6.5904,6.5904,6.5904,6.5904,6.5904,6.5904,6.5904,6.5904,6.5904,6.5904,6.5904,6.5904,6.5904,6.5904,6.5904,6.5904,6.5904,6.5904,6.5904,6.5904,6.5904,6.5904,6.5904,6.5904,6.5904,6.5904,6.5904,6.5904,6.5904,6.5904,6.5904,6.5904,6.5904,6.5904,6.5904,6.5904,6.5904,6.5904,6.5904,6.5904,6.5904,6.5904,6.5904,6.5904,6.5904,6.5904,6.5904,6.5904,6.5904,6.5904,6.5904,6.5904,6.5904,6.5904,6.5904,6.5904,6.5904,6.5904,6.5904,6.5904,6.6173,6.6327,6.6288,6.6442,6.6859,6.6936,6.6705,6.6782,6.6974,6.7051,6.7167,6.7321,6.7436,6.7622,6.7814,6.8045,6.8314,6.859,6.8783,6.8975,6.9167,6.936,6.9629,6.986,7.0014,7.009,7.036,7.0783,7.0744,7.0475,7.0321,7.0129,7.0398,7.0591,7.0591,7.036,7.0514,6.3737,6.4512,6.4589,6.4666,6.4782,6.5513,6.5865,6.5904,6.5904,6.5904,6.5904,6.5904,6.5904,6.5904,6.5904,6.5904,6.5904,6.5904,6.5904,6.5904,6.5904,6.5904,6.5904,6.5904,6.5904,6.5904,6.5904,6.5904,6.5904,6.5904,6.5904,6.5904,6.5904,6.5904,6.5904,6.5904,6.5904,6.5904,6.5904,6.5904,6.5904,6.5904,6.5904,6.5904,6.5904,6.5904,6.5904,6.5904,6.5904,6.5904,6.6051,6.609,6.609,6.6205,6.6244,6.6205,6.6128,6.609,6.6013,6.5974,6.6051,6.5942,6.5904,6.5904,6.5904,6.5904,6.5904,6.5904,6.5904,6.5942,6.5904,6.5981,6.6019,6.6282,6.6359,6.6397,6.6436,6.6474,6.6821,6.7013,6.7128,6.7321,6.7891,6.8199,6.7821,6.7821,6.8045,6.8122,6.8045,6.8244,6.8359,6.8545,6.8737,6.9007,6.9283,6.9513,6.9706,6.986,6.9975,7.009,7.0283,7.0475,7.0629,7.0783,7.0821,7.0898,7.0898,7.086,7.0667,7.0514,7.0667,7.0821,7.0898,7.0898,7.0898,6.432,6.4666,6.5205,6.5474,6.5513,6.5743,6.5904,6.5904,6.5904,6.5904,6.5904,6.5904,6.5904,6.5904,6.5904,6.5904,6.5904,6.5904,6.5904,6.5904,6.5904,6.5904,6.5904,6.5904,6.5904,6.5904,6.5904,6.5904,6.5904,6.5904,6.5904,6.5904,6.5904,6.5904,6.5904,6.5904,6.5904,6.5904,6.5904,6.5904,6.5904,6.5904,6.5942,6.5942,6.5981,6.6051,6.6051,6.6128,6.6128,6.6167,6.6397,6.6712,6.6821,6.7013,6.7436,6.7475,6.7513,6.7545,6.7545,6.7507,6.6974,6.6397,6.6051,6.609,6.5942,6.5904,6.5904,6.5974,6.6128,6.6288,6.6558,6.6712,6.6904,6.7552,6.7737,6.7737,6.7737,6.7737,6.7853,6.793,6.8013,6.809,6.8468,6.9084,6.8936,6.8706,6.8859,6.866,6.8507,6.8975,6.9283,6.9513,6.9744,6.9975,7.0206,7.0206,7.0244,7.036,7.0475,7.0629,7.0821,7.0898,7.0898,7.0821,7.086,7.0898,7.0898,7.0898,7.0898,7.086,7.0898,7.0898,7.0898,7.0898,7.0898,6.5051,6.5128,6.5667,6.5904,6.5904,6.5904,6.5904,6.5904,6.5904,6.5904,6.5904,6.5904,6.5904,6.5904,6.5904,6.5904,6.5904,6.5904,6.5904,6.5904,6.5904,6.5904,6.5904,6.5904,6.5904,6.5904,6.5904,6.5904,6.5904,6.5904,6.5904,6.5904,6.5904,6.5904,6.5904,6.5904,6.5904,6.5904,6.5904,6.5904,6.5981,6.6134,6.6365,6.6481,6.6628,6.6859,6.6782,6.6744,6.6744,6.6898,6.7167,6.7552,6.7782,6.8013,6.8391,6.8391,6.8391,6.8353,6.8276,6.8276,6.766,6.709,6.6782,6.6744,6.6782,6.6936,6.6936,6.6898,6.6705,6.7013,6.7398,6.7552,6.7821,6.8468,6.8507,6.8468,6.843,6.8391,6.8584,6.866,6.8853,6.893,6.9122,6.9629,7.0014,6.9821,6.9667,6.936,6.9122,6.959,7.0014,7.0167,7.0321,7.0475,7.0591,7.0667,7.0744,7.086,7.0898,7.0898,7.0898,7.0898,7.0898,7.0898,7.0898,7.0898,7.0898,7.0898,7.0898,7.0898,7.0898,7.0898,7.0898,7.0898,7.0898,6.5865,6.5904,6.5904,6.5904,6.5904,6.5904,6.5904,6.5904,6.5904,6.5904,6.5904,6.5904,6.5904,6.5904,6.5904,6.5904,6.5904,6.5904,6.5904,6.5904,6.5904,6.5904,6.5904,6.5904,6.5904,6.5904,6.5904,6.5904,6.5904,6.5904,6.5904,6.6019,6.6173,6.6244,6.6282,6.6397,6.632,6.625,6.6397,6.6474,6.659,6.6865,6.709,6.7282,6.7628,6.7898,6.7968,6.8007,6.8084,6.8199,6.8353,6.843,6.8468,6.8468,6.8468,6.8545,6.8622,6.8737,6.8776,6.8853,6.8776,6.8507,6.8468,6.8468,6.816,6.793,6.7853,6.7891,6.7859,6.8122,6.8391,6.8475,6.8552,6.8737,6.8814,6.8776,6.8776,6.8891,6.9199,6.9391,6.9622,6.9853,7.0244,7.0667,7.0552,7.0514,7.0321,7.0321,7.0122,7.0244,7.0591,7.0591,7.0744,7.0783,7.0898,7.0898,7.0898,7.0898,7.0898,7.0898,7.0898,7.0898,7.0898,7.0898,7.0898,7.0898,7.0898,7.0898,7.0898,7.0898,7.0898,7.0898,7.0898,7.0898,7.0898,6.5904,6.5904,6.5904,6.5904,6.5904,6.5904,6.5904,6.5904,6.5904,6.5904,6.5904,6.5904,6.5904,6.5904,6.5904,6.5904,6.5904,6.5904,6.5904,6.5904,6.5904,6.5904,6.5904,6.5904,6.5904,6.5904,6.5904,6.5942,6.5936,6.5936,6.6365,6.6673,6.675,6.7051,6.7359,6.7667,6.7282,6.7058,6.7282,6.7359,6.7513,6.7821,6.8013,6.8205,6.8398,6.8622,6.8622,6.8584,6.8584,6.8545,6.9045,6.9314,6.9314,6.9821,7.0167,7.0167,7.0206,7.0206,7.0161,7.0161,7.0084,6.9968,7.0007,6.9314,6.8853,6.8545,6.8584,6.8737,6.8776,6.893,6.9199,6.9314,6.9475,6.9667,6.9706,6.9699,6.9699,6.9776,7.0052,7.009,7.0321,7.0398,7.086,7.086,7.0744,7.086,7.0898,7.0898,7.0898,7.0898,7.0898,7.0898,7.0898,7.0898,7.0898,7.0898,7.0898,7.0898,7.0898,7.0898,7.0898,7.0898,7.0898,7.0898,7.0898,7.0898,7.0898,7.0898,7.0898,7.0898,7.0898,7.0898,7.0898,7.0898,7.0898,6.5904,6.5904,6.5904,6.5904,6.5904,6.5904,6.5904,6.5904,6.5904,6.5904,6.5904,6.5904,6.5904,6.5904,6.5904,6.5904,6.5904,6.5904,6.5904,6.5904,6.5904,6.5904,6.5904,6.5904,6.5904,6.5904,6.5981,6.6096,6.632,6.6821,6.7282,6.7552,6.7628,6.7898,6.8276,6.8545,6.8629,6.8359,6.8282,6.8391,6.8545,6.8737,6.8891,6.8968,6.9122,6.9276,6.9314,6.9276,6.9314,6.9391,7.0052,7.0167,7.0206,7.0629,7.086,7.0783,7.0744,7.0744,7.0706,7.0783,7.086,7.0898,7.0898,7.0398,6.9937,6.9629,6.959,6.9629,6.9584,6.9622,6.993,7.0206,7.0514,7.0783,7.0783,7.0821,7.0821,7.0821,7.0821,7.0821,7.086,7.0821,7.0898,7.0898,7.0898,7.0898,7.0898,7.0898,7.0898,7.0898,7.0898,7.0898,7.0898,7.0898,7.0898,7.0898,7.0898,7.0898,7.0898,7.0898,7.0898,7.0898,7.0898,7.0898,7.0898,7.0898,7.0898,7.0898,7.0898,7.0898,7.0898,7.0898,7.0898,7.0898,7.0898,6.5904,6.5904,6.5904,6.5904,6.5904,6.5904,6.5904,6.5904,6.5904,6.5904,6.5904,6.5904,6.5904,6.5904,6.5904,6.5904,6.5904,6.5904,6.5904,6.5904,6.5904,6.5904,6.5904,6.5981,6.6211,6.609,6.6282,6.6821,6.7282,6.7705,6.8045,6.8468,6.8507,6.8699,6.9052,6.9507,6.9629,6.9552,6.9206,6.9007,6.9084,6.9353,6.9783,6.9898,7.0321,7.0744,7.0783,7.0821,7.0898,7.086,7.086,7.0821,7.0821,7.086,7.0898,7.0898,7.0898,7.0898,7.0898,7.0898,7.0898,7.0898,7.0898,7.0783,7.0514,7.036,7.0321,7.0321,7.0244,7.0238,7.0475,7.0552,7.0744,7.086,7.0898,7.0898,7.0898,7.0898,7.0898,7.0898,7.0898,7.0898,7.0898,7.0898,7.0898,7.0898,7.0898,7.0898,7.0898,7.0898,7.0898,7.0898,7.0898,7.0898,7.0898,7.0898,7.0898,7.0898,7.0898,7.0898,7.0898,7.0898,7.0898,7.0898,7.0898,7.0898,7.0898,7.0898,7.0898,7.0898,7.0898,7.0898,7.0898,7.0898,7.0898,6.5904,6.5904,6.5904,6.5904,6.5904,6.5904,6.5904,6.5904,6.5904,6.5904,6.5904,6.5904,6.5904,6.5904,6.5904,6.5904,6.5904,6.5904,6.5904,6.5936,6.5936,6.6058,6.6096,6.6596,6.675,6.7051,6.7398,6.7821,6.8129,6.843,6.8814,6.9321,6.9398,6.9552,7.0052,7.0475,7.0475,7.0437,7.0244,7.0007,7.0122,7.0321,7.0629,7.0629,7.0898,7.0898,7.0898,7.0898,7.0898,7.0898,7.0898,7.0898,7.0898,7.0898,7.0898,7.0898,7.0898,7.0898,7.0898,7.0898,7.0898,7.0898,7.0898,7.0898,7.086,7.0898,7.0898,7.0898,7.0898,7.0898,7.0898,7.0898,7.0898,7.0898,7.0898,7.0898,7.0898,7.0898,7.0898,7.0898,7.0898,7.0898,7.0898,7.0898,7.0898,7.0898,7.0898,7.0898,7.0898,7.0898,7.0898,7.0898,7.0898,7.0898,7.0898,7.0898,7.0898,7.0898,7.0898,7.0898,7.0898,7.0898,7.0898,7.0898,7.0898,7.0898,7.0898,7.0898,7.0898,7.0898,7.0898,7.0898,7.0898,7.0898,7.0898,6.5904,6.5904,6.5904,6.5904,6.5904,6.5904,6.5904,6.5904,6.5904,6.5904,6.5904,6.5904,6.5904,6.5904,6.5904,6.5904,6.5904,6.5904,6.5904,6.5936,6.632,6.6442,6.675,6.725,6.7552,6.7898,6.8552,6.8936,6.9007,6.9475,6.9937,7.0167,7.0244,7.0398,7.0898,7.0898,7.0898,7.086,7.0898,7.0898,7.0898,7.0898,7.0898,7.0898,7.0898,7.0898,7.0898,7.0898,7.0898,7.0898,7.0898,7.0898,7.0898,7.0898,7.0898,7.0898,7.0898,7.0898,7.0898,7.0898,7.0898,7.0898,7.0898,7.0898,7.0898,7.0898,7.0898,7.0898,7.0898,7.0898,7.0898,7.0898,7.0898,7.0898,7.0898,7.0898,7.0898,7.0898,7.0898,7.0898,7.0898,7.0898,7.0898,7.0898,7.0898,7.0898,7.0898,7.0898,7.0898,7.0898,7.0898,7.0898,7.0898,7.0898,7.0898,7.0898,7.0898,7.0898,7.0898,7.0898,7.0898,7.0898,7.0898,7.0898,7.0898,7.0898,7.0898,7.0898,7.0898,7.0898,7.0898,7.0898,7.0898,7.0898,7.0898,6.5904,6.5904,6.5904,6.5904,6.5904,6.5904,6.5904,6.5904,6.5904,6.5904,6.5904,6.5904,6.5904,6.5904,6.5904,6.5904,6.5981,6.6211,6.6134,6.6365,6.6981,6.7167,6.759,6.8129,6.8552,6.9013,6.9552,6.9744,6.986,7.0283,7.0591,7.086,7.0898,7.0898,7.0898,7.0898,7.0898,7.0898,7.0898,7.0898,7.0898,7.0898,7.0898,7.0898,7.0898,7.0898,7.0898,7.0898,7.0898,7.0898,7.0898,7.0898,7.0898,7.0898,7.0898,7.0898,7.0898,7.0898,7.0898,7.0898,7.0898,7.0898,7.0898,7.0898,7.0898,7.0898,7.0898,7.0898,7.0898,7.0898,7.0898,7.0898,7.0898,7.0898,7.0898,7.0898,7.0898,7.0898,7.0898,7.0898,7.0898,7.0898,7.0898,7.0898,7.0898,7.0898,7.0898,7.0898,7.0898,7.0898,7.0898,7.0898,7.0898,7.0898,7.0898,7.0898,7.0898,7.0898,7.0898,7.0898,7.0898,7.0898,7.0898,7.0898,7.0898,7.0975,7.0937,7.0898,7.0898,7.1014,7.0898,7.0898,7.0898,7.0898,7.0898,6.5904,6.5904,6.5904,6.5904,6.5904,6.5904,6.5904,6.5904,6.5904,6.5904,6.5981,6.5904,6.5904,6.5904,6.5904,6.6019,6.6397,6.6635,6.6865,6.7019,6.7782,6.8052,6.8398,6.9052,6.9744,7.0167,7.0398,7.0591,7.0437,7.0706,7.0898,7.0898,7.0898,7.0898,7.0898,7.0898,7.0898,7.0898,7.0898,7.0898,7.0898,7.0898,7.0898,7.0898,7.0898,7.0898,7.0898,7.0898,7.0898,7.0898,7.0898,7.0898,7.0898,7.0898,7.0898,7.0898,7.0898,7.0898,7.0898,7.0898,7.0898,7.0898,7.0898,7.0898,7.0898,7.0898,7.0898,7.0898,7.0898,7.0898,7.0898,7.0898,7.0898,7.0898,7.0898,7.0898,7.0898,7.0898,7.0898,7.0898,7.0898,7.0898,7.0898,7.0898,7.0898,7.0898,7.0898,7.0898,7.0898,7.0898,7.0937,7.1014,7.1052,7.0898,7.0898,7.0898,7.0898,7.0898,7.1014,7.1283,7.1283,7.0937,7.0937,7.1398,7.1245,7.1168,7.1091,7.1437,7.1283,7.136,7.1014,7.0898,7.0975,7.1206,7.1475]}]]